     2              OBSERVATION DATA    GPS                 RINEX VERSION / TYPE
teqc 2002Apr3 20040913 17:08:47UTC                          PGM / RUN BY / DATE
                                                            COMMENT
L2: 1 -> 1; 5 -> 5; 60 -> 9                                 COMMENT
L2: 1 -> 1; 5 -> 5; 60 -> 9                                 COMMENT
L2: 1 -> 1; 5 -> 5; 60 -> 9                                 COMMENT
L2: 1 -> 1; 5 -> 5; 60 -> 9                                 COMMENT
Original Marker Name: 941 2110 TIDAL 14 RESET               COMMENT
Campaign Name: NGS Airport Survey 1993                      COMMENT
4-Character Station Name: TI14                              COMMENT
6-Character Antenna Code: TRMSST                            COMMENT
Vertical Measurement Point: TGP                             COMMENT
Vertical Offset to Rinex Ref. Point: 0.0629                 COMMENT
Radial Measurement Point: NGP                               COMMENT
Radial Offset to Rinex Ref. Point: 0.2334                   COMMENT
Antenna Height from Field Measurement: 1.6690 m             COMMENT
Additional Antenna Identification Info.:                    COMMENT
Model 14532.00                                              COMMENT
Original XYZ: -2667208.0917 -4485985.3388 3654096.4922      COMMENT
New XYZ position is based on association with SCEC monument COMMENT
E1E9Q3R4+0011. Position of that monument is believed to be  COMMENT
valid to within 1 m horizontally; vertical accuracy         COMMENT
should be no worse than 3-times this value.                 COMMENT
                                                            COMMENT
Revised Rinex header created by UCSD GPS archive for        COMMENT
GSAC on 22-Mar-2005 (2005:081) 16:44:18 GMT                 COMMENT
For assistance contact dagnew@ucsd.edu                      COMMENT
or anderson@python.ucsd.edu                                 COMMENT
                                                            COMMENT
941 2110 TIDAL 14 RESET                                     MARKER NAME
TI14                                                        MARKER NUMBER
-Unknown- NGS                                               OBSERVER / AGENCY
2366 TRIMBLE 4000 SST NP 4.80 / SP 1.15                     REC # / TYPE / VERS
20081 TR 4000SST L1/L2 GEO                                  ANT # / TYPE
 -2667202.0000 -4485971.0000  3654088.0000                  APPROX POSITION XYZ
        1.5897        0.0000        0.0000                  ANTENNA: DELTA H/E/N
     1     1     0                                          WAVELENGTH FACT L1/2
     5    C1    L1    L2    S1    S2                        # / TYPES OF OBSERV
     0                                                      INTERVAL
  1993     3    18    19     0   30.000000                  TIME OF FIRST OBS
  1993     3    19     0    29   45.000000                  TIME OF LAST OBS
                                                            END OF HEADER
 93  3 18 19  0 30.0000000  0  4G29G14G19G27
  21127046.047          -0.79517                        22.000
  22874089.523          -0.98816                        13.750
  21580462.227          -0.65816                        14.500
  24389754.281          -0.65214                         7.000
 93  3 18 19  0 45.0000000  0  4G29G14G19G27
  21131261.805       22147.107 7                        21.750
  22885725.773       61148.902 6                        13.500
  21578180.781      -11957.170 6                        15.000
  24383707.531      -31777.967 4                         6.750
 93  3 18 19  1  0.0000000  0  4G29G14G19G27
  21135466.336       44235.050 7        -0.08416        22.000          17.500
  22897346.375      122221.622 6        -0.11515        13.250           9.500
  21575890.672      -23985.584 6        -0.98516        14.750          13.750
  24377636.414      -63670.800 4        -0.99115         7.000           5.500
 93  3 18 19  1 15.0000000  0  4G29G14G19G27
  21139655.336       66256.420 7     17159.408 6        22.250          17.250
  22908953.031      183210.548 6     47523.601 5        12.750           9.500
  21573584.531      -36094.097 6     -9436.167 6        15.000          13.500
  24371546.672      -95689.162 4    -24950.309 5         6.750           5.500
 93  3 18 19  1 30.0000000  0  5G29G14G19G27G28
  21143834.320       88209.809 7     34265.921 6        22.500          17.250
  22920545.211      244111.419 6     94978.731 5        12.500           9.500
  21571260.602      -48286.458 6    -18936.659 6        15.750          15.000
  24365431.234     -127834.354 4    -49998.453 5         7.000           5.500
  24589100.219          -0.11014                         6.500
 93  3 18 19  1 45.0000000  0  5G29G14G19G27G28
  21148000.141      110106.917 7     51328.583 6        22.500          17.500
  22932118.852      304934.300 5    142373.087 5        11.750           9.500
  21568932.125      -60550.996 6    -28493.430 6        15.000          15.000
  24359292.820     -160092.067 4    -75134.253 5         6.750           5.500
  24585313.836      -19884.949 4                         7.000
 93  3 18 19  2  0.0000000  0  5G29G14G19G27G28
  21152158.688      131951.281 7     68350.144 6        22.500          17.500
  22943673.758      365683.947 5    189710.380 5        11.500           9.500
  21566575.680      -72884.395 6    -38103.848 6        15.000          15.250
  24353135.148     -192454.792 4   -100351.897 5         6.500           5.500
  24581519.547      -39832.776 5                         7.750
 93  3 18 19  2 15.0000000  0  5G29G14G19G27G28
  21156306.547      153750.359 7     85336.418 6        22.500          17.500
  22955221.625      426365.975 5    236994.976 5        11.250           9.500
  21564231.258      -85279.496 6    -47762.347 6        14.500          15.250
  24346948.891     -224914.535 4   -125645.134 5         6.250           5.750
  24577712.266      -59837.402 5        -0.62715         7.500           7.500
 93  3 18 19  2 30.0000000  0  5G29G14G19G27G28
  21160445.656      175512.304 7    102293.759 6        22.000          17.750
  22966750.977      486979.032 5    284225.841 5        11.250           9.750
  21561850.344      -97731.962 6    -57465.541 6        15.250          15.250
  24340757.289     -257467.677 4   -151011.143 5         6.750           5.750
  24573888.641      -79891.283 5    -15626.901 5         7.500           7.750
 93  3 18 19  2 45.0000000  0  5G29G14G19G27G28
  21164581.609      197248.481 7    119231.015 6        22.000          17.750
  22978277.898      547531.979 5    331409.857 5        11.750          10.000
  21559478.695     -110232.967 6    -67206.565 6        15.250          15.250
  24334551.047     -290103.578 4   -176441.649 5         7.000           6.000
  24570075.867      -99978.963 4    -31279.526 5         6.750           8.000
 93  3 18 19  3  0.0000000  0  5G29G14G19G27G28
  21168711.961      218957.138 7    136146.831 6        22.000          18.000
  22989792.539      608021.929 6    378544.777 5        12.000           9.500
  21557088.359     -122785.959 6    -76988.105 6        16.000          15.250
  24328325.211     -322824.486 4   -201938.373 5         6.750           6.000
  24566238.883     -120102.231 3    -46959.888 5         5.500           8.000
 93  3 18 19  3 15.0000000  0  5G29G14G19G27G28
  21172839.383      240640.326 7    153042.803 6        22.000          18.000
  23001295.844      668448.103 6    425629.999 5        12.250           9.750
  21554691.945     -135386.874 6    -86806.967 6        15.500          15.250
  24322087.875     -355629.382 5   -227500.546 5         7.500           6.250
  24562406.797     -140260.657 4    -62667.649 5         6.500           7.500
 93  3 18 19  3 30.0000000  0  5G29G14G19G27G28
  21176964.930      262298.636 7    169919.385 6        23.000          18.000
  23012782.727      728811.161 6    472666.047 5        12.750           9.750
  21552279.797     -148032.272 6    -96660.504 6        15.750          15.250
  24315826.523     -388514.262 5   -253125.038 5         7.500           6.500
  24558559.266     -160453.310 4    -78402.096 5         7.250           7.250
 93  3 18 19  3 45.0000000  0  5G29G14G19G27G28
  21181075.320      283934.336 7    186778.353 6        22.500          18.000
  23024252.734      789112.425 6    519653.942 5        12.750           9.250
  21549870.258     -160717.545 6   -106545.106 6        14.500          15.250
  24309553.930     -421473.608 5   -278807.566 5         7.750           6.500
  24554719.930     -180678.020 5    -94161.541 5         8.000           7.250
 93  3 18 19  4  0.0000000  0  5G29G14G19G27G28
  21185192.133      305546.338 7    203618.848 6        23.000          18.000
  23035715.422      849352.156 6    566593.885 5        12.000           9.000
  21547441.781     -173443.491 6   -116461.415 6        15.000          15.250
  24303265.117     -454506.607 4   -304547.475 5         7.250           6.500
  24550868.375     -200933.840 5   -109945.188 5         8.250           7.500
 93  3 18 19  4 15.0000000  0  5G29G14G19G27G28
  21189298.797      327138.879 7    220444.183 6        22.750          18.000
  23047166.133      909535.158 6    613489.629 5        12.000           9.250
  21545016.984     -186207.232 6   -126407.171 6        15.000          15.250
  24296968.055     -487609.596 4   -330341.915 5         7.250           6.500
  24546998.992     -221214.542 5   -125748.209 5         8.000           7.500
 93  3 18 19  4 30.0000000  0  5G29G14G19G27G28
  21193408.891      348717.735 7    237258.856 6        23.000          18.000
  23058611.148      969663.333 6    660342.651 5        12.250           9.000
  21542580.922     -199004.362 6   -136378.939 6        16.000          15.250
  24290653.953     -520778.282 4   -356187.558 5         6.500           6.250
  24543136.578     -241517.772 4   -141568.822 5         7.250           7.000
 93  3 18 19  4 45.0010000  0  5G29G14G19G27G28
  21197510.583      370283.532 7    254063.357 6        22.250          17.750
  23070043.497     1029745.221 6    707159.609 5        12.000           9.000
  21540146.021     -211834.896 6   -146376.727 6        16.000          15.250
  24284331.708     -554010.202 4   -382082.487 5         7.000           6.250
  24539269.872     -261846.744 4   -157409.496 5         7.250           6.250
 93  3 18 19  5  0.0010000  0  5G29G14G19G27G28
  21201611.052      391836.204 7    270857.635 6        22.000          17.750
  23081465.466     1089777.531 6    753937.926 5        12.000           9.000
  21537687.435     -224695.513 6   -156397.965 6        16.000          15.250
  24277992.013     -587297.542 4   -408020.585 5         7.250           6.250
  24535394.380     -282198.797 4   -173268.161 5         7.000           5.750
 93  3 18 19  5 15.0010000  0  5G29G14G19G27G28
  21205713.388      413382.230 7    287646.723 6        22.250          18.000
  23092885.497     1149766.995 6    800682.862 5        12.250           9.250
  21535244.114     -237584.961 6   -166441.674 6        15.250          15.250
  24271651.271     -620641.311 5   -434002.652 5         7.500           6.000
  24531515.185     -302574.185 5   -189145.030 5         7.500           5.500
 93  3 18 19  5 30.0010000  0  5G29G14G19G27G28
  21209812.958      434924.606 7    304432.970 6        22.750          17.750
  23104291.481     1209718.022 6    847397.849 5        12.000           8.750
  21532788.841     -250498.787 6   -176504.384 6        15.000          15.250
  24265288.997     -654033.448 5   -460022.402 5         7.500           6.000
  24527641.247     -322965.621 5   -205034.366 5         7.750           6.750
 93  3 18 19  5 45.0010000  0  5G29G14G19G27G28
  21213911.622      456466.541 7    321218.875 6        23.000          18.000
  23115696.021     1269635.930 6    894087.022 5        12.250           8.750
  21530322.044     -263435.018 6   -186584.556 6        15.000          15.250
  24258931.497     -687470.706 4   -486077.335 5         7.250           6.000
  24523759.333     -343368.750 5   -220932.827 5         8.750           7.000
 93  3 18 19  6  0.0010000  0  5G29G14G19G27G28
  21218009.864      478007.998 7    338004.407 6        23.000          17.750
  23127091.349     1329518.849 6    940748.927 5        12.000           8.750
  21527862.903     -276396.362 6   -196684.288 6        15.250          15.250
  24252562.177     -720954.121 4   -512168.208 5         7.250           6.250
  24519871.474     -363784.080 5   -236840.804 5         9.000           6.750
 93  3 18 19  6 15.0010000  0  5G29G14G19G27G28
  21222111.450      499552.288 7    354792.144 6        23.000          18.000
  23138477.896     1389370.822 6    987386.728 5        12.000           8.750
  21525392.286     -289380.766 6   -206801.982 6        15.500          15.250
  24246175.677     -754479.816 5   -538292.032 5         7.500           6.750
  24515985.185     -384206.502 5   -252754.305 5         8.500           6.750
 93  3 18 19  6 30.0010000  0  5G29G14G19G27G28
  21226212.099      521099.587 7    371582.229 6        23.250          18.000
  23149867.646     1449192.033 5   1034000.557 5        11.750           8.500
  21522900.317     -302383.865 6   -216934.257 6        16.500          15.000
  24239793.989     -788047.948 5   -564448.922 5         7.500           7.000
  24512097.075     -404635.908 5   -268673.276 5         8.250           7.000
 93  3 18 19  6 45.0010000  0  5G29G14G19G27G28
  21230311.810      542651.854 7    388376.186 6        23.250          18.250
  23161245.755     1508987.451 6   1080594.291 5        12.250           8.750
  21520432.786     -315402.409 6   -227078.558 6        15.500          15.250
  24233396.817     -821654.729 4   -590635.927 5         7.000           7.000
  24508210.060     -425070.160 5   -284596.021 5         8.750           6.750
 93  3 18 19  7  0.0010000  0  5G29G14G19G27G28
  21234411.263      564207.300 7    405172.620 6        23.000          18.500
  23172614.169     1568754.134 5   1127165.622 5        11.750           8.500
  21517960.911     -328441.054 6   -237238.532 6        15.000          15.250
  24227001.653     -855304.253 4   -616856.259 5         7.250           7.000
  24504318.880     -445507.879 5   -300521.486 5         8.750           6.500
 93  3 18 19  7 15.0010000  0  5G29G14G19G27G28
  21238517.356      585768.126 7    421973.241 6        23.000          18.500
  23183984.958     1628490.431 6   1173713.291 5        12.250           8.250
  21515466.396     -341499.573 6   -247413.994 6        15.750          15.250
  24220591.724     -888998.866 5   -643111.707 5         7.500           7.000
  24500433.419     -465944.610 5   -316446.165 5         8.250           6.500
 93  3 18 19  7 30.0010000  0  5G29G14G19G27G28
  21242618.208      607333.681 7    438777.548 6        22.250          18.500
  23195342.583     1688196.169 6   1220237.136 5        12.250           8.500
  21512987.224     -354576.205 6   -257603.561 6        16.000          15.250
  24214162.263     -922735.198 5   -669399.650 5         7.750           6.750
  24496539.630     -486377.407 5   -332367.779 5         8.000           6.750
 93  3 18 19  7 45.0010000  0  5G29G14G19G27G28
  21246726.060      628909.930 7    455590.196 6        22.750          18.250
  23206703.567     1747876.451 6   1266741.152 5        12.250           8.500
  21510492.763     -367664.408 6   -267802.150 6        16.500          15.250
  24207736.755     -956509.275 4   -695717.019 5         7.250           7.000
  24492651.200     -506802.217 4   -348283.198 5         6.750           6.250
 93  3 18 19  8  0.0010000  0  5G29G14G19G27G28
  21250833.497      650496.496 7    472410.876 6        23.000          18.250
  23218053.575     1807529.180 6   1313223.680 5        12.250           8.500
  21507987.981     -380768.468 6   -278013.096 6        17.250          15.250
  24201296.825     -990329.623 4   -722070.446 5         7.000           7.000
  24488764.364     -527222.477 4   -364195.060 5         7.000           6.500
 93  3 18 19  8 15.0010000  0  5G29G14G19G27G28
  21254943.474      672096.211 7    489241.798 6        22.500          18.250
  23229405.341     1867158.054 6   1359687.638 5        12.000           8.250
  21505498.958     -393884.092 6   -288233.039 6        16.250          15.250
  24194858.130    -1024196.161 4   -748459.881 5         7.000           7.000
  24484889.263     -547633.634 5   -380099.800 5         7.500           7.000
 93  3 18 19  8 30.0010000  0  5G29G14G19G27G28
  21259057.380      693705.201 7    506079.953 6        22.750          18.000
  23240740.669     1926759.636 5   1406130.319 5        11.000           8.250
  21503008.146     -407014.260 6   -298464.331 6        15.750          15.250
  24188403.880    -1058115.672 4   -774890.575 5         7.000           6.750
  24481002.981     -568040.016 5   -396000.837 5         7.500           6.750
 93  3 18 19  8 45.0010000  0  5G29G14G19G27G28
  21263169.685      715323.698 7    522925.523 6        23.000          18.000
  23252077.388     1986333.161 5   1452551.141 5        11.000           8.250
  21500498.153     -420160.769 6   -308708.354 6        15.750          15.250
  24181939.388    -1092090.488 4   -801364.370 5         7.000           6.500
  24477114.341     -588444.974 5   -411900.761 5         7.750           7.250
 93  3 18 19  9  0.0010000  0  5G29G14G19G27G28
  21267286.755      736957.987 7    539783.391 6        22.750          18.250
  23263409.403     2045884.724 5   1498954.853 5        11.000           8.250
  21498001.997     -433318.793 6   -318961.344 6        16.000          15.250
  24175457.817    -1126114.182 4   -827876.232 5         6.500           6.500
  24473232.677     -608841.277 4   -427793.970 5         6.750           7.000
 93  3 18 19  9 15.0010000  0  5G29G14G19G27G28
  21271406.747      758611.597 7    556656.319 6        22.750          18.000
  23274734.458     2105415.308 5   1545342.215 5        11.000           8.250
  21495490.427     -446480.299 6   -329217.042 6        16.500          15.250
  24168975.606    -1160185.025 4   -854424.876 5         6.750           6.500
  24469355.239     -629225.629 5   -443677.838 5         7.500           7.250
 93  3 18 19  9 30.0010000  0  5G29G14G19G27G28
  21275529.825      780279.654 7    573540.498 6        22.750          18.000
  23286059.106     2164923.033 5   1591711.769 5        11.000           8.250
  21492986.903     -459644.358 6   -339474.732 6        16.750          15.000
  24162485.872    -1194304.433 4   -881011.353 5         7.000           6.500
  24465479.427     -649603.011 4   -459556.306 5         7.250           7.250
 93  3 18 19  9 45.0010000  0  5G29G14G19G27G28
  21279656.060      801959.687 7    590434.013 6        22.500          18.250
  23297383.716     2224407.697 5   1638063.349 5        10.500           8.250
  21490484.505     -472810.686 6   -349734.195 6        16.500          15.250
  24155981.638    -1228473.607 4   -907636.586 5         7.000           7.000
  24461590.286     -669976.165 4   -475431.469 5         7.000           7.000
 93  3 18 19 10  0.0010000  0  5G29G14G19G27G28
  21283783.458      823650.271 7    607335.743 6        23.000          18.250
  23308697.794     2283870.710 5   1684398.046 5        10.750           8.000
  21487968.724     -485979.201 6   -359995.366 6        17.000          15.000
  24149476.560    -1262696.139 4   -934303.419 5         7.000           7.000
  24457731.716     -690345.499 5   -491303.676 5         7.750           6.750
 93  3 18 19 10 15.0010000  0  5G29G14G19G27G28
  21287914.606      845355.424 7    624248.834 6        23.250          18.000
  23320013.114     2343318.622 5   1730720.984 5        10.750           8.000
  21485470.599     -499145.935 6   -370255.150 6        16.000          15.000
  24142953.833    -1296963.663 4   -961005.289 5         7.250           7.000
  24453854.372     -710704.129 5   -507167.529 5         8.000           7.000
 93  3 18 19 10 30.0010000  0  5G29G14G19G27G28
  21292046.466      867068.176 7    641167.839 6        22.750          17.750
  23331319.653     2402743.664 5   1777026.100 5        10.500           8.250
  21482968.864     -512318.084 6   -380519.149 6        16.250          15.000
  24136422.208    -1331276.765 4   -987742.695 5         7.250           7.000
  24449981.669     -731058.383 4   -523027.953 5         7.250           7.000
 93  3 18 19 10 45.0010000  0  5G29G14G19G27G28
  21296178.075      888791.876 7    658095.375 6        22.500          17.750
  23342620.911     2462145.043 5   1823312.784 5        10.750           8.250
  21480456.349     -525496.057 6   -390787.684 6        17.000          15.250
  24129878.755    -1365629.837 4  -1014511.236 5         6.500           7.250
  24446107.091     -751407.629 5   -538884.468 5         7.500           7.250
 93  3 18 19 11  0.0010000  0  5G29G14G19G27G28
  21300312.177      910525.469 7    675030.621 6        21.750          17.500
  23353927.177     2521523.171 5   1869581.338 5        11.250           8.250
  21477937.646     -538679.717 6   -401060.653 6        17.500          15.250
  24123335.310    -1400021.439 4  -1041309.816 5         6.750           7.000
  24442239.856     -771749.832 5   -554735.507 5         7.500           6.750
 93  3 18 19 11 15.0010000  0  5G29G14G19G27G28
  21304456.474      932274.245 7    691977.705 6        22.500          17.750
  23365215.950     2580880.484 5   1915833.683 5        11.000           8.500
  21475437.989     -551863.609 6   -411333.795 6        16.500          15.250
  24116780.521    -1434448.440 4  -1068135.977 5         6.500           6.750
  24438371.817     -792080.119 4   -570577.275 5         7.250           6.500
 93  3 18 19 11 30.0010000  0  5G29G14G19G27G28
  21308593.911      954036.336 7    708935.158 6        22.250          18.000
  23376513.231     2640215.100 5   1962068.342 5        11.000           8.500
  21472933.528     -565051.408 6   -421609.990 6        16.500          15.250
  24110225.544    -1468913.291 4  -1094991.627 5         6.750           6.500
  24434497.427     -812402.420 4   -586412.835 5         6.500           7.250
 93  3 18 19 11 45.0010000  0  5G29G14G19G27G28
  21312738.372      975810.172 7    725901.764 6        22.250          18.250
  23387793.122     2699526.793 5   2008285.129 5        11.000           8.250
  21470419.060     -578248.486 6   -431893.417 6        16.750          15.250
  24103657.560    -1503416.354 4  -1121877.028 5         7.000           6.750
  24430637.481     -832718.652 4   -602243.640 5         7.000           7.250
 93  3 18 19 12  0.0010000  0  5G29G14G19G27G28
  21316884.911      997599.378 7    742880.342 6        21.750          18.250
  23399078.856     2758814.494 5   2054483.227 5        11.000           8.250
  21467907.185     -591456.401 6   -442185.289 6        16.750          15.000
  24097093.989    -1537954.850 4  -1148790.056 5         6.750           6.750
  24426771.208     -853027.478 4   -618068.682 5         6.250           7.000
 93  3 18 19 12 15.0010000  0  5G29G14G19G27G28
  21321037.669     1019414.453 7    759879.077 6        21.250          18.250
  23410355.669     2818082.942 5   2100666.331 5        11.250           8.250
  21465391.224     -604670.777 6   -452482.184 6        17.000          15.250
  24090510.731    -1572519.655 4  -1175723.606 5         7.000           7.000
  24422909.896     -873319.743 4   -633880.806 5         7.250           7.500
 93  3 18 19 12 30.0010000  0  5G29G14G19G27G28
  21325189.856     1041248.518 7    776892.614 6        22.000          18.000
  23421626.950     2877320.147 5   2146825.078 5        11.000           8.250
  21462868.153     -617898.974 6   -462789.842 6        17.250          15.250
  24083921.372    -1607115.853 4  -1202681.610 5         7.000           7.000
  24419044.396     -893602.273 4   -649685.335 5         6.750           7.750
 93  3 18 19 12 45.0010000  0  5G29G14G19G27G28
  21329348.833     1063102.010 7    793921.288 6        22.250          18.000
  23432895.278     2936525.225 5   2192958.780 5        11.000           8.500
  21460351.778     -631135.281 6   -473103.836 6        17.250          15.250
  24077341.317    -1641743.909 5  -1229664.430 5         7.750           7.000
  24415199.271     -913873.948 5   -665481.410 5         7.500           7.250
 93  3 18 19 13  0.0010000  0  5G29G14G19G27G28
  21333513.505     1084974.248 7    810964.564 6        22.000          18.250
  23444155.356     2995700.281 5   2239069.114 5        11.000           8.250
  21457840.810     -644376.766 6   -483421.865 6        16.250          15.250
  24070743.380    -1676405.037 5  -1256673.019 5         8.000           7.000
  24411337.106     -934133.313 4   -681267.867 5         7.250           7.000
 93  3 18 19 13 15.0010000  0  5G29G14G19G27G28
  21337677.833     1106867.655 7    828024.323 6        21.750          18.250
  23455411.614     3054847.377 5   2285157.642 5        10.750           8.000
  21455313.138     -657621.036 6   -493742.062 6        16.750          15.250
  24064141.685    -1711099.329 5  -1283707.439 5         7.750           7.250
  24407477.942     -954379.674 4   -697044.186 5         6.750           7.250
 93  3 18 19 13 30.0010000  0  5G29G14G19G27G28
  21341849.731     1128780.488 7    845099.238 6        21.750          18.000
  23466657.599     3113961.377 5   2331220.379 5        11.000           8.250
  21452793.606     -670869.466 6   -504065.498 6        16.750          15.250
  24057535.724    -1745828.517 5  -1310769.082 5         7.500           7.250
  24403630.692     -974613.014 4   -712810.374 5         6.500           7.500
 93  3 18 19 13 45.0010000  0  5G29G14G19G27G28
  21346022.888     1150716.452 7    862192.175 6        21.500          18.000
  23477905.263     3173044.845 5   2377259.341 5        11.250           8.250
  21450271.450     -684119.292 6   -514390.019 6        17.500          15.500
  24050920.958    -1780586.872 4  -1337853.426 5         7.250           7.250
  24399789.130     -994825.249 4   -728560.121 5         7.000           7.750
 93  3 18 19 14  0.0010000  0  5G29G14G19G27G28
  21350202.583     1172675.382 7    879303.004 6        22.250          17.750
  23489141.466     3232094.600 5   2423272.015 5        10.750           8.250
  21447738.638     -697374.117 6   -524718.441 6        17.750          15.250
  24044302.099    -1815374.824 4  -1364960.844 5         7.250           7.500
  24395951.731    -1015013.935 5   -744291.501 5         8.000           7.750
 93  3 18 19 14 15.0010000  0  5G29G14G19G27G28
  21354386.388     1194657.541 7    896431.939 6        22.250          17.750
  23500369.888     3291110.412 5   2469258.242 5        10.500           8.250
  21445227.364     -710631.187 6   -535048.618 6        16.500          15.500
  24037663.294    -1850192.917 4  -1392091.751 5         7.250           7.500
  24392107.224    -1035175.353 5   -760001.627 5         8.000           8.000
 93  3 18 19 14 30.0010000  0  5G29G14G19G27G28
  21358570.544     1216656.823 7    913574.211 6        21.750          17.500
  23511598.872     3350092.921 5   2515218.521 5        10.500           8.500
  21442698.278     -723890.657 6   -545380.661 6        17.500          15.750
  24031042.856    -1885045.249 5  -1419249.341 5         7.500           7.250
  24388282.247    -1055311.002 5   -775691.676 5         7.750           8.000
 93  3 18 19 14 45.0010000  0  5G29G14G19G27G28
  21362760.481     1238673.790 7    930730.261 6        22.000          17.750
  23522819.114     3409044.790 5   2561154.923 5        10.500           8.000
  21440181.106     -737145.959 6   -555709.438 6        17.250          15.750
  24024402.114    -1919931.473 4  -1446433.345 5         6.750           8.000
  24384443.817    -1075420.037 5   -791360.970 5         7.750           8.750
 93  3 18 19 15  0.0010000  0  5G29G14G19G27G28
  21366953.763     1260708.764 7    947900.336 6        21.750          17.750
  23534022.411     3467967.701 5   2607068.745 5        10.250           8.000
  21437651.560     -750400.123 6   -566037.343 6        18.250          15.750
  24017755.380    -1954852.647 4  -1473644.620 5         7.000           6.750
  24380636.724    -1095503.220 5   -807010.144 5         8.000           8.000
 93  3 18 19 15 15.0010000  0  5G29G14G19G27G28
  21371150.927     1282766.369 7    965088.058 6        22.000          17.500
  23545232.200     3526864.087 5   2652961.917 5        10.750           8.000
  21435140.427     -763652.809 6   -576364.090 6        17.500          15.750
  24011101.442    -1989807.001 4  -1500881.690 5         7.250           6.750
  24376813.341    -1115555.652 5   -822635.336 5         8.000           8.250
 93  3 18 19 15 30.0010000  0  5G29G14G19G27G28
  21375352.802     1304846.141 7    982293.046 6        22.500          17.750
  23556434.700     3585731.601 5   2698832.578 5        10.750           7.750
  21432609.646     -776903.964 6   -586689.644 6        17.750          15.500
  24004438.239    -2024795.642 4  -1528145.499 5         7.250           6.750
  24373011.981    -1135576.191 5   -838235.675 5         7.750           8.250
 93  3 18 19 15 45.0010000  0  5G29G14G19G27G28
  21379561.583     1326943.580 7    999511.798 6        22.500          17.750
  23567634.481     3644567.995 5   2744679.002 5        10.750           7.750
  21430091.833     -790156.901 6   -597016.599 6        17.000          15.500
  23997776.552    -2059822.309 5  -1555438.953 5         7.500           6.750
  24369196.513    -1155568.375 5   -853813.906 5         8.250           8.500
 93  3 18 19 16  0.0010000  0  5G29G14G19G27G28
  21383766.247     1349063.605 7   1016748.154 6        22.250          17.750
  23578824.903     3703379.682 5   2790506.178 5        11.000           7.500
  21427565.950     -803409.469 6   -607343.269 6        17.500          15.500
  23991109.192    -2094881.935 5  -1582758.063 5         7.500           6.750
  24365397.669    -1175532.032 5   -869369.909 5         8.250           8.250
 93  3 18 19 16 15.0010000  0  5G29G14G19G27G28
  21387979.208     1371204.100 7   1034000.457 6        23.000          17.500
  23590009.294     3762165.197 5   2836312.941 5        11.000           7.500
  21425051.474     -816660.750 6   -617668.932 6        17.250          15.250
  23984421.872    -2129976.448 4  -1610104.388 5         7.000           6.500
  24361606.169    -1195471.722 5   -884907.250 5         8.000           8.000
 93  3 18 19 16 30.0010000  0  5G29G14G19G27G28
  21392200.091     1393366.967 7   1051270.192 6        24.250          17.500
  23601198.669     3820926.900 5   2882101.164 5        10.500           7.500
  21422521.333     -829906.993 6   -627990.663 6        17.500          15.250
  23977746.427    -2165105.190 4  -1637477.379 5         7.250           6.500
  24357819.216    -1215389.435 5   -900427.455 5         8.000           8.250
 93  3 18 19 16 45.0010000  0  5G29G14G19G27G28
  21396415.591     1415553.613 7   1068558.462 6        23.500          17.250
  23612366.755     3879660.119 5   2927867.176 5        10.500           7.500
  21420007.364     -843152.570 6   -638311.876 6        17.000          15.000
  23971054.763    -2200270.659 5  -1664878.975 5         8.000           6.500
  24354025.606    -1235287.456 5   -915932.292 5         7.500           8.000
 93  3 18 19 17  0.0010000  0  5G29G14G19G27G28
  21400645.755     1437770.059 7   1085869.937 6        23.500          16.750
  23623536.849     3938365.746 5   2973611.712 5        10.750           7.750
  21417482.528     -856396.252 6   -648631.619 6        17.250          15.250
  23964362.411    -2235469.717 5  -1692306.754 5         8.000           6.500
  24350249.169    -1255162.736 5   -931419.442 5         8.000           8.250
 93  3 18 19 17 15.0010000  0  5G29G14G19G27G28
  21404883.231     1460016.306 7   1103204.646 6        24.000          16.750
  23634707.724     3997043.771 5   3019334.713 5        10.500           7.500
  21414968.560     -869639.394 6   -658950.940 6        17.250          15.250
  23957654.052    -2270701.500 5  -1719760.039 5         8.500           6.500
  24346469.099    -1275011.546 5   -946885.948 5         8.500           8.500
 93  3 18 19 17 30.0010000  0  5G29G14G19G27G28
  21409118.669     1482291.325 7   1120561.763 6        22.750          16.500
  23645869.708     4055691.945 5   3065034.457 5        10.500           7.250
  21412439.544     -882882.604 6   -669270.318 6        18.000          15.250
  23950940.614    -2305968.467 5  -1747240.737 5         8.750           6.250
  24342698.880    -1294836.692 5   -962334.000 5         9.500           8.500
 93  3 18 19 17 45.0010000  0  5G29G14G19G27G28
  21413362.005     1504589.973 7   1137937.304 6        23.250          16.000
  23657019.747     4114304.540 5   3110706.475 5        10.250           7.250
  21409925.911     -896131.192 6   -679593.875 6        17.500          15.500
  23944218.513    -2341274.378 5  -1774751.788 5         8.750           6.250
  24338926.864    -1314646.204 5   -977769.871 5        10.000           8.250
 93  3 18 19 18  0.0010000  0  5G29G14G19G27G28
  21417612.927     1526912.669 7   1155331.577 6        24.000          16.250
  23668167.052     4172879.673 5   3156349.308 5        10.000           7.250
  21407402.817     -909388.112 6   -689923.931 6        18.000          15.500
  23937497.122    -2376620.010 5  -1802293.769 5         9.000           6.250
  24335164.349    -1334439.839 5   -993193.396 5         9.250           8.250
 93  3 18 19 18 15.0010000  0  5G29G14G19G27G28
  21421866.114     1549260.022 7   1172745.068 6        24.000          16.250
  23679305.341     4231414.227 5   3201960.506 5        10.000           6.750
  21404878.763     -922652.817 6   -700260.046 6        18.500          16.000
  23930759.560    -2412003.591 5  -1829865.350 5         8.500           6.250
  24331395.919    -1354214.245 5  -1008601.931 5         9.250           8.500
 93  3 18 19 18 30.0010000  0  5G29G14G19G27G28
  21426119.208     1571629.671 7   1190175.933 6        23.500          16.250
  23690437.286     4289908.322 5   3247540.194 5        10.500           7.250
  21402358.185     -935923.869 6   -710601.119 6        17.500          15.750
  23924027.239    -2447427.244 5  -1857468.144 5         9.250           6.250
  24327637.935    -1373968.855 5  -1023995.041 5         9.250           8.250
 93  3 18 19 18 45.0010000  0  5G29G14G19G27G28
  21430380.302     1594022.730 7   1207625.037 6        24.000          16.500
  23701564.739     4348364.296 5   3293090.174 5        10.500           7.250
  21399830.989     -949202.332 6   -720947.964 6        17.750          15.750
  23917275.505    -2482890.339 5  -1885101.658 5         8.750           6.000
  24323885.052    -1393700.341 5  -1039370.126 5         9.500           8.250
 93  3 18 19 19  0.0010000  0  5G29G14G19G27G28
  21434648.169     1616436.207 7   1225090.049 6        24.250          16.500
  23712680.505     4406780.262 5   3338608.987 5        10.000           7.000
  21397293.380     -962488.778 6   -731301.026 6        19.500          15.750
  23910515.763    -2518393.494 5  -1912766.426 5         9.250           6.000
  24320131.716    -1413406.691 5  -1054725.637 5         9.000           7.750
 93  3 18 19 19 15.0010000  0  5G29G14G19G27G28
  21438917.935     1638866.720 7   1242568.336 6        24.500          16.500
  23723786.763     4465157.274 5   3384097.427 5        10.000           6.750
  21394773.138     -975781.878 6   -741659.263 6        18.750          15.750
  23903751.341    -2553934.551 5  -1940460.684 5         9.250           6.000
  24316381.435    -1433087.247 5  -1070061.046 5         9.750           7.750
 93  3 18 19 19 30.0010000  0  5G29G14G19G27G28
  21443187.380     1661310.890 7   1260057.268 6        23.750          16.500
  23734890.138     4523494.463 5   3429554.838 5        10.500           6.750
  21392242.591     -989084.947 6   -752025.276 6        18.250          16.000
  23896982.224    -2589514.311 5  -1968185.127 5         9.750           6.000
  24312644.997    -1452744.236 5  -1085378.094 5         9.500           7.750
 93  3 18 19 19 45.0010000  0  5G29G14G19G27G28
  21447462.310     1683776.694 7   1277563.057 6        23.250          16.250
  23745987.950     4581799.796 5   3474987.442 5        10.250           6.750
  21389707.700    -1002390.954 6   -762393.580 6        18.000          16.000
  23890204.966    -2625123.511 5  -1995932.503 5         9.250           6.000
  24308913.396    -1472372.778 5  -1100672.965 5        10.000           8.000
 93  3 18 19 20  0.0010000  0  5G29G14G19G27G28
  21451741.614     1706263.046 7   1295084.855 6        23.500          16.250
  23757071.388     4640073.906 5   3520395.709 5        10.250           6.500
  21387173.903    -1015700.893 6   -772764.948 6        17.250          16.000
  23883418.021    -2660760.367 5  -2023701.433 5         9.250           6.250
  24305178.833    -1491970.273 5  -1115943.659 5        10.000           8.000
 93  3 18 19 20 15.0010000  0  5G29G14G19G27G28
  21456025.231     1728770.771 7   1312623.314 6        23.750          16.250
  23768157.888     4698319.412 5   3565781.681 5        10.500           6.500
  21384643.763    -1029013.514 6   -783138.413 6        17.250          16.250
  23876635.575    -2696422.525 5  -2051490.070 5         9.250           6.250
  24301452.927    -1511533.348 5  -1131187.528 5         9.500           7.500
 93  3 18 19 20 30.0010000  0  5G29G14G19G27G28
  21460311.755     1751299.164 7   1330177.863 6        23.250          16.000
  23779233.481     4756537.204 5   3611146.071 5        10.500           6.500
  21382098.231    -1042328.114 6   -793513.415 6        18.750          16.000
  23869846.474    -2732112.011 5  -2079300.013 5         8.500           6.250
  24297743.466    -1531063.239 5  -1146405.539 5         9.250           7.750
 93  3 18 19 20 45.0010000  0  5G29G14G19G27G28
  21464598.716     1773855.237 7   1347753.987 6        23.000          16.000
  23790312.661     4814734.121 5   3656494.183 5        10.750           6.500
  21379575.067    -1055639.757 6   -803886.106 6        18.500          16.000
  23863050.536    -2767825.919 5  -2107128.975 5         8.750           6.250
  24294031.817    -1550551.866 5  -1161591.412 5         9.750           7.500
 93  3 18 19 21  0.0010000  0  5G29G14G19G27G28
  21468896.513     1796439.288 7   1365351.924 6        22.750          16.000
  23801389.739     4872906.048 5   3701822.816 5        10.000           6.500
  21377042.669    -1068949.605 6   -814257.402 6        17.750          16.250
  23856243.349    -2803561.199 5  -2134974.592 5         9.250           6.250
  24290339.067    -1569996.996 5  -1176743.382 5        10.000           7.500
 93  3 18 19 21 15.0010000  0  5G29G14G19G27G28
  21473204.278     1819047.673 7   1382968.810 6        23.250          16.000
  23812439.794     4931048.110 5   3747128.174 5         9.000           6.500
  21374507.778    -1082261.220 6   -824630.082 6        17.250          16.000
  23849450.364    -2839321.392 5  -2162839.616 5        10.000           6.250
  24286638.638    -1589404.032 5  -1191865.696 5         9.750           8.000
 93  3 18 19 21 30.0010000  0  5G29G14G19G27G28
  21477510.263     1841682.010 7   1400605.920 6        23.500          16.000
  23823500.271     4989161.549 5   3792411.249 5         9.250           6.500
  21371980.060    -1095575.934 6   -835005.173 6        16.750          16.250
  23842634.192    -2875107.808 5  -2190725.072 5         9.500           6.250
  24282957.091    -1608774.040 5  -1206959.126 5        10.750           8.250
 93  3 18 19 21 45.0010000  0  5G29G14G19G27G28
  21481824.896     1864351.423 7   1418270.369 6        23.750          16.250
  23834558.575     5047252.494 5   3837676.765 5         9.000           6.500
  21369440.638    -1108886.966 6   -845377.386 6        17.250          16.250
  23835822.958    -2910914.943 5  -2218626.695 5         9.750           6.250
  24279278.044    -1628101.402 5  -1222019.329 5        10.250           8.750
 93  3 18 19 22  0.0010000  0  5G29G14G19G27G28
  21486146.583     1887052.359 7   1435959.386 6        24.250          16.250
  23845605.927     5105317.372 5   3882921.984 5         9.000           6.500
  21366911.028    -1122196.182 6   -855748.198 6        17.500          16.250
  23829004.927    -2946745.836 5  -2246546.812 5         9.500           6.250
  24275608.575    -1647387.620 5  -1237047.484 5        11.500           9.000
 93  3 18 19 22 15.0010000  0  5G29G14G19G27G28
  21490469.239     1909782.221 7   1453670.933 6        24.000          16.250
  23856645.005     5163351.932 5   3928143.584 5         9.000           6.500
  21364375.036    -1135506.532 6   -866119.879 6        17.250          16.250
  23822172.364    -2982606.006 5  -2274489.746 5         9.750           6.250
  24271941.810    -1666635.856 5  -1252046.041 5        10.500           8.750
 93  3 18 19 22 30.0010000  0  5G29G14G19G27G28
  21494798.161     1932544.934 7   1471408.075 6        23.000          16.000
  23867688.013     5221359.776 5   3973344.364 5         8.750           6.250
  21361830.489    -1148811.917 6   -876487.702 6        18.000          16.250
  23815351.935    -3018491.804 5  -2302452.670 5        10.000           6.250
  24268288.349    -1685841.010 5  -1267011.006 5        10.000           8.250
 93  3 18 19 22 45.0010000  0  5G29G14G19G27G28
  21499135.630     1955339.481 7   1489170.033 6        22.750          16.000
  23878721.896     5279337.813 5   4018521.900 5         8.750           6.500
  21359313.294    -1162113.027 6   -886852.196 6        17.500          16.250
  23808516.231    -3054403.220 5  -2330435.533 5        10.500           6.500
  24264641.856    -1705006.133 5  -1281944.816 5        10.000           8.250
 93  3 18 19 23  0.0010000  0  5G29G14G19G27G28
  21503482.294     1978159.055 7   1506951.482 6        22.750          16.000
  23889744.255     5337282.730 5   4063673.665 5         9.000           6.500
  21356787.091    -1175413.986 6   -897216.564 6        17.500          16.250
  23801672.528    -3090341.104 5  -2358439.015 5        10.000           6.500
  24260998.708    -1724137.104 5  -1296851.986 5         9.500           8.000
 93  3 18 19 23 15.0010000  0  5G29G14G19G27G28
  21507829.044     2001007.876 7   1524755.721 6        23.000          16.250
  23900766.505     5395200.097 5   4108803.928 5         9.250           6.500
  21354250.505    -1188709.463 6   -907576.656 6        18.000          16.500
  23794840.622    -3126299.932 5  -2386458.834 5         9.500           6.750
  24257370.286    -1743233.363 5  -1311732.117 5        10.000           8.000
 93  3 18 19 23 30.0010000  0  5G29G14G19G27G28
  21512179.044     2023881.480 7   1542579.281 6        23.250          16.250
  23911785.271     5453086.569 5   4153910.152 5         9.000           6.500
  21351712.067    -1202003.851 6   -917935.905 6        18.500          16.500
  23787990.700    -3162286.928 5  -2414500.596 5        10.250           7.000
  24253736.669    -1762300.205 5  -1326589.343 5         9.750           8.000
 93  3 18 19 23 45.0010000  0  5G29G14G19G27G28
  21516540.958     2046785.892 7   1560426.847 6        24.000          16.250
  23922795.786     5510947.434 5   4198996.364 5         9.250           6.750
  21349191.825    -1215290.907 6   -928289.439 6        17.250          16.750
  23781133.942    -3198295.860 5  -2442559.444 5        10.500           7.250
  24250115.341    -1781331.351 5  -1341418.742 5        10.250           8.250
 93  3 18 19 24  0.0010000  0  5G29G14G19G27G28
  21520903.106     2069718.864 7   1578296.664 6        24.500          16.250
  23933798.646     5568779.686 5   4244060.319 5         9.000           7.000
  21346669.146    -1228570.401 6   -938637.085 6        16.750          16.750
  23774283.724    -3234328.210 5  -2470636.541 5        10.250           7.000
  24246502.255    -1800327.854 5  -1356221.163 5        11.250           8.000
 93  3 18 19 24 15.0010000  0  5G29G14G19G27G28
  21525275.403     2092684.112 7   1596191.633 6        24.250          16.250
  23944796.833     5626582.816 5   4289101.568 5         9.000           7.000
  21344138.708    -1241838.341 6   -948975.727 6        17.250          16.750
  23767420.927    -3270382.929 5  -2498731.083 5        10.000           7.000
  24242896.333    -1819284.147 5  -1370992.242 5        11.000           8.500
 93  3 18 19 24 30.0010000  0  5G29G14G19G27G28
  21529651.489     2115677.853 7   1614108.809 6        23.500          16.250
  23955789.146     5684348.981 5   4334114.003 5         9.250           7.000
  21341616.661    -1255098.988 6   -959308.679 6        17.750          16.750
  23760544.521    -3306464.452 5  -2526846.492 5        10.250           6.750
  24239294.044    -1838201.686 5  -1385733.133 5        10.750           8.250
 93  3 18 19 24 45.0010000  0  5G29G14G19G27G28
  21534032.271     2138703.524 7   1632050.867 6        23.500          16.500
  23966782.130     5742082.037 5   4379100.656 5         9.250           7.250
  21339094.575    -1268348.257 6   -969632.768 6        18.500          16.750
  23753672.669    -3342567.697 5  -2554978.840 5         9.750           6.750
  24235702.896    -1857073.925 5  -1400438.744 5        10.250           8.000
 93  3 18 19 25  0.0010000  0  5G29G14G19G27G28
  21538420.091     2161760.778 7   1650017.527 6        23.250          16.500
  23977756.903     5799781.935 5   4424061.466 5         9.500           7.000
  21336572.622    -1281587.250 6   -979948.847 6        18.250          16.500
  23746797.888    -3378696.123 5  -2583130.812 5        10.000           6.750
  24232120.505    -1875900.569 5  -1415108.824 5        10.000           8.000
 93  3 18 19 25 15.0010000  0  5G29G14G19G27G28
  21542813.427     2184846.090 7   1668006.062 6        23.000          16.750
  23988738.927     5857442.882 5   4468991.920 5         9.500           6.750
  21334059.106    -1294820.371 6   -990260.356 6        17.750          16.500
  23739929.763    -3414855.319 5  -2611306.738 5        10.000           7.000
  24228546.521    -1894681.618 5  -1429743.348 5         9.500           8.250
 93  3 18 19 25 30.0010000  0  5G29G14G19G27G28
  21547208.794     2207962.647 7   1686018.925 6        22.500          16.750
  23999700.169     5915063.914 5   4513891.264 5         9.500           7.000
  21331543.216    -1308046.700 6  -1000566.576 6        17.250          16.750
  23733038.771    -3451044.378 5  -2639505.944 5         9.500           7.000
  24224979.606    -1913414.347 5  -1444340.236 5        10.000           7.500
 93  3 18 19 25 45.0010000  0  5G29G14G19G27G28
  21551616.872     2231110.567 7   1704056.233 6        22.750          16.750
  24010658.341     5972645.786 5   4558760.105 5         9.000           6.750
  21329025.286    -1321265.117 6  -1010866.623 6        18.000          16.750
  23726137.536    -3487260.592 5  -2667726.318 5         8.500           7.250
  24221428.724    -1932095.156 5  -1458896.669 5        10.000           7.250
 93  3 18 19 26  0.0010000  0  5G29G14G19G27G28
  21556027.036     2254288.622 7   1722117.021 6        22.500          17.000
  24021601.474     6030186.057 5   4603596.536 5         9.000           6.500
  21326517.536    -1334477.094 6  -1021161.658 6        19.250          17.000
  23719255.528    -3523502.113 5  -2695966.421 5         9.250           7.250
  24217887.606    -1950726.320 5  -1473414.405 5        10.500           7.750
 93  3 18 19 26 15.0010000  0  5G29G14G19G27G28
  21560442.935     2277494.728 7   1740199.672 6        22.000          17.000
  24032548.239     6087682.305 5   4648398.647 5         8.750           6.500
  21324003.888    -1347683.153 6  -1031452.078 6        19.000          17.000
  23712353.927    -3559768.706 5  -2724226.052 5        10.000           7.250
  24214345.755    -1969308.926 5  -1487894.316 5        10.500           8.250
 93  3 18 19 26 30.0010000  0  5G29G14G19G27G28
  21564863.114     2300732.771 7   1758307.205 6        21.750          17.000
  24043480.849     6145141.430 5   4693171.852 5         8.750           6.500
  21321478.911    -1360879.244 6  -1041734.726 6        19.750          17.000
  23705447.731    -3596053.939 5  -2752500.209 5        10.250           7.250
  24210817.599    -1987837.666 5  -1502332.260 5        11.250           8.250
 93  3 18 19 26 45.0010000  0  5G29G14G19G27G28
  21569289.622     2323999.930 7   1776437.431 6        22.250          17.000
  24054406.005     6202567.513 5   4737919.286 5         9.000           6.250
  21318977.724    -1374067.728 6  -1052011.452 6        17.750          17.000
  23698532.614    -3632356.548 5  -2780787.879 5         9.250           7.000
  24207306.778    -2006316.534 5  -1516731.344 5        11.250           8.000
 93  3 18 19 27  0.0010000  0  5G29G14G19G27G28
  21573724.208     2347297.510 7   1794591.363 6        22.750          17.000
  24065333.450     6259964.350 5   4782643.948 5         9.000           6.500
  21316463.177    -1387247.913 6  -1062281.719 6        18.500          17.250
  23691620.497    -3668674.936 5  -2809087.873 5         9.250           7.000
  24203792.958    -2024748.024 5  -1531093.513 5        11.250           8.500
 93  3 18 19 27 15.0010000  0  5G29G14G19G27G28
  21578167.341     2370625.753 7   1812769.190 6        23.500          17.000
  24076253.661     6317330.508 5   4827344.714 5         9.250           6.250
  21313964.005    -1400419.844 6  -1072545.548 6        18.000          17.250
  23684708.536    -3705008.300 5  -2837399.523 5         9.250           7.250
  24200299.653    -2043134.490 5  -1545420.600 5        11.000           8.750
 93  3 18 19 27 30.0010000  0  5G29G14G19G27G28
  21582612.646     2393991.675 7   1830976.368 6        23.750          16.750
  24087163.661     6374671.807 5   4872026.110 5         9.000           6.000
  21311449.114    -1413578.314 6  -1082798.884 6        18.750          17.000
  23677785.489    -3741348.745 5  -2865716.692 5         9.000           7.250
  24196810.067    -2061473.064 5  -1559710.357 5        11.750           8.750
 93  3 18 19 27 45.0010000  0  5G29G14G19G27G28
  21587065.271     2417393.737 7   1849211.700 6        22.750          16.750
  24098069.310     6431987.495 5   4916687.512 5         9.250           6.250
  21308958.560    -1426725.830 6  -1093043.687 6        18.500          17.000
  23670870.489    -3777699.409 5  -2894041.842 5         9.500           7.500
  24193325.935    -2079767.831 5  -1573965.981 5        11.250           8.500
 93  3 18 19 28  0.0010000  0  5G29G14G19G27G28
  21591524.708     2440837.729 7   1867479.716 6        22.250          16.750
  24108967.966     6489281.067 5   4961331.727 5         9.000           6.250
  21306448.497    -1439861.254 6  -1103279.062 6        19.250          17.000
  23663962.442    -3814059.394 5  -2922374.245 5        10.250           7.500
  24189852.130    -2098014.470 5  -1588184.105 5        11.000           8.250
 93  3 18 19 28 15.0010000  0  5G29G14G19G27G28
  21595994.646     2464324.852 7   1885781.341 6        22.000          17.000
  24119871.677     6546552.721 5   5005958.829 5         9.250           6.250
  21303959.271    -1452986.446 6  -1113506.473 6        18.500          17.000
  23657040.302    -3850431.570 5  -2950716.151 5         9.750           7.750
  24186392.302    -2116213.269 5  -1602364.940 5        11.500           8.000
 93  3 18 19 28 30.0010000  0  5G29G14G19G27G28
  21600469.950     2487849.433 7   1904112.150 6        21.000          16.750
  24130756.888     6603798.850 5   5050566.053 5         8.500           6.250
  21301455.356    -1466108.816 6  -1123731.684 6        19.250          17.000
  23650117.138    -3886824.716 5  -2979074.388 5         9.750           7.500
  24182932.810    -2134368.109 5  -1616511.526 5        11.750           7.750
 93  3 18 19 28 45.0010000  0  5G29G14G19G27G28
  21604956.419     2511417.628 7   1922476.952 6        21.000          16.750
  24141641.364     6661023.700 5   5095156.694 5         8.500           6.000
  21298969.028    -1479226.051 6  -1133952.886 6        18.750          17.000
  23643178.450    -3923236.594 5  -3007447.235 5        10.500           7.250
  24179490.997    -2152472.928 5  -1630619.123 5        11.750           7.750
 93  3 18 19 29  0.0010000  0  5G29G14G19G27G28
  21609448.599     2535027.517 7   1940874.239 6        21.500          17.000
  24152529.317     6718220.138 5   5139725.201 5         9.000           6.000
  21296467.911    -1492342.576 6  -1144173.543 6        19.500          17.000
  23636247.489    -3959671.471 5  -3035837.996 5        10.750           7.250
  24176048.981    -2170531.421 5  -1644690.643 5        10.750           7.750
 93  3 18 19 29 15.0010000  0  5G29G14G19G27G28
  21613950.224     2558679.009 7   1959303.945 6        22.250          17.000
  24163416.177     6775384.497 5   5184268.718 5         9.250           6.000
  21293977.169    -1505456.819 6  -1154392.412 6        18.500          17.000
  23629310.239    -3996131.057 5  -3064247.992 5        10.750           7.250
  24172631.661    -2188542.061 5  -1658724.877 5        11.750           7.750
 93  3 18 19 29 30.0010000  0  5G29G14G19G27G28
  21618457.481     2582370.328 7   1977764.684 6        22.500          17.000
  24174290.567     6832514.053 5   5228785.117 5         9.750           5.750
  21291474.560    -1518571.750 6  -1164611.820 6        18.250          17.000
  23622363.802    -4032618.215 5  -3092679.491 5         9.750           7.250
  24169208.708    -2206505.751 6  -1672722.523 5        12.000           7.750
 93  3 18 19 29 45.0010000  0  5G29G14G19G27G28
  21622976.114     2606100.786 7   1996255.926 6        23.250          16.750
  24185150.302     6889607.856 5   5273273.642 5         9.750           6.000
  21288983.778    -1531688.364 6  -1174832.547 6        17.750          16.750
  23615423.646    -4069133.324 5  -3121132.773 5        10.000           7.500
  24165801.677    -2224420.278 5  -1686681.867 5        11.000           8.000
 93  3 18 19 30  0.0010000  0  5G29G14G19G27G28
  21627499.286     2629871.156 7   2014778.262 6        23.500          16.750
  24196007.044     6946666.434 5   5317734.731 5         9.500           6.000
  21286480.755    -1544804.305 6  -1185052.748 6        18.500          16.750
  23608463.302    -4105674.658 5  -3149606.497 5        10.500           7.250
  24162396.083    -2242280.740 5  -1700599.056 5        10.750           8.500
 93  3 18 19 30 15.0010000  0  5G29G14G19G27G28
  21632028.231     2653679.413 7   2033330.114 6        22.750          16.750
  24206856.950     7003687.489 5   5362166.574 5         9.000           6.000
  21283971.935    -1557916.924 6  -1195270.360 6        19.500          16.500
  23601513.653    -4142238.578 5  -3178097.792 5        11.250           7.500
  24159013.036    -2260086.074 5  -1714473.308 5        11.250           8.750
 93  3 18 19 30 30.0010000  0  5G29G14G19G27G28
  21636563.724     2677521.985 7   2051908.714 6        22.250          16.500
  24217699.747     7060668.362 5   5406567.118 5         9.000           6.000
  21281498.528    -1571021.110 6  -1205481.401 6        18.000          16.500
  23594552.216    -4178823.849 5  -3206605.752 5        11.000           7.500
  24155637.903    -2277837.582 6  -1728305.609 5        12.000           8.500
 93  3 18 19 30 45.0010000  0  5G29G14G19G27G28
  21641108.614     2701402.187 7   2070516.633 6        22.750          16.500
  24228532.888     7117610.065 5   5450937.130 5         8.000           6.000
  21278987.989    -1584111.061 6  -1215681.350 6        19.250          16.750
  23587578.700    -4215424.741 5  -3235125.881 5        11.250           7.750
  24152268.325    -2295530.520 6  -1742092.261 5        12.250           8.750
 93  3 18 19 31  0.0010000  0  5G29G14G19G27G28
  21645661.599     2725313.124 7   2089148.497 6        23.500          16.250
  24239363.950     7174503.644 5   5495269.639 5         7.750           6.250
  21276528.755    -1597191.607 6  -1225873.978 6        17.750          16.500
  23580610.099    -4252046.762 5  -3263662.465 5        10.750           7.500
  24148912.239    -2313171.709 6  -1755838.590 5        12.250           7.500
 93  3 18 19 31 15.0010000  0  5G29G14G19G27G28
  21650216.021     2749259.939 7   2107808.316 6        22.250          16.250
  24250181.731     7231354.584 5   5539568.916 5         7.500           6.250
  21274015.130    -1610253.908 6  -1236052.380 6        19.250          16.500
  23573641.224    -4288683.703 5  -3292210.687 5        10.500           7.500
  24145562.349    -2330752.924 6  -1769538.185 5        12.250           7.000
 93  3 18 19 31 30.0010000  0  5G29G14G19G27G28
  21654780.114     2773235.257 7   2126490.365 6        22.000          16.000
  24260994.638     7288157.533 5   5583830.799 5         7.750           6.500
  21271540.231    -1623304.140 6  -1246221.392 6        18.750          16.500
  23566662.700    -4325342.657 5  -3320776.055 5        10.750           7.500
  24142234.981    -2348278.732 6  -1783194.608 5        13.000           7.500
 93  3 18 19 31 45.0010000  0  5G29G14G19G27G28
  21659345.567     2797244.405 7   2145198.761 6        22.000          16.000
  24271794.810     7344917.086 5   5628058.868 5         7.750           6.500
  21269050.497    -1636341.060 7  -1256380.013 6        20.000          16.500
  23559679.856    -4362019.305 5  -3349355.201 5        11.250           7.500
  24138901.208    -2365744.335 6  -1796804.112 5        12.250           8.000
 93  3 18 19 32  0.0010000  0  5G29G14G19G27G28
  21663922.075     2821287.882 7   2163933.894 6        22.500          15.750
  24282587.919     7401633.185 5   5672253.072 5         7.750           6.750
  21266574.528    -1649363.378 6  -1266527.261 6        19.750          16.500
  23552704.239    -4398713.166 5  -3377947.769 5        11.250           7.750
  24135596.067    -2383148.733 5  -1810365.925 5        11.750           7.750
 93  3 18 19 32 15.0010000  0  5G29G14G19G27G28
  21668507.372     2845366.897 7   2182696.740 6        22.750          15.750
  24293376.575     7458308.625 5   5716415.585 5         7.500           6.750
  21264098.427    -1662370.020 7  -1276662.289 6        21.000          16.750
  23545715.474    -4435424.456 5  -3406553.914 5        10.500           7.750
  24132296.138    -2400491.742 6  -1823879.914 5        12.250           7.250
 93  3 18 19 32 30.0010000  0  5G29G14G19G27G28
  21673093.255     2869481.433 7   2201487.263 6        23.750          15.750
  24304147.294     7514944.004 4   5760546.896 5         7.000           6.500
  21261645.825    -1675361.975 6  -1286785.873 6        18.500          16.750
  23538727.208    -4472154.841 5  -3435174.941 5        11.500           7.750
  24129006.458    -2417775.990 6  -1837348.112 5        12.750           7.250
 93  3 18 19 32 45.0010000  0  5G29G14G19G27G28
  21677691.427     2893634.263 7   2220307.620 6        25.250          16.000
  24314915.403     7571541.569 5   5804648.750 5         7.500           6.750
  21259154.333    -1688342.744 7  -1296900.751 6        21.000          16.750
  23531729.317    -4508905.780 5  -3463811.973 5        11.000           8.000
  24125723.591    -2434999.746 5  -1850769.166 5        10.750           7.250
 93  3 18 19 33  0.0010000  0  5G29G14G19G27G28
  21682295.286     2917823.717 7   2239156.511 6        25.000          16.000
  24325684.091     7628098.718 4   5848719.099 5         7.250           6.750
  21256690.481    -1701319.509 7  -1307012.505 6        20.250          16.750
  23524733.872    -4545680.916 5  -3492467.858 5        11.500           8.000
  24122461.091    -2452164.034 5  -1864143.902 5        10.750           7.250
 93  3 18 19 33 15.0010000  0  5G29G14G19G27G28
  21686903.036     2942049.945 7   2258034.066 6        24.250          16.000
  24336436.380     7684617.500 5   5892759.550 5         7.750           6.750
  21254220.208    -1714293.480 7  -1317122.077 6        20.000          16.750
  23517731.450    -4582478.600 5  -3521141.316 5        11.500           8.000
  24119203.560    -2469269.401 6  -1877472.698 5        12.250           7.250
 93  3 18 19 33 30.0010000  0  5G29G14G19G27G28
  21691522.192     2966314.560 7   2276941.533 6        24.750          16.000
  24347179.841     7741099.539 5   5936771.369 5         8.000           6.500
  21251772.271    -1727266.552 6  -1327230.953 6        18.250          16.500
  23510723.411    -4619298.221 5  -3549831.874 5        11.750           8.000
  24115958.802    -2486318.531 5  -1890757.695 5        11.750           7.000
 93  3 18 19 33 45.0010000  0  5G29G14G19G27G28
  21696144.278     2990619.392 7   2295880.328 6        23.750          16.250
  24357915.302     7797545.305 4   5980754.938 5         7.250           6.500
  21249280.528    -1740240.371 7  -1337340.404 6        21.000          16.500
  23503711.481    -4656136.531 5  -3578536.990 5        11.750           8.000
  24112724.255    -2503313.354 5  -1904000.360 5        11.500           7.000
 93  3 18 19 34  0.0010000  0  5G29G14G19G27G28
  21700779.372     3014966.875 7   2314852.360 6        23.000          16.000
  24368649.872     7853953.879 4   6024709.523 5         7.250           6.250
  21246830.099    -1753211.162 6  -1347447.501 6        19.250          16.750
  23496699.778    -4692990.057 5  -3607253.960 5        11.250           8.250
  24109502.458    -2520251.542 6  -1917198.913 5        12.750           7.000
 93  3 18 19 34 15.0010000  0  6G29G14G19G27G28G18
  21705419.013     3039353.589 7   2333854.963 6        22.750          16.000
  24379386.138     7910321.618 4   6068632.281 5         7.250           6.250
  21244344.669    -1766179.217 7  -1357552.465 6        21.750          16.750
  23489679.411    -4729859.786 5  -3635983.556 5        10.500           8.250
  24106287.224    -2537137.118 6  -1930356.447 5        12.500           7.000
  20566132.942          -0.26317                        27.500
 93  3 18 19 34 30.0010000  0  6G29G14G19G27G28G18
  21710069.708     3063778.445 7   2352887.293 6        23.500          15.750
  24390107.872     7966647.560 4   6112522.464 5         6.750           6.250
  21241888.981    -1779143.576 7  -1367654.545 6        20.250          17.000
  23482666.427    -4766744.889 5  -3664725.150 5        10.750           8.000
  24103087.021    -2553970.156 6  -1943473.054 5        13.500           7.500
  20565279.825       -4492.477 7                        27.000
 93  3 18 19 34 45.0010000  0  6G29G14G19G27G28G18
  21714721.060     3088243.596 7   2371951.019 6        23.000          15.750
  24400808.442     8022930.087 4   6156378.830 5         7.000           5.750
  21239410.036    -1792102.703 7  -1377752.543 6        21.000          17.000
  23475645.396    -4803642.621 5  -3693476.567 5        11.750           8.250
  24099891.380    -2570748.236 6  -1956546.830 5        13.250           7.250
  20564438.310       -8929.605 7        -0.67916        27.750          16.500
 93  3 18 19 35  0.0010000  0  6G29G14G19G27G28G18
  21719387.231     3112746.386 7   2391044.075 6        23.250          15.750
  24411512.622     8079167.732 5   6200200.223 5         7.500           5.750
  21236951.794    -1805056.776 7  -1387846.610 6        20.000          17.000
  23468623.677    -4840554.953 6  -3722239.338 5        12.000           8.250
  24096709.903    -2587471.003 6  -1969577.502 5        13.500           7.000
  20563602.778      -13313.204 7     -3416.474 6        27.250          16.500
 93  3 18 19 35 15.0010000  0  6G29G14G19G27G28G18
  21724055.958     3137288.033 7   2410167.404 6        23.250          15.500
  24422213.208     8135365.206 4   6243990.308 5         7.250           5.750
  21234481.036    -1818001.624 7  -1397933.489 6        21.000          16.750
  23461594.411    -4877478.473 5  -3751010.846 5        11.750           8.000
  24093538.255    -2604137.513 6  -1982564.332 5        12.500           7.250
  20562778.380      -17641.305 7     -6789.021 6        27.750          16.500
 93  3 18 19 35 30.0010000  0  6G29G14G19G27G28G18
  21728733.036     3161870.484 7   2429322.534 6        23.750          15.750
  24432903.489     8191526.470 5   6287752.155 5         7.500           5.500
  21232027.567    -1830932.988 7  -1408009.862 6        20.750          16.750
  23454572.903    -4914412.107 5  -3779790.238 5        11.750           8.250
  24090381.646    -2620748.421 6  -1995507.843 5        13.000           7.000
  20561965.013      -21912.000 7    -10116.842 6        27.750          16.250
 93  3 18 19 35 45.0010000  0  6G29G14G19G27G28G18
  21733419.606     3186489.625 7   2448506.250 6        24.000          15.750
  24443576.435     8247646.096 4   6331481.602 5         7.250           5.500
  21229561.911    -1843851.952 7  -1418076.571 6        21.750          17.000
  23447536.161    -4951360.492 5  -3808581.125 5        11.000           8.250
  24087231.583    -2637304.692 6  -2008408.772 5        12.250           7.500
  20561164.146      -26127.475 7    -13401.625 6        27.750          16.250
 93  3 18 19 36  0.0010000  0  6G29G14G19G27G28G18
  21738111.864     3211145.229 7   2467718.368 6        24.250          15.750
  24454258.114     8303723.690 5   6375178.277 5         7.500           5.500
  21227124.021    -1856756.214 6  -1428131.821 6        19.500          17.250
  23440503.583    -4988323.472 5  -3837383.383 5        11.500           8.250
  24084093.278    -2653801.685 6  -2021263.498 5        12.250           7.750
  20560371.192      -30285.575 7    -16641.700 6        27.750          16.500
 93  3 18 19 36 15.0010000  0  6G29G14G19G27G28G18
  21742808.380     3235833.455 7   2486955.921 6        24.000          15.250
  24464921.067     8359760.212 4   6418842.955 5         7.250           5.250
  21224652.419    -1869648.883 7  -1438178.039 6        21.500          17.000
  23433462.958    -5025305.857 5  -3866200.776 5        11.250           8.250
  24080963.724    -2670242.387 6  -2034074.364 5        12.250           7.250
  20559590.935      -34390.307 8    -19840.192 6        28.000          16.250
 93  3 18 19 36 30.0010000  0  6G29G14G19G27G28G18
  21747516.669     3260558.500 7   2506222.176 6        23.750          15.250
  24475559.622     8415763.218 5   6462481.528 5         7.500           5.250
  21222214.083    -1882529.055 7  -1448214.523 6        21.000          17.000
  23426423.950    -5062305.555 6  -3895031.653 5        12.000           8.500
  24077844.231    -2686623.537 5  -2046838.852 5        11.750           7.250
  20558820.505      -38438.514 7    -22994.641 6        27.500          16.500
 93  3 18 19 36 45.0010000  0  6G29G14G19G27G28G18
  21752224.935     3285320.929 7   2525517.541 6        23.250          15.000
  24486214.224     8471732.256 5   6506093.595 5         7.500           5.000
  21219752.591    -1895400.107 7  -1458243.888 6        22.250          17.000
  23419374.544    -5099324.596 6  -3923877.590 5        12.000           8.500
  24074740.521    -2702943.774 6  -2059555.860 5        12.750           7.500
  20558061.302      -42432.460 7    -26106.803 6        27.500          16.500
 93  3 18 19 37  0.0010000  0  6G29G14G19G27G28G18
  21756947.403     3310123.689 7   2544844.336 6        23.250          15.000
  24496860.052     8527672.182 4   6549683.015 5         7.000           5.000
  21217311.817    -1908260.173 7  -1468264.698 6        22.000          17.000
  23412333.317    -5136359.051 6  -3952735.537 5        12.750           8.500
  24071643.435    -2719199.658 5  -2072222.729 5        11.750           7.500
  20557310.450      -46371.533 7    -29176.217 6        27.000          16.750
 93  3 18 19 37 15.0010000  0  6G29G14G19G27G28G18
  21761670.146     3334942.710 7   2564183.811 6        23.250          14.750
  24507498.763     8583558.441 4   6593230.592 5         6.750           5.000
  21214856.794    -1921133.638 7  -1478295.947 6        22.000          17.250
  23405278.700    -5173432.785 6  -3981624.081 5        12.500           8.250
  24068556.028    -2735414.338 6  -2084857.482 5        12.000           7.000
  20556567.231      -50278.584 7    -32220.665 6        27.500          16.500
 93  3 18 19 37 30.0010000  0  6G29G14G19G27G28G18
  21766397.896     3359792.915 7   2583547.574 6        23.500          15.000
  24518129.224     8639399.276 4   6636742.791 5         6.500           5.000
  21212422.919    -1934008.353 6  -1488328.175 6        19.750          17.000
  23398214.560    -5210531.410 5  -4010532.047 5        11.750           8.250
  24065480.599    -2751575.116 5  -2097450.232 5        11.750           7.000
  20555833.521      -54142.068 8    -35231.172 6        28.000          16.500
 93  3 18 19 37 45.0010000  0  5G29G19G27G28G18
  21771135.224     3384681.383 7   2602941.155 6        23.000          15.500
  21209957.106    -1946880.281 7  -1498358.230 6        22.250          17.000
  23391151.341    -5247650.338 5  -4039455.813 5        11.750           8.250
  24062421.958    -2767670.932 6  -2109992.350 5        12.250           6.750
  20555106.927      -57959.139 8    -38205.505 6        28.000          16.500
 93  3 18 19 38  0.0010000  0  5G29G19G27G28G18
  21775876.622     3409600.426 7   2622358.563 6        23.500          15.750
  21207516.622    -1959758.492 7  -1508393.187 6        21.750          17.000
  23384077.856    -5284796.431 5  -4068400.750 5        10.500           8.250
  24059372.091    -2783706.946 6  -2122487.918 5        13.250           7.000
  20554384.771      -61737.138 7    -41149.404 6        27.500          16.250
 93  3 18 19 38 15.0010000  0  5G29G19G27G28G18
  21780626.575     3434571.360 7   2641816.398 6        23.250          15.750
  21205062.263    -1972623.566 7  -1518417.902 6        22.250          17.000
  23377014.763    -5321949.461 5  -4097351.114 5        11.250           9.000
  24056330.278    -2799664.943 6  -2134922.645 5        13.250           7.500
  20553679.028      -65456.131 7    -44047.314 6        27.750          16.250
 93  3 18 19 38 30.0010000  0  5G29G19G27G28G18
  21785391.755     3459597.413 7   2661317.196 6        23.750          15.750
  21202624.364    -1985470.422 7  -1528428.425 6        21.250          17.000
  23369949.489    -5359105.734 6  -4126303.985 5        12.250           9.000
  24053309.364    -2815541.074 6  -2147293.592 5        12.500           7.250
  20552983.646      -69113.693 7    -46897.363 6        27.750          16.000
 93  3 18 19 38 45.0010000  0  5G29G19G27G28G18
  21790163.614     3484667.367 7   2680852.185 6        24.000          15.500
  21200172.114    -1998305.959 7  -1538430.124 6        21.250          17.000
  23362873.231    -5396273.443 6  -4155265.769 5        13.000           9.250
  24050307.130    -2831342.360 6  -2159606.233 5        13.500           7.250
  20552294.372      -72718.508 7    -49706.311 6        27.250          16.000
 93  3 18 19 39  0.0010000  0  5G29G19G27G28G18
  21794937.208     3509776.258 7   2700417.529 6        23.750          15.500
  21197750.356    -2011130.808 6  -1548423.497 6        19.250          17.000
  23355798.903    -5433455.540 6  -4184238.754 5        13.000           9.000
  24047309.700    -2847070.059 6  -2171861.534 5        12.500           7.750
  20551622.489      -76271.759 7    -52475.072 6        27.750          16.250
 93  3 18 19 39 15.0010000  0  5G29G19G27G28G18
  21799723.630     3534923.124 7   2720012.456 6        23.500          15.000
  21195292.021    -2023942.583 7  -1558406.686 6        21.750          17.000
  23348720.685    -5470652.648 6  -4213223.446 5        13.250           9.000
  24044336.325    -2862722.786 6  -2184058.407 5        12.000           7.750
  20550953.591      -79771.813 7    -55202.385 6        27.500          16.250
 93  3 18 19 39 30.0010000  0  5G29G19G27G28G18
  21804517.849     3560117.289 7   2739644.249 6        23.750          14.750
  21192870.177    -2036730.712 7  -1568371.441 6        21.500          16.750
  23341632.856    -5507855.074 6  -4242212.275 5        12.250           8.750
  24041372.731    -2878290.987 5  -2196189.412 5        10.750           7.750
  20550299.685      -83208.450 7    -57880.280 6        27.750          16.250
 93  3 18 19 39 45.0010000  0  5G29G19G27G28G18
  21809318.677     3585345.695 7   2759302.717 6        23.750          14.750
  21190426.239    -2049505.529 7  -1578325.821 6        22.250          16.750
  23334551.028    -5545074.946 6  -4271214.720 5        12.500           8.750
  24038422.333    -2893785.165 5  -2208262.746 5         9.750           7.500
  20549657.560      -86592.625 8    -60517.298 6        28.000          16.250
 93  3 18 19 40  0.0010000  0  5G29G19G27G28G18
  21814129.778     3610607.954 7   2778987.565 6        23.500          14.750
  21188013.364    -2062265.139 7  -1588268.363 6        20.750          16.500
  23327471.091    -5582311.604 6  -4300230.240 5        12.250           8.750
  24035486.731    -2909205.696 5  -2220278.697 5        11.750           7.250
  20549022.544      -89919.203 7    -63109.438 6        27.750          16.000
 93  3 18 19 40 15.0010000  0  5G29G19G27G28G18
  21818939.200     3635906.894 7   2798700.992 6        22.250          14.750
  21185572.489    -2075004.177 7  -1598194.871 6        21.750          16.750
  23320382.099    -5619561.426 6  -4329256.018 5        12.000           9.000
  24032564.466    -2924554.363 5  -2232238.641 5        11.250           7.250
  20548403.099      -93183.789 8    -65653.271 6        28.750          16.000
 93  3 18 19 40 30.0010000  0  5G29G19G27G28G18
  21823760.130     3661239.203 7   2818440.419 6        21.750          15.000
  21183165.560    -2087727.640 7  -1608109.241 6        20.500          17.000
  23313290.981    -5656826.863 6  -4358293.967 5        12.750           9.250
  24029654.083    -2939834.402 6  -2244145.094 5        12.750           7.250
  20547792.872      -96391.683 8    -68152.936 6        28.250          16.000
 93  3 18 19 40 45.0010000  0  5G29G19G27G28G18
  21828586.544     3686607.888 7   2838208.197 6        21.500          15.000
  21180735.942    -2100433.814 7  -1618010.138 6        22.000          17.000
  23306195.497    -5694103.762 6  -4387340.834 5        13.000           9.750
  24026767.802    -2955040.681 6  -2255994.113 5        13.750           7.000
  20547191.966      -99538.940 7    -70605.340 6        27.750          15.750
 93  3 18 19 41  0.0010000  0  5G29G19G27G28G18
  21833423.661     3712018.986 7   2858009.023 6        21.500          15.000
  21178335.864    -2113120.869 7  -1627896.135 6        20.500          17.250
  23299101.755    -5731388.153 6  -4416393.539 5        13.750          10.000
  24023885.646    -2970171.044 6  -2267783.971 5        13.000           6.500
  20546608.060     -102619.799 8    -73006.012 6        28.500          16.000
 93  3 18 19 41 15.0010000  0  5G29G19G27G28G18
  21838269.442     3737476.000 7   2877845.626 6        22.000          15.000
  21175910.841    -2125788.119 7  -1637766.704 6        22.250          17.250
  23292004.786    -5768680.266 6  -4445452.268 5        13.250          10.250
  24021022.067    -2985228.316 6  -2279516.856 5        13.250           7.000
  20546032.997     -105635.865 7    -75356.198 6        27.750          15.750
 93  3 18 19 41 30.0010000  0  5G29G19G27G28G18
  21843124.606     3762982.071 7   2897720.461 6        22.750          15.000
  21173519.114    -2138437.817 7  -1647623.600 6        21.000          17.250
  23284904.935    -5805978.705 6  -4474515.932 5        12.750          10.000
  24018173.083    -3000216.658 6  -2291196.051 5        14.500           6.750
  20545470.950     -108587.499 7    -77656.161 6        26.500          15.750
 93  3 18 19 41 45.0010000  0  5G29G19G27G28G18
  21847986.075     3788542.729 7   2917637.821 6        22.750          15.000
  21171103.372    -2151069.024 7  -1657466.084 6        22.250          17.000
  23277806.200    -5843279.054 5  -4503581.074 5        11.500           9.750
  24015332.974    -3015134.124 6  -2302820.037 5        13.750           7.000
  20544921.677     -111470.861 7    -79902.940 6        27.250          16.000
 93  3 18 19 42  0.0010000  0  5G29G19G27G28G18
  21852866.130     3814163.712 7   2937602.193 6        22.750          15.000
  21168716.099    -2163680.654 7  -1667293.319 6        20.750          17.000
  23270704.247    -5880581.749 6  -4532648.059 5        12.000           9.750
  24012505.067    -3029978.943 6  -2314387.388 5        13.500           7.000
  20544386.794     -114285.146 7    -82095.888 6        27.250          15.750
 93  3 18 19 42 15.0010000  0  5G29G19G27G28G18
  21857747.263     3839847.348 7   2957615.381 6        22.500          15.000
  21166304.591    -2176273.001 7  -1677105.522 6        22.000          17.000
  23263609.997    -5917884.823 6  -4561715.329 5        12.000           9.750
  24009696.653    -3044750.684 6  -2325897.801 5        13.000           7.750
  20543863.091     -117033.159 7    -84237.197 6        27.000          15.750
 93  3 18 19 42 30.0010000  0  5G29G19G27G28G18
  21862650.146     3865591.967 7   2977676.085 6        22.500          14.750
  21163927.864    -2188846.835 7  -1686903.306 6        21.250          17.250
  23256505.411    -5955187.556 5  -4590782.343 5        11.750          10.000
  24006898.567    -3059446.828 6  -2337349.308 5        12.250           8.000
  20543354.794     -119715.864 8    -86327.616 6        28.000          15.750
 93  3 18 19 42 45.0010000  0  5G29G19G27G28G18
  21867559.771     3891397.895 7   2997784.580 6        22.750          14.750
  21161523.278    -2201400.051 7  -1696685.013 6        23.000          17.250
  23249412.646    -5992487.539 6  -4619847.198 5        12.500          10.250
  24004114.388    -3074063.113 5  -2348738.573 5        11.250           7.750
  20542855.169     -122330.143 7    -88364.716 6        27.500          15.750
 93  3 18 19 43  0.0010000  0  5G29G19G27G28G18
  21872483.896     3917267.206 7   3017942.456 6        23.250          14.750
  21159153.091    -2213927.430 7  -1706446.598 6        21.500          17.250
  23242321.646    -6029785.648 6  -4648910.599 5        12.750          10.250
  24001350.849    -3088599.026 5  -2360065.213 5        11.000           7.500
  20542372.122     -124873.057 8    -90346.209 6        28.000          15.750
 93  3 18 19 43 15.0010000  0  5G29G19G27G28G18
  21877419.192     3943199.187 7   3038149.168 6        23.250          14.750
  21156763.786    -2226427.669 7  -1716187.036 6        22.250          17.250
  23235219.122    -6067082.126 6  -4677972.724 5        12.500          10.250
  23998594.106    -3103054.070 5  -2371328.840 5        11.000           8.000
  20541903.458     -127343.876 8    -92271.520 6        28.000          15.500
 93  3 18 19 43 30.0010000  0  5G29G19G27G28G18
  21882364.997     3969193.096 7   3058404.124 6        23.250          14.750
  21154399.521    -2238899.239 7  -1725905.130 6        20.500          17.500
  23228116.521    -6104375.188 5  -4707032.181 5        11.500          10.500
  23995866.661    -3117424.003 6  -2382526.144 5        12.250           8.250
  20541446.591     -129740.293 8    -94138.858 6        28.250          15.500
 93  3 18 19 43 45.0010000  0  5G29G19G27G28G18
  21887323.724     3995248.523 7   3078707.018 6        23.250          15.000
  21152019.591    -2251341.241 7  -1735600.190 6        22.000          17.750
  23221019.575    -6141662.358 5  -4736087.067 5        10.500          10.500
  23993150.896    -3131701.923 6  -2393651.758 5        13.500           7.500
  20541006.075     -132058.925 8    -95945.584 6        28.000          15.500
 93  3 18 19 44  0.0010000  0  5G29G19G27G28G18
  21892290.122     4021359.677 7   3099053.346 6        22.250          14.500
  21149679.169    -2263754.496 7  -1745272.844 6        20.000          17.750
  23213936.005    -6178947.212 5  -4765140.153 5        11.750          10.500
  23990450.466    -3145886.827 6  -2404704.903 5        13.250           7.750
  20540577.427     -134302.712 8    -97693.995 6        28.250          15.750
 93  3 18 19 44 15.0010000  0  5G29G19G27G28G18
  21897269.927     4047525.649 7   3119442.377 6        21.750          14.500
  21147299.146    -2276133.779 7  -1754919.036 6        22.250          17.250
  23206838.372    -6216227.680 5  -4794189.824 5        11.750           9.500
  23987764.450    -3159975.033 5  -2415682.674 5        11.750           8.250
  20540167.114     -136469.865 8    -99382.689 6        28.000          15.750
 93  3 18 19 44 30.0010000  0  5G29G19G27G28G18
  21902259.833     4073740.406 7   3139869.433 6        22.000          14.500
  21144959.505    -2288479.928 7  -1764539.403 6        22.000          17.250
  23199744.880    -6253504.951 6  -4823236.969 5        12.500           9.500
  23985106.536    -3173970.138 6  -2426587.931 5        12.000           8.000
  20539766.661     -138557.523 8   -101009.434 6        28.000          15.750
 93  3 18 19 44 45.0010000  0  5G29G19G27G28G18
  21907258.091     4100006.238 7   3160336.286 6        22.000          14.500
  21142607.997    -2300790.687 7  -1774132.187 6        22.500          17.250
  23192652.911    -6290778.373 6  -4852281.139 5        13.000           9.750
  23982456.364    -3187872.277 5  -2437420.732 5        11.750           8.250
  20539387.560     -140562.205 8   -102571.533 6        28.500          15.500
 93  3 18 19 45  0.0010000  0  5G29G19G27G28G18
  21912270.521     4126329.530 7   3180847.905 6        22.500          14.250
  21140297.169    -2313064.859 7  -1783696.460 6        20.000          17.250
  23185555.192    -6328048.137 6  -4881322.447 5        13.000          10.000
  23979836.544    -3201680.205 6  -2448180.130 5        12.250           8.250
  20539022.364     -142480.413 8   -104066.244 6        28.250          15.500
 93  3 18 19 45 15.0010000  0  5G29G19G27G28G18
  21917286.661     4152712.145 7   3201405.758 6        22.000          14.250
  21137947.263    -2325303.700 7  -1793233.202 6        21.750          17.000
  23178470.661    -6365313.168 6  -4910360.079 5        13.750          10.250
  23977222.099    -3215393.445 6  -2458865.743 5        12.000           8.000
  20538672.833     -144311.789 8   -105493.291 6        28.500          15.500
 93  3 18 19 45 30.0010000  0  5G29G19G27G28G18
  21922319.989     4179156.665 7   3222011.847 6        22.000          14.000
  21135630.646    -2337507.553 7  -1802742.687 6        21.000          16.750
  23171373.411    -6402568.608 6  -4939390.220 5        13.750          10.250
  23974631.935    -3229008.278 5  -2469474.665 5        11.000           7.500
  20538342.458     -146056.385 8   -106852.719 6        29.500          15.500
 93  3 18 19 45 45.0010000  0  5G29G19G27G28G18
  21927363.880     4205666.655 7   3242668.952 6        22.000          14.500
  21133306.763    -2349675.197 7  -1812223.955 6        21.750          17.000
  23164292.521    -6439811.608 6  -4968410.692 5        13.250          10.000
  23972057.778    -3242525.037 5  -2480007.192 5        10.750           8.000
  20538027.591     -147714.393 8   -108144.678 6        29.500          15.250
 93  3 18 19 46  0.0010000  0  5G29G19G27G28G18
  21932417.224     4232240.042 7   3263375.452 6        22.000          14.500
  21131023.075    -2361808.736 6  -1821678.653 6        19.250          17.000
  23157207.255    -6477044.145 6  -4997423.005 5        13.000          10.000
  23969504.450    -3255947.805 5  -2490466.440 5        11.000           8.000
  20537725.278     -149289.479 8   -109372.012 6        29.250          15.250
 93  3 18 19 46 15.0010000  0  5G29G19G27G28G18
  21937491.505     4258873.361 7   3284128.651 6        22.500          15.000
  21128700.036    -2373913.104 7  -1831110.623 6        21.750          17.000
  23150122.567    -6514272.434 6  -5026431.999 5        13.000           9.500
  23966963.864    -3269283.033 5  -2500857.502 5        11.500           8.000
  20537440.411     -150785.679 8   -110537.886 6        28.500          15.250
 93  3 18 19 46 30.0010000  0  5G29G19G27G28G18
  21942570.271     4285574.432 7   3304934.639 6        23.000          15.000
  21126415.802    -2385984.668 6  -1840517.030 6        19.500          17.000
  23143031.606    -6551491.459 6  -5055433.776 5        12.500           9.500
  23964451.122    -3282526.086 6  -2511176.746 5        12.750           8.250
  20537171.138     -152196.280 8   -111637.062 6        28.500          15.250
 93  3 18 19 46 45.0010000  0  5G29G19G27G28G18
  21947662.372     4312346.049 7   3325795.602 6        22.250          15.000
  21124106.435    -2398026.955 7  -1849900.617 6        22.000          17.000
  23135957.802    -6588697.998 6  -5084425.827 5        13.000           9.750
  23961948.560    -3295676.653 6  -2521423.916 5        13.000           8.750
  20536919.200     -153519.651 8   -112668.260 6        28.250          15.250
 93  3 18 19 47  0.0010000  0  5G29G19G27G28G18
  21952773.536     4339187.676 7   3346711.117 6        22.250          14.750
  21121829.927    -2410045.467 7  -1859265.678 6        20.750          16.750
  23128878.411    -6625895.369 6  -5113410.734 5        13.750          10.000
  23959460.177    -3308734.874 6  -2531599.146 5        12.500           9.000
  20536684.317     -154761.629 8   -113636.032 6        28.500          15.250
 93  3 18 19 47 15.0010000  0  5G29G19G27G28G18
  21957891.106     4366097.643 7   3367679.889 6        21.500          14.750
  21119536.427    -2422040.937 7  -1868612.783 6        22.000          16.750
  23121809.247    -6663081.369 6  -5142386.782 5        14.500          10.000
  23956992.825    -3321697.958 6  -2541700.243 5        12.000           9.250
  20536465.005     -155922.945 8   -114540.958 6        28.500          15.500
 93  3 18 19 47 30.0010000  0  5G29G19G27G28G18
  21963024.661     4393072.378 7   3388699.130 6        22.000          14.750
  21117270.528    -2434013.091 7  -1877941.717 6        21.250          16.750
  23114733.044    -6700254.979 6  -5171353.186 5        14.250          10.000
  23954546.028    -3334564.702 6  -2551726.266 5        12.000           9.000
  20536254.114     -157006.398 8   -115385.211 6        28.250          15.250
 93  3 18 19 47 45.0010000  0  5G29G19G27G28G18
  21968170.833     4420110.356 7   3409767.642 6        22.000          15.000
  21114984.310    -2445964.048 7  -1887254.139 6        22.000          16.750
  23107660.630    -6737417.868 6  -5200311.213 5        14.250          10.000
  23952115.841    -3347336.822 6  -2561678.540 5        12.000           8.750
  20536066.380     -158012.736 8   -116169.372 6        28.250          15.000
 93  3 18 19 48  0.0010000  0  5G29G19G27G28G18
  21973325.560     4447205.821 7   3430880.946 6        21.750          14.750
  21112720.489    -2457898.021 7  -1896553.324 6        20.750          16.750
  23100585.060    -6774575.789 6  -5229265.376 5        14.000          10.000
  23949698.388    -3360016.080 6  -2571558.471 5        12.000           8.750
  20535890.130     -158941.508 8   -116893.096 6        28.750          15.250
 93  3 18 19 48 15.0010000  0  5G29G19G27G28G18
  21978490.208     4474354.148 7   3452035.447 6        21.750          14.500
  21110445.513    -2469818.741 7  -1905842.183 6        22.000          17.000
  23093517.771    -6811733.009 6  -5258219.005 5        13.000          10.250
  23947296.802    -3372604.406 5  -2581367.542 5        11.250           8.750
  20535730.247     -159794.363 8   -117557.657 6        29.000          15.000
 93  3 18 19 48 30.0010000  0  5G29G19G27G28G18
  21983667.849     4501558.328 7   3473233.473 6        22.000          14.500
  21108197.864    -2481724.722 6  -1915119.557 6        19.500          17.000
  23086448.560    -6848888.751 6  -5287171.483 5        13.000          10.250
  23944930.771    -3385097.696 6  -2591102.580 5        12.000           8.250
  20535583.106     -160569.885 8   -118161.963 6        29.500          15.250
 93  3 18 19 48 45.0010000  0  5G29G19G27G28G18
  21988856.075     4528813.787 7   3494471.453 6        22.000          14.250
  21105915.067    -2493618.269 7  -1924387.241 6        21.500          17.000
  23079378.200    -6886043.459 6  -5316123.155 5        13.500          10.000
  23942563.849    -3397499.521 5  -2600766.341 5        11.000           8.250
  20535446.411     -161272.692 8   -118709.602 6        29.500          15.250
 93  3 18 19 49  0.0010000  0  5G29G19G27G28G18
  21994050.067     4556120.133 7   3515749.088 6        22.250          14.250
  21103664.817    -2505496.634 7  -1933643.095 6        20.750          17.000
  23072303.247    -6923198.832 6  -5345075.350 5        14.000          10.000
  23940222.146    -3409808.618 5  -2610357.854 5        11.250           8.250
  20535328.396     -161904.496 8   -119201.921 6        29.500          15.250
 93  3 18 19 49 15.0010000  0  5G29G19G27G28G18
  21999257.591     4583472.349 7   3537062.460 6        22.500          14.250
  21101401.435    -2517359.215 7  -1942886.658 6        21.000          17.000
  23065234.880    -6960359.367 6  -5374031.569 5        14.000           9.750
  23937896.435    -3422026.158 5  -2619878.018 5        11.500           7.750
  20535221.153     -162470.921 8   -119643.292 6        29.250          15.250
 93  3 18 19 49 30.0010000  0  5G29G19G27G28G18
  22004468.427     4610867.167 7   3558409.026 6        22.000          14.000
  21099147.817    -2529205.425 7  -1952117.469 6        20.750          17.000
  23058162.747    -6997526.405 6  -5402992.839 5        13.250           9.750
  23935592.872    -3434154.962 5  -2629329.054 5        11.500           7.750
  20535123.216     -162973.199 8   -120034.678 6        29.750          15.250
 93  3 18 19 49 45.0010000  0  5G29G19G27G28G18
  22009693.583     4638304.740 7   3579788.908 6        22.750          14.000
  21096892.849    -2541035.073 7  -1961335.359 6        21.500          17.000
  23051083.888    -7034702.780 6  -5431961.405 5        12.750          10.000
  23933298.919    -3446196.062 6  -2638711.725 5        12.250           7.750
  20535040.872     -163410.821 8   -120375.688 6        29.000          15.250
 93  3 18 19 50  0.0010000  0  5G29G19G27G28G18
  22014921.825     4665787.968 7   3601204.360 6        22.250          14.000
  21094660.403    -2552844.980 6  -1970537.876 6        19.500          17.250
  23044009.435    -7071887.211 6  -5460936.239 5        13.500          10.000
  23931022.114    -3458147.787 5  -2648024.768 5        11.250           8.000
  20534969.075     -163778.880 8   -120662.479 6        29.250          15.250
 93  3 18 19 50 15.0010000  0  5G29G19G27G28G18
  22020162.231     4693313.984 7   3622653.165 6        22.250          14.000
  21092398.896    -2564635.560 7  -1979725.335 6        21.250          17.250
  23036931.450    -7109086.153 6  -5489922.371 5        13.750          10.250
  23928771.466    -3470015.534 6  -2657272.371 5        12.000           8.250
  20534909.396     -164081.394 8   -120898.208 6        28.250          15.250
 93  3 18 19 50 30.0010000  0  5G29G19G27G28G18
  22025406.114     4720886.950 7   3644138.552 6        21.750          14.000
  21090171.552    -2576405.121 7  -1988896.419 6        20.000          17.500
  23029851.122    -7146298.371 6  -5518918.854 5        14.750          10.250
  23926533.208    -3481798.922 6  -2666454.215 5        12.250           8.250
  20534862.536     -164319.063 8   -121083.403 6        28.750          15.250
 93  3 18 19 50 45.0010000  0  5G29G19G27G28G18
  22030662.138     4748508.852 7   3665662.063 6        21.500          14.000
  21087924.747    -2588150.301 7  -1998048.490 6        20.500          17.250
  23022768.099    -7183520.062 6  -5547922.721 5        14.000          10.250
  23924300.856    -3493497.806 5  -2675570.250 5        11.500           8.000
  20534831.692     -164490.115 8   -121216.691 6        29.500          15.250
 93  3 18 19 51  0.0010000  0  5G29G19G27G28G18
  22035927.419     4776177.740 7   3687222.195 6        21.500          14.000
  21085703.099    -2599872.108 7  -2007182.356 6        20.250          17.250
  23015684.185    -7220748.848 6  -5576932.130 5        13.250          10.000
  23922085.856    -3505113.163 5  -2684621.191 5        10.500           8.000
  20534813.763     -164593.647 8   -121297.376 6        29.750          15.250
 93  3 18 19 51 15.0010000  0  5G29G19G27G28G18
  22041203.747     4803889.000 7   3708815.345 6        21.750          14.000
  21083470.724    -2611575.799 7  -2016302.105 6        20.500          17.000
  23008594.216    -7257988.271 6  -5605949.812 5        14.000          10.000
  23919897.935    -3516647.793 5  -2693609.210 5        11.000           8.250
  20534809.575     -164633.205 8   -121328.206 6        29.250          15.250
 93  3 18 19 51 30.0010000  0  5G29G19G27G28G18
  22046483.349     4831642.545 7   3730441.436 6        21.750          14.250
  21081267.177    -2623261.147 6  -2025407.569 6        18.250          16.750
  23001509.497    -7295236.483 6  -5634974.360 5        14.250          10.250
  23917714.513    -3528102.413 5  -2702534.887 5        11.500           8.250
  20534812.755     -164606.934 8   -121307.737 6        29.750          15.250
 93  3 18 19 51 45.0010000  0  5G29G19G27G28G18
  22051771.544     4859440.063 7   3752101.794 6        21.750          14.250
  21079023.372    -2634929.431 7  -2034499.732 6        20.750          16.750
  22994417.997    -7332493.904 6  -5664006.074 5        14.250          10.250
  23915550.372    -3539479.038 5  -2711399.776 5        11.750           8.500
  20534828.786     -164511.902 8   -121233.696 6        29.000          15.500
 93  3 18 19 52  0.0010000  0  5G29G19G27G28G18
  22057069.919     4887286.869 7   3773800.549 6        22.250          14.500
  21076820.403    -2646578.024 6  -2043576.551 6        19.750          16.750
  22987328.825    -7369755.783 6  -5693041.262 5        15.000          10.500
  23913398.231    -3550773.057 5  -2720200.301 5        11.500           8.750
  20534859.513     -164343.159 8   -121102.192 6        29.250          15.250
 93  3 18 19 52 15.0010000  0  5G29G19G27G28G18
  22062381.388     4915179.259 7   3795534.824 6        21.500          14.750
  21074590.974    -2658212.703 7  -2052642.522 6        21.000          17.250
  22980232.403    -7407024.843 6  -5722082.041 5        14.500          10.500
  23911266.536    -3561989.620 6  -2728940.461 5        12.250           8.750
  20534905.661     -164105.194 8   -120916.774 6        28.750          15.250
 93  3 18 19 52 30.0010000  0  5G29G19G27G28G18
  22067695.169     4943116.944 7   3817304.397 6        21.000          14.500
  21072394.755    -2669835.711 6  -2061699.408 6        19.750          17.000
  22973143.161    -7444296.083 6  -5751124.531 5        14.750          10.250
  23909146.481    -3573127.540 6  -2737619.350 5        12.000           8.500
  20534966.528     -163800.338 8   -120679.232 6        29.000          15.250
 93  3 18 19 52 45.0010000  0  5G29G19G27G28G18
  22073023.021     4971098.660 7   3839108.280 6        21.500          14.250
  21070175.044    -2681448.402 7  -2070748.253 6        20.750          17.250
  22966049.505    -7481565.188 6  -5780165.341 5        14.750          10.250
  23907040.325    -3584183.055 6  -2746234.027 5        12.000           8.500
  20535037.552     -163428.044 8   -120389.131 6        29.250          15.500
 93  3 18 19 53  0.0010000  0  5G29G19G27G28G18
  22078355.802     4999120.201 7   3860943.195 6        21.250          13.750
  21067978.935    -2693051.426 6  -2079789.570 6        19.000          17.250
  22958957.403    -7518834.547 6  -5809206.359 5        14.250          10.250
  23904956.739    -3595158.582 6  -2754786.349 5        12.750           8.750
  20535116.599     -162991.220 8   -120048.753 6        29.500          15.250
 93  3 18 19 53 15.0010000  0  5G29G19G27G28G18
  22083696.091     5027185.763 7   3882812.426 6        21.250          13.750
  21065757.950    -2704641.950 7  -2088821.141 6        20.500          17.000
  22951864.021    -7556104.516 6  -5838247.857 5        13.750          10.000
  23902882.044    -3606051.116 5  -2763274.018 5        11.750           8.750
  20535216.521     -162490.338 8   -119658.463 6        30.000          15.250
 93  3 18 19 53 30.0010000  0  5G29G19G27G28G18
  22089040.489     5055295.290 7   3904715.901 6        21.250          13.500
  21063565.700    -2716219.765 6  -2097842.812 6        19.250          17.000
  22944770.325    -7593379.201 6  -5867293.019 5        13.250           9.750
  23900818.005    -3616861.677 5  -2771697.808 5        10.750           8.750
  20535323.942     -161925.861 8   -119218.618 6        29.750          15.250
 93  3 18 19 53 45.0010000  0  5G29G19G27G28G18
  22094406.888     5083456.827 7   3926659.909 6        21.500          13.250
  21061358.271    -2727779.081 7  -2106850.066 6        20.500          16.750
  22937682.935    -7630654.288 6  -5896338.503 5        13.750           9.750
  23898784.271    -3627586.811 5  -2780055.013 5        11.250           9.000
  20535443.278     -161291.243 8   -118724.117 6        29.250          15.250
 93  3 18 19 54  0.0010000  0  5G29G19G27G28G18
  22099771.544     5111668.265 7   3948642.800 6        21.500          13.000
  21059171.974    -2739321.600 6  -2115844.230 6        19.250          17.000
  22930586.653    -7667929.398 6  -5925383.994 5        14.250           9.750
  23896759.591    -3638223.816 5  -2788343.547 5        11.750           8.750
  20535577.528     -160586.279 8   -118174.801 6        29.250          15.250
 93  3 18 19 54 15.0010000  0  5G29G19G27G28G18
  22105146.521     5139929.365 7   3970664.396 6        21.500          13.250
  21056964.544    -2750847.288 7  -2124825.267 6        20.750          17.000
  22923496.606    -7705203.543 6  -5954428.738 5        14.500           9.750
  23894751.552    -3648773.570 5  -2796564.078 5        11.750           8.500
  20535725.380     -159813.942 8   -117572.983 6        29.000          15.250
 93  3 18 19 54 30.0010000  0  5G29G19G27G28G18
  22110536.380     5168238.786 7   3992723.629 6        22.000          13.250
  21054790.544    -2762353.006 6  -2133790.749 6        19.250          17.000
  22916406.130    -7742474.578 6  -5983471.055 5        14.750          10.000
  23892763.271    -3659234.018 6  -2804715.035 5        12.250           8.500
  20535883.997     -158973.046 8   -116917.748 6        29.000          15.250
 93  3 18 19 54 45.0010000  0  5G29G19G27G28G18
  22115932.458     5196595.875 7   4014820.008 6        21.750          13.250
  21052594.231    -2773836.107 7  -2142738.610 6        20.500          17.000
  22909309.067    -7779744.763 6  -6012512.706 5        15.000          10.250
  23890789.278    -3669603.845 6  -2812795.391 5        12.750           8.750
  20536058.013     -158063.194 8   -116208.776 6        28.750          15.000
 93  3 18 19 55  0.0010000  0  5G29G19G27G28G18
  22121340.474     5225002.066 7   4036954.653 6        21.250          13.500
  21050423.161    -2785292.246 6  -2151665.464 6        19.500          16.750
  22902217.817    -7817018.100 6  -6041556.811 5        14.750          10.500
  23888835.138    -3679884.285 6  -2820806.063 5        12.250           8.750
  20536245.099     -157081.773 8   -115444.036 6        29.500          15.000
 93  3 18 19 55 15.0010000  0  5G29G19G27G28G18
  22126752.739     5253458.075 7   4059128.124 6        21.000          13.500
  21048238.325    -2796722.912 7  -2160572.460 6        21.000          16.500
  22895117.989    -7854294.876 6  -6070603.594 5        14.500          11.000
  23886891.356    -3690078.220 6  -2828749.346 5        12.500           9.000
  20536442.825     -156028.060 8   -114622.963 6        29.250          15.000
 93  3 18 19 55 30.0010000  0  5G29G19G27G28G18
  22132177.583     5281965.033 7   4081341.299 6        21.000          13.250
  21046081.567    -2808129.199 6  -2169460.460 6        19.750          16.500
  22888029.271    -7891572.745 6  -6099651.238 5        14.250          10.750
  23884968.630    -3700182.827 6  -2836623.021 5        12.250           8.750
  20536656.388     -154893.883 8   -113739.192 6        29.250          15.000
 93  3 18 19 55 45.0010000  0  5G29G19G27G28G18
  22137610.153     5310519.262 7   4103591.303 6        20.250          13.250
  21043900.458    -2819514.298 7  -2178331.949 6        21.000          16.750
  22880937.630    -7928853.910 6  -6128701.454 5        15.000          10.750
  23883062.489    -3710200.061 5  -2844428.611 5        11.000           8.750
  20536894.356     -153680.313 8   -112793.563 6        29.750          15.000
 93  3 18 19 56  0.0010000  0  5G29G19G27G28G18
  22143051.575     5339120.070 7   4125877.600 6        20.750          13.250
  21041753.536    -2830880.788 6  -2187188.947 6        19.250          16.750
  22873840.724    -7966136.970 6  -6157753.122 5        15.000          10.750
  23881175.755    -3720128.495 5  -2852165.028 5        11.000           9.500
  20537136.599     -152386.863 8   -111785.684 6        29.750          15.000
 93  3 18 19 56 15.0010000  0  5G29G19G27G28G18
  22148507.880     5367770.415 7   4148202.501 6        21.000          13.250
  21039581.567    -2842226.938 7  -2196030.095 6        20.500          16.750
  22866743.161    -8003419.787 6  -6186804.605 5        14.750          10.750
  23879302.083    -3729964.596 5  -2859829.466 5        11.500           9.250
  20537395.856     -151011.677 8   -110714.116 6        28.750          15.000
 93  3 18 19 56 30.0010000  0  5G29G19G27G28G18
  22153966.591     5396471.055 7   4170566.600 6        21.500          13.500
  21037441.435    -2853551.623 6  -2204854.510 6        18.250          16.500
  22859642.669    -8040704.771 6  -6215857.779 5        13.750          10.750
  23877447.091    -3739709.828 5  -2867423.117 5        11.500           9.000
  20537676.927     -149553.516 8   -109577.893 6        29.250          15.000
 93  3 18 19 56 45.0010000  0  5G29G19G27G28G18
  22159437.255     5425223.116 7   4192970.753 6        21.250          13.750
  21035272.700    -2864854.632 7  -2213662.041 6        20.250          16.500
  22852552.653    -8077994.917 6  -6244914.982 5        13.500          10.750
  23875611.419    -3749360.482 5  -2874943.079 5        11.500           9.000
  20537970.638     -148011.646 8   -108376.434 6        29.250          15.250
 93  3 18 19 57  0.0010000  0  5G29G19G27G28G18
  22164917.942     5454029.683 7   4215417.378 6        20.500          13.750
  21033129.435    -2876135.743 7  -2222452.502 6        20.250          16.750
  22845455.685    -8115289.730 6  -6273975.811 5        14.000          11.000
  23873790.263    -3758915.544 5  -2882388.538 5        11.250           8.750
  20538278.825     -146384.124 8   -107108.243 6        29.750          15.250
 93  3 18 19 57 15.0010000  0  5G29G19G27G28G18
  22170408.638     5482891.365 7   4237906.955 6        21.000          14.000
  21030982.458    -2887395.429 7  -2231226.272 6        20.750          16.750
  22838360.653    -8152584.735 6  -6303036.795 5        15.500          10.750
  23871997.013    -3768372.051 5  -2889757.233 5        11.750           8.500
  20538604.599     -144668.800 8   -105771.636 6        29.250          15.250
 93  3 18 19 57 30.0010000  0  5G29G19G27G28G18
  22175915.778     5511807.434 7   4260438.904 6        21.250          13.500
  21028865.403    -2898637.024 6  -2239985.946 6        18.250          17.000
  22831263.731    -8189881.975 6  -6332099.510 5        15.500          10.750
  23870211.802    -3777729.054 6  -2897048.384 5        12.250           8.500
  20538949.286     -142867.172 8   -104367.771 6        29.750          15.500
 93  3 18 19 57 45.0010000  0  5G29G19G27G28G18
  22181429.614     5540779.424 7   4283014.428 6        21.000          14.000
  21026708.255    -2909855.537 7  -2248727.631 6        20.250          17.250
  22824164.950    -8227180.751 6  -6361163.420 5        15.500          10.500
  23868448.114    -3786980.427 6  -2904257.210 5        12.000           8.750
  20539309.833     -140981.543 8   -102898.457 6        30.000          15.250
 93  3 18 19 58  0.0010000  0  5G29G19G27G28G18
  22186950.771     5569808.467 7   4305634.414 6        20.750          13.750
  21024585.958    -2921049.537 7  -2257450.217 6        20.250          17.250
  22817066.224    -8264481.033 6  -6390228.507 5        14.250          10.500
  23866711.364    -3796127.626 6  -2911384.893 5        13.000           8.750
  20539683.122     -139014.680 8   -101365.846 6        30.000          15.250
 93  3 18 19 58 15.0010000  0  5G29G19G27G28G18
  22192490.606     5598897.575 7   4328301.205 6        21.250          13.750
  21022456.888    -2932214.682 7  -2266150.311 6        21.000          17.250
  22809966.052    -8301777.944 6  -6419290.976 5        12.750          10.500
  23864993.544    -3805167.023 6  -2918428.558 5        12.000           8.500
  20540070.997     -136962.038 8    -99766.388 6        29.500          15.500
 93  3 18 19 58 30.0010000  0  5G29G19G27G28G18
  22198036.692     5628045.412 7   4351013.748 6        21.500          13.500
  21020356.638    -2943350.919 6  -2274827.887 6        18.250          17.000
  22802868.942    -8339073.070 6  -6448352.055 5        13.750          10.500
  23863293.622    -3814101.915 6  -2925390.798 5        12.250           8.750
  20540477.653     -134825.992 8    -98101.944 6        29.250          15.500
 93  3 18 19 58 45.0010000  0  5G29G19G27G28G18
  22203591.575     5657245.489 7   4373767.002 6        21.500          13.250
  21018221.302    -2954463.237 7  -2283486.824 6        20.250          17.000
  22795774.278    -8376370.286 6  -6477414.755 5        14.250          10.500
  23861612.622    -3822935.914 6  -2932274.419 5        12.250           8.750
  20540900.833     -132612.437 8    -96377.101 6        29.000          15.500
 93  3 18 19 59  0.0010000  0  5G29G19G27G28G18
  22209155.302     5686500.192 7   4396562.831 6        21.500          12.750
  21016127.685    -2965551.693 6  -2292127.173 6        18.500          16.750
  22788679.372    -8413664.708 6  -6506475.276 5        15.000          10.500
  23859947.302    -3831670.083 6  -2939080.237 5        12.250           8.250
  20541336.708     -130322.307 8    -94592.595 6        28.500          15.500
 93  3 18 19 59 15.0010000  0  5G29G19G27G28G18
  22214737.263     5715809.717 7   4419401.369 6        21.500          13.000
  21014000.419    -2976617.516 7  -2300749.870 6        20.250          16.750
  22781576.771    -8450954.914 6  -6535532.514 5        14.500          10.750
  23858304.966    -3840305.231 5  -2945808.907 5        11.500           8.750
  20541785.911     -127954.038 8    -92747.198 6        29.000          15.250
 93  3 18 19 59 30.0010000  0  5G29G19G27G28G18
  22220326.122     5745176.011 7   4442284.139 6        21.250          13.000
  21011912.833    -2987661.402 6  -2309355.481 6        19.000          17.000
  22774491.599    -8488241.424 6  -6564586.861 5        16.250          10.750
  23856680.255    -3848840.852 6  -2952460.041 5        12.250           8.500
  20542254.981     -125507.411 8    -90840.745 6        29.750          15.500
 93  3 18 19 59 45.0010000  0  5G29G19G27G28G18
  22225923.810     5774597.678 7   4465210.066 6        21.250          13.000
  21009805.880    -2998682.955 7  -2317943.686 6        20.000          16.750
  22767387.786    -8525525.746 6  -6593639.512 5        15.250          11.000
  23855076.739    -3857281.153 6  -2959036.889 5        12.000           8.250
  20542733.872     -122983.281 8    -88873.899 6        29.500          15.500
 93  3 18 20  0  0.0010000  0  5G29G19G27G28G18
  22231531.974     5804075.587 7   4488179.814 6        21.250          12.750
  21007721.153    -3009682.352 6  -2326514.630 6        19.000          16.750
  22760294.474    -8562803.305 6  -6622686.903 5        14.750          11.000
  23853485.849    -3865625.303 5  -2965538.814 5        11.750           8.500
  20543227.138     -120379.097 8    -86844.670 6        29.500          15.500
 93  3 18 20  0 15.0010000  0  5G29G19G27G28G18
  22237148.896     5833614.901 7   4511197.410 6        20.500          12.750
  21005640.310    -3020656.352 6  -2335065.792 6        18.250          16.750
  22753204.364    -8600069.355 6  -6651725.327 5        14.000          11.000
  23851918.997    -3873873.057 6  -2971965.626 5        12.750           8.750
  20543740.685     -117691.312 8    -84750.301 6        29.750          15.500
 93  3 18 20  0 30.0010000  0  5G29G19G27G28G18
  22242784.474     5863207.811 7   4534256.773 6        21.500          12.750
  21003550.919    -3031610.864 6  -2343601.765 6        19.250          16.500
  22746108.880    -8637329.084 6  -6680758.822 5        14.250          11.000
  23850369.356    -3882026.427 6  -2978318.900 5        13.500           8.750
  20544264.067     -114927.222 8    -82596.469 6        28.250          15.750
 93  3 18 20  0 45.0010000  0  5G29G19G27G28G18
  22248422.677     5892853.067 7   4557356.916 6        20.750          12.500
  21001474.942    -3042546.082 6  -2352122.703 6        18.500          16.500
  22739023.958    -8674583.877 6  -6709788.468 5        14.250          11.000
  23848830.872    -3890086.025 6  -2984599.102 5        12.750           9.250
  20544804.966     -112089.311 8    -80385.114 6        29.000          15.750
 93  3 18 20  1  0.0010000  0  5G29G19G27G28G18
  22254077.716     5922552.603 7   4580499.355 6        20.750          12.750
  20999392.708    -3053457.208 6  -2360624.870 6        18.000          16.500
  22731935.700    -8711830.963 6  -6738812.096 5        14.250          11.000
  23847318.622    -3898046.535 6  -2990802.106 5        13.000           9.250
  20545359.763     -109173.282 8    -78112.902 6        29.000          15.750
 93  3 18 20  1 15.0010000  0  5G29G19G27G28G18
  22259741.942     5952310.130 7   4603686.987 6        20.500          12.750
  20997328.060    -3064340.203 6  -2369105.110 6        18.500          16.750
  22724849.528    -8749066.158 6  -6767826.467 5        15.000          11.000
  23845817.646    -3905902.701 6  -2996923.779 5        12.250           9.250
  20545929.864     -106172.717 8    -75774.810 6        28.500          16.000
 93  3 18 20  1 30.0010000  0  5G29G19G27G28G18
  22265412.481     5982119.095 6   4626914.697 6        19.750          12.750
  20995256.067    -3075197.986 6  -2377565.706 6        19.500          16.750
  22717766.552    -8786296.906 6  -6796837.389 5        15.500          11.000
  23844343.739    -3913657.473 6  -3002966.446 5        12.250           9.250
  20546516.442     -103091.451 8    -73373.831 6        28.750          16.000
 93  3 18 20  1 45.0010000  0  5G29G19G27G28G18
  22271099.255     6011980.622 7   4650183.363 6        20.250          12.750
  20993202.458    -3086024.679 6  -2386002.079 6        18.500          17.000
  22710686.614    -8823517.331 6  -6825840.269 5        15.500          11.000
  23842890.138    -3921308.927 5  -3008928.609 5        11.750           9.750
  20547121.067      -99926.949 8    -70907.992 6        29.000          16.000
 93  3 18 20  2  0.0010000  0  5G29G19G27G28G18
  22276787.356     6041889.549 7   4673488.972 6        20.250          12.500
  20991132.591    -3096824.573 6  -2394417.570 6        19.750          17.000
  22703605.099    -8860730.409 6  -6854837.432 5        15.750          11.000
  23841451.419    -3928859.560 6  -3014812.206 5        12.250           9.750
  20547738.044      -96682.535 8    -68379.883 6        29.250          16.000
 93  3 18 20  2 15.0010000  0  5G29G19G27G28G18
  22282483.325     6071850.186 7   4696834.877 6        20.250          12.500
  20989095.856    -3107595.138 6  -2402810.198 6        18.500          17.000
  22696524.614    -8897933.557 6  -6883826.854 5        16.000          11.000
  23840036.646    -3936305.378 6  -3020614.126 5        12.000           9.500
  20548370.380      -93358.112 8    -65789.434 6        29.000          15.750
 93  3 18 20  2 30.0010000  0  5G29G19G27G28G18
  22288200.786     6101859.111 7   4720218.392 6        20.000          12.750
  20987052.310    -3118337.203 6  -2411180.628 6        18.750          17.250
  22689445.981    -8935128.977 6  -6912810.237 5        16.250          10.750
  23838635.044    -3943646.440 5  -3026334.421 5        11.500           9.000
  20549018.950      -89953.058 8    -63136.155 6        29.000          15.750
 93  3 18 20  2 45.0010000  0  5G29G19G27G28G18
  22293918.427     6131918.922 7   4743641.573 6        20.000          12.750
  20985013.958    -3129051.896 6  -2419529.727 6        18.500          17.250
  22682368.817    -8972314.785 6  -6941786.142 5        15.750          10.750
  23837259.458    -3950880.849 6  -3031971.621 5        12.250           8.500
  20549682.981      -86461.384 8    -60415.374 6        28.750          15.750
 93  3 18 20  3  0.0010000  0  5G29G19G27G28G18
  22299651.052     6162032.224 7   4767106.423 6        20.750          12.750
  20982965.333    -3139740.256 6  -2427858.299 6        19.000          17.250
  22675290.528    -9009492.105 6  -6970755.421 5        15.000          10.750
  23835905.599    -3958010.748 6  -3037527.392 5        13.000           8.500
  20550364.146      -82881.203 8    -57625.633 6        28.750          15.750
 93  3 18 20  3 15.0010000  0  5G29G19G27G28G18
  22305391.606     6192203.321 7   4790616.314 6        21.000          12.500
  20980948.833    -3150402.314 6  -2436166.385 6        18.250          17.000
  22668221.388    -9046657.895 6  -6999715.722 5        14.750          10.750
  23834569.396    -3965033.647 6  -3042999.776 5        13.250           8.250
  20551059.411      -79209.544 8    -54764.608 6        28.500          16.000
 93  3 18 20  3 30.0010000  0  5G29G19G27G28G18
  22311144.692     6222431.457 7   4814170.652 6        21.500          12.250
  20978915.349    -3161041.119 7  -2444456.356 6        20.250          17.000
  22661144.122    -9083814.477 6  -7028668.851 5        14.750          11.000
  23833250.864    -3971953.276 5  -3048391.697 5        11.750           8.500
  20551777.927      -75449.052 8    -51834.365 6        28.500          16.000
 93  3 18 20  3 45.0010000  0  5G29G19G27G28G18
  22316908.614     6252718.087 7   4837770.567 6        20.750          12.500
  20976906.560    -3171657.137 6  -2452728.572 6        19.500          17.000
  22654082.708    -9120959.516 6  -7057612.981 5        15.500          11.500
  23831960.638    -3978769.750 6  -3053703.239 5        12.750           8.750
  20552509.872      -71599.720 8    -48834.896 6        28.500          16.000
 93  3 18 20  4  0.0010000  0  5G29G19G27G28G18
  22322683.497     6283061.607 7   4861414.815 6        21.000          12.750
  20974897.841    -3182253.577 6  -2460985.528 6        18.750          16.750
  22647015.606    -9158095.634 6  -7086550.180 5        16.750          11.750
  23830677.411    -3985483.595 6  -3058934.797 5        12.000           8.750
  20553256.888      -67665.072 8    -45768.946 6        28.250          16.000
 93  3 18 20  4 15.0010000  0  5G29G19G27G28G18
  22328465.005     6313467.033 7   4885107.301 6        20.250          12.750
  20972877.794    -3192827.990 6  -2469225.318 6        19.000          16.750
  22639945.567    -9195222.470 6  -7115480.137 5        16.500          11.750
  23829421.560    -3992090.025 6  -3064082.658 5        12.000           8.750
  20554022.856      -63642.210 8    -42634.256 6        28.250          16.000
 93  3 18 20  4 30.0010000  0  5G29G19G27G28G18
  22334263.567     6343933.891 6   4908847.660 6        19.750          12.750
  20970866.036    -3203379.351 7  -2477447.147 6        20.250          16.750
  22632888.888    -9232340.828 6  -7144403.479 5        16.500          11.750
  23828184.153    -3998590.046 6  -3069147.609 5        12.750           8.750
  20554805.763      -59530.727 8    -39430.507 6        28.250          15.750
 93  3 18 20  4 45.0010000  0  5G29G19G27G28G18
  22340074.419     6374461.935 7   4932635.685 6        20.250          12.750
  20968865.067    -3213906.743 6  -2485650.307 6        19.250          16.750
  22625825.763    -9269451.708 6  -7173321.010 5        15.750          11.750
  23826967.677    -4004981.468 5  -3074127.919 5        11.750           8.750
  20555608.317      -55326.266 8    -36154.308 6        28.250          15.750
 93  3 18 20  5  0.0000000  0  5G29G19G27G28G18
  22345891.484     6405045.406 7   4956466.905 6        20.500          12.250
  20966862.172    -3224411.554 6  -2493835.870 6        19.750          17.000
  22618764.508    -9306557.039 6  -7202234.203 5        15.750          11.500
  23825775.250    -4011267.501 6  -3079026.105 5        12.000           9.000
  20556422.375      -51035.646 8    -32810.977 6        28.250          15.750
 93  3 18 20  5 15.0000000  0  5G29G19G27G28G18
  22351725.469     6435690.134 7   4980345.860 6        20.750          12.250
  20964873.531    -3234887.660 6  -2501999.061 6        18.750          17.250
  22611701.289    -9343656.747 6  -7231143.019 5        15.750          11.250
  23824597.484    -4017442.611 6  -3083837.854 5        12.000           9.000
  20557256.211      -46654.345 8    -29396.988 6        28.250          15.750
 93  3 18 20  5 30.0000000  0  5G29G19G27G28G18
  22357569.906     6466393.583 7   5004270.576 6        20.500          12.500
  20962880.836    -3245328.924 6  -2510135.103 6        18.750          17.250
  22604648.195    -9380747.091 6  -7260044.543 5        16.250          11.250
  23823442.742    -4023505.244 6  -3088561.962 5        12.750           9.250
  20558108.750      -42179.869 8    -25910.388 6        28.750          15.750
 93  3 18 20  5 45.0000000  0  5G29G19G27G28G18
  22363419.938     6497157.874 7   5028242.698 6        20.000          12.500
  20960910.211    -3255729.186 6  -2518239.195 6        17.750          17.500
  22597593.625    -9417823.014 6  -7288934.827 5        16.750          11.500
  23822309.633    -4029450.470 6  -3093194.593 5        12.250           9.500
  20558980.609      -37604.918 8    -22345.498 6        29.000          15.750
 93  3 18 20  6  0.0000000  0  5G29G19G27G28G18
  22369288.844     6527976.434 7   5052257.101 6        20.250          12.250
  20958931.117    -3266094.248 6  -2526315.859 6        18.250          17.000
  22590540.375    -9454890.723 6  -7317818.718 5        16.750          11.500
  23821200.789    -4035284.819 6  -3097740.822 5        12.000           9.250
  20559869.617      -32935.025 8    -18706.637 6        28.500          15.750
 93  3 18 20  6 15.0000000  0  5G29G19G27G28G18
  22375164.469     6558850.564 7   5076314.807 6        20.000          12.250
  20956966.758    -3276424.450 6  -2534365.363 6        17.250          17.000
  22583485.453    -9491951.941 6  -7346697.539 5        17.250          11.750
  23820113.703    -4041011.219 6  -3102202.953 5        13.000           9.250
  20560775.164      -28171.325 8    -14994.667 6        28.500          15.750
 93  3 18 20  6 30.0000000  0  5G29G19G27G28G18
  22381049.445     6589780.741 7   5100416.186 6        20.500          12.250
  20955004.820    -3286718.795 6  -2542386.919 6        18.000          17.000
  22576436.617    -9529002.173 6  -7375567.797 6        17.250          12.000
  23819039.523    -4046631.141 5  -3106582.100 5        11.750           9.000
  20561700.688      -23309.125 8    -11205.949 6        29.000          16.000
 93  3 18 20  6 45.0000000  0  5G29G19G27G28G18
  22386943.750     6620764.734 6   5124559.497 6        19.750          12.000
  20953060.875    -3296978.368 6  -2550381.393 6        17.500          17.000
  22569384.852    -9566042.682 6  -7404430.491 6        16.750          12.250
  23817989.484    -4052146.540 6  -3110879.802 5        12.500           9.250
  20562643.961      -18350.167 8     -7341.833 6        28.750          16.000
 93  3 18 20  7  0.0000000  0  5G29G19G27G28G18
  22392851.781     6651805.509 6   5148747.058 6        19.500          12.250
  20951107.656    -3307201.745 6  -2558347.654 6        18.500          16.750
  22562337.750    -9603071.163 6  -7433283.821 6        16.250          12.500
  23816968.578    -4057554.930 6  -3115094.121 5        12.500           9.250
  20563606.422      -13296.451 8     -3403.883 6        28.250          16.000
 93  3 18 20  7 15.0000000  0  5G29G19G27G28G18
  22398768.836     6682902.825 6   5172978.674 6        19.000          12.000
  20949173.750    -3317391.133 6  -2566287.434 6        17.750          16.750
  22555300.984    -9640087.653 6  -7462127.798 6        17.500          12.500
  23815955.016    -4062860.019 6  -3119227.937 5        12.000           9.000
  20564583.922       -8150.893 8       605.637 6        28.250          16.000
 93  3 18 20  7 30.0000000  0  5G29G19G27G28G18
  22404699.047     6714058.439 6   5197255.715 6        19.250          12.250
  20947236.281    -3327545.672 6  -2574200.054 6        19.000          16.750
  22548258.211    -9677091.472 6  -7490961.907 6        17.750          12.250
  23814965.664    -4068064.371 5  -3123283.264 5        11.500           8.500
  20565578.688       -2913.351 8      4686.826 6        28.000          16.000
 93  3 18 20  7 45.0000000  0  5G29G19G27G28G18
  22410639.359     6745273.114 6   5221578.781 6        19.500          12.000
  20945312.820    -3337670.627 6  -2582089.623 6        18.500          16.500
  22541217.375    -9714085.868 6  -7519788.657 6        17.250          12.250
  23813989.758    -4073170.134 6  -3127261.777 5        12.000           8.250
  20566596.070        2413.171 8      8837.356 6        28.000          16.000
 93  3 18 20  8  0.0000000  0  5G29G19G27G28G18
  22416589.047     6776547.448 6   5245948.339 6        18.750          12.750
  20943387.703    -3347772.332 6  -2589961.077 6        19.250          16.500
  22534177.570    -9751073.246 6  -7548609.943 6        17.750          12.000
  23813035.328    -4078179.092 5  -3131164.845 5        11.750           8.500
  20567626.664        7824.810 8     13054.207 6        28.250          16.250
 93  3 18 20  8 15.0000000  0  5G29G19G27G28G18
  22422555.383     6807888.302 7   5270369.727 6        20.000          12.250
  20941475.953    -3357845.978 6  -2597810.672 6        19.250          16.750
  22527138.586    -9788048.585 6  -7577421.850 5        16.500          11.750
  23812105.539    -4083085.228 6  -3134987.801 5        12.000           8.250
  20568671.117       13322.893 8     17338.412 6        28.000          16.250
 93  3 18 20  8 30.0000000  0  5G29G19G27G28G18
  22428527.750     6839292.527 6   5294840.484 6        19.250          12.250
  20939561.031    -3367894.140 6  -2605640.400 6        19.500          16.750
  22520104.867    -9825014.181 6  -7606226.167 6        16.500          12.000
  23811191.563    -4087887.265 5  -3138729.641 5        11.750           8.750
  20569736.156       18906.528 8     21689.284 6        28.250          16.250
 93  3 18 20  8 45.0000000  0  5G29G19G27G28G18
  22434515.898     6870755.201 6   5319356.789 6        19.500          12.000
  20937655.664    -3377919.548 6  -2613452.402 6        18.750          16.750
  22513068.219    -9861973.827 6  -7635025.847 6        16.000          12.250
  23810297.859    -4092584.837 6  -3142390.073 5        12.250           8.750
  20570810.977       24571.601 8     26103.615 6        28.500          16.250
 93  3 18 20  9  0.0000000  0  5G29G19G27G28G18
  22440512.211     6902278.766 6   5343920.541 5        18.250          11.000
  20935755.484    -3387924.341 6  -2621248.361 6        18.000          15.500
  22506038.906    -9898929.880 6  -7663822.755 6        19.000          14.250
  23809418.789    -4097176.991 5  -3145968.347 5        10.750           8.500
  20571904.391       30315.384 8     30579.275 6        29.500          17.000
 93  3 18 20  9 15.0000000  0  5G29G19G27G28G18
  22446527.367     6933876.115 6   5368541.789 5        19.000          11.250
  20933854.695    -3397895.460 6  -2629018.057 6        18.250          15.750
  22499012.250    -9935867.631 6  -7692605.383 6        19.000          14.500
  23808571.648    -4101653.311 5  -3149456.368 5        11.000           8.500
  20573014.281       36156.028 8     35130.418 6        29.750          16.750
 93  3 18 20  9 30.0000000  0  5G29G19G27G28G18
  22452553.539     6965540.590 6   5393215.344 5        18.250          11.000
  20931950.992    -3407839.957 6  -2636767.003 6        19.250          15.500
  22491982.141    -9972791.547 6  -7721377.216 6        18.750          14.250
  23807742.383    -4106019.558 6  -3152858.632 5        12.000           8.250
  20574146.203       42091.043 8     39755.099 6        29.500          16.750
 93  3 18 20  9 45.0000000  0  5G29G19G27G28G18
  22458588.109     6997262.905 6   5417933.976 5        18.500          10.750
  20930073.570    -3417764.794 6  -2644500.632 6        18.250          15.250
  22484955.188   -10009707.717 6  -7750143.023 6        18.000          13.750
  23806928.141    -4110281.149 5  -3156179.309 5        11.750           8.250
  20575290.531       48113.884 8     44448.208 6        30.000          16.750
 93  3 18 20 10  0.0000000  0  5G29G19G27G28G18
  22464639.367     7029042.470 6   5442697.208 5        18.500          10.750
  20928190.703    -3427669.221 6  -2652218.369 6        18.000          15.500
  22477939.586   -10046614.017 6  -7778901.121 6        18.000          13.750
  23806144.422    -4114433.641 6  -3159415.004 5        12.250           8.500
  20576456.297       54225.998 8     49210.885 6        29.000          17.000
 93  3 18 20 10 15.0000000  0  6G29G 2G19G27G28G18
  22470695.203     7060874.904 6   5467501.655 5        18.250          10.500
  24578147.188          -0.09115                         7.500
  20926308.703    -3437552.807 6  -2659919.846 6        18.500          15.500
  22470921.094   -10083511.021 6  -7807651.985 6        19.750          12.750
  23805369.148    -4118480.352 5  -3162568.268 5        10.750           8.750
  20577633.992       60424.067 8     54040.533 6        28.750          16.500
 93  3 18 20 10 30.0000000  0  6G29G 2G19G27G28G18
  22476764.453     7092760.653 6   5492347.645 5        18.750          10.750
  24567840.211      -54137.591 5                         7.750
  20924423.414    -3447412.659 6  -2667602.845 6        19.750          15.500
  22463898.664   -10120396.957 7  -7836394.211 6        20.000          12.250
  23804621.563    -4122420.632 5  -3165638.615 5        11.250           9.000
  20578831.031       66710.288 7     58938.873 6        27.750          16.750
 93  3 18 20 10 45.0000000  0  6G29G 2G19G27G28G18
  22482840.727     7124696.362 6   5517232.544 5        18.750          10.750
  24557543.617     -108266.645 5        -0.79415         8.500           6.250
  20922560.875    -3457250.900 6  -2675268.999 6        18.000          15.500
  22456879.852   -10157273.581 6  -7865129.193 6        19.750          12.000
  23803885.523    -4126258.898 5  -3168629.438 5        11.500           9.000
  20580043.484       73083.839 8     63905.268 6        28.250          16.250
 93  3 18 20 11  0.0000000  0  6G29G 2G19G27G28G18
  22488925.070     7156684.656 6   5542158.430 5        18.750          11.000
  24547242.313     -162384.504 5    -42170.427 5         8.750           6.750
  20920699.211    -3467061.985 6  -2682913.988 6        18.000          15.750
  22449862.477   -10194135.713 7  -7893852.898 5        20.250          11.250
  23803178.156    -4129992.205 5  -3171538.478 5        11.250           9.000
  20581275.258       79547.452 8     68941.831 6        28.500          16.500
 93  3 18 20 11 15.0000000  0  6G29G 2G19G27G28G18
  22495024.117     7188720.560 6   5567121.402 5        19.000          11.000
  24536940.844     -216490.261 5    -84330.608 5         9.000           6.750
  20918828.938    -3476846.153 6  -2690538.012 6        18.500          15.500
  22442843.594   -10230984.941 6  -7922566.551 5        19.250          11.000
  23802486.570    -4133623.178 5  -3174367.794 5        11.000           9.250
  20582519.766       86102.292 8     74049.490 6        28.000          16.250
 93  3 18 20 11 30.0000000  0  6G29G 2G19G27G28G18
  22501129.344     7220804.445 6   5592121.778 5        18.750          11.000
  24526655.180     -270579.217 5   -126477.751 5         9.750           6.750
  20916974.930    -3486600.305 6  -2698138.647 6        18.250          15.500
  22435840.195   -10267819.852 6  -7951269.030 5        19.500          11.000
  23801810.117    -4137144.888 5  -3177111.956 5        10.250           9.250
  20583785.242       92750.277 8     79229.719 6        28.500          16.000
 93  3 18 20 11 45.0000000  0  6G29G 2G19G27G28G18
  22507242.117     7252931.906 6   5617156.099 5        18.500          11.000
  24516362.594     -324652.956 5   -168612.994 5        10.750           6.750
  20915126.156    -3496327.754 6  -2705718.472 6        18.250          15.500
  22428833.063   -10304645.498 6  -7979964.286 5        19.750          11.000
  23801167.375    -4140557.630 5  -3179771.223 5        10.250           9.000
  20585065.563       99481.889 8     84475.119 6        28.250          16.250
 93  3 18 20 12  0.0000000  0  6G29G 2G19G27G28G18
  22513365.609     7285108.540 6   5642228.736 5        17.500          11.500
  24506074.156     -378708.483 5   -210734.054 5        11.500           6.750
  20913272.625    -3506021.257 6  -2713271.840 6        19.500          15.250
  22421831.625   -10341459.265 6  -8008650.267 5        19.500          11.250
  23800539.102    -4143854.994 5  -3182340.566 5        10.000           8.500
  20586364.563      106301.279 8     89788.919 6        28.750          16.000
 93  3 18 20 12 15.0000000  0  6G29G 2G19G27G28G18
  22519497.516     7317335.106 6   5667340.290 5        17.250          11.250
  24495795.742     -432747.748 6   -252842.438 5        12.250           7.250
  20911438.859    -3515683.121 6  -2720800.573 6        18.750          15.250
  22414825.461   -10378262.538 6  -8037328.103 5        19.500          11.750
  23799934.133    -4147037.839 5  -3184820.680 5        10.000           8.500
  20587679.273      113209.115 8     95171.642 6        28.750          16.250
 93  3 18 20 12 30.0000000  0  6G29G 2G19G27G28G18
  22525638.117     7349618.460 6   5692496.101 5        16.750          11.250
  24485511.586     -486768.760 6   -294936.629 5        12.250           7.250
  20909602.656    -3525310.715 6  -2728302.586 6        19.750          15.250
  22407825.875   -10415051.557 6  -8065994.806 6        19.250          12.000
  23799352.625    -4150101.180 5  -3187207.693 5        10.500           8.250
  20589010.422      120211.199 8    100627.803 6        28.250          16.250
 93  3 18 20 12 45.0000000  0  6G29G 2G19G27G28G18
  22531794.742     7381947.340 6   5717687.375 5        16.500          11.000
  24475236.125     -540785.246 6   -337027.285 5        12.000           6.750
  20907778.258    -3534917.187 6  -2735788.136 6        18.250          15.250
  22400829.766   -10451838.354 6  -8094659.785 5        19.250          11.250
  23798792.766    -4153053.544 5  -3189508.205 5        10.500           8.500
  20590358.398      127295.869 8    106148.312 6        28.250          16.000
 93  3 18 20 13  0.0000000  0  6G29G 2G19G27G28G18
  22537955.164     7414325.773 6   5742917.264 5        16.500          11.000
  24464951.469     -594793.791 5   -379111.745 5        11.250           6.750
  20905948.125    -3544498.386 6  -2743254.003 6        19.250          15.500
  22393825.820   -10488619.208 6  -8123320.139 5        18.750          10.750
  23798250.039    -4155888.166 5  -3191716.997 5        10.250           8.250
  20591723.414      134467.848 8    111736.852 6        29.000          16.250
 93  3 18 20 13 15.0000000  0  6G29G 2G19G27G28G18
  22544121.555     7446761.512 6   5768191.800 5        16.250          11.500
  24454681.102     -648787.206 5   -421184.434 5        11.500           6.500
  20904142.500    -3554047.696 6  -2750695.017 6        18.000          15.500
  22386828.336   -10525390.657 6  -8151973.166 5        18.250          10.750
  23797737.039    -4158600.195 5  -3193830.241 5        11.000           8.250
  20593107.609      141733.376 8    117398.293 6        29.500          16.250
 93  3 18 20 13 30.0000000  0  6G29G 2G19G27G28G18
  22550310.031     7479257.995 6   5793513.683 5        17.000          11.250
  24444408.906     -702767.746 5   -463247.054 5        10.250           6.250
  20902324.297    -3563567.145 6  -2758112.764 6        17.750          15.750
  22379828.664   -10562156.803 6  -8180622.050 5        19.000          10.750
  23797235.102    -4161191.264 5  -3195849.224 5        10.250           8.500
  20594508.047      149091.558 8    123131.932 6        29.750          16.250
 93  3 18 20 13 45.0000000  0  6G29G 2G19G27G28G18
  22556505.008     7511816.278 6   5818883.709 5        17.250          11.250
  24434134.539     -756738.701 5   -505302.217 5         9.500           6.250
  20900520.273    -3573059.560 6  -2765509.439 6        17.250          15.750
  22372825.859   -10598916.484 6  -8209265.910 5        19.250          10.750
  23796768.063    -4163662.993 5  -3197775.236 5        10.250           8.500
  20595924.852      156539.248 8    128935.317 6        29.500          16.000
 93  3 18 20 14  0.0000000  0  6G29G 2G19G27G28G18
  22562713.813     7544434.802 6   5844300.682 5        17.000          11.000
  24423868.102     -810702.242 5   -547351.603 5         8.250           6.000
  20898707.313    -3582524.656 6  -2772884.830 6        18.250          15.750
  22365838.508   -10635670.674 6  -8237905.495 5        19.750          10.750
  23796321.211    -4166021.051 5  -3199612.651 5        10.250           8.750
  20597359.539      164076.879 8    134808.791 6        29.750          16.250
 93  3 18 20 14 15.0000000  0  6G29G 2G19G27G28G18
  22568934.898     7577109.255 6   5869761.228 5        16.750          11.000
  24413602.313     -864663.030 4   -589398.847 5         7.000           6.000
  20896919.039    -3591968.271 6  -2780243.482 6        18.000          15.750
  22358842.969   -10672423.785 6  -8266544.225 5        19.500          10.750
  23795887.141    -4168270.997 5  -3201365.822 5        10.500           8.750
  20598808.836      171701.144 8    140749.764 6        29.500          16.000
 93  3 18 20 14 30.0000000  0  6G29G 2G19G27G28G18
  22575163.023     7609844.137 6   5895268.860 5        16.500          10.750
  24403321.469     -918615.945 3   -631439.960 5         5.500           5.500
  20895118.422    -3601386.020 7  -2787581.985 6        20.000          15.750
  22351854.914   -10709168.985 6  -8295176.805 5        19.250          10.750
  23795486.820    -4170409.317 5  -3203032.019 5        10.750           8.500
  20600277.984      179414.531 8    146760.192 6        29.000          16.000
 93  3 18 20 14 45.0000000  0  6G29G 2G19G27G28G18
  22581403.117     7642638.631 6   5920822.949 5        16.500          10.500
  24393057.688     -972556.334 2   -673471.270 5         4.750           5.250
  20893348.633    -3610773.397 6  -2794896.818 6        18.250          16.250
  22344867.742   -10745905.098 6  -8323802.306 5        19.500          10.750
  23795107.102    -4172435.559 5  -3204610.870 5        11.000           8.250
  20601760.875      187216.141 8    152839.358 6        29.750          16.000
 93  3 18 20 15  0.0000000  0  6G29G 2G19G27G28G18
  22587652.352     7675485.209 6   5946417.623 5        17.250          10.250
  24382808.063    -1026483.902 3   -715492.626 5         6.000           5.250
  20891564.063    -3620131.619 6  -2802188.929 6        18.750          16.250
  22337873.508   -10782636.245 6  -8352423.935 5        19.000          11.000
  23794730.594    -4174355.910 5  -3206107.227 5        11.000           8.000
  20603261.352      195102.325 8    158984.428 6        28.500          16.000
 93  3 18 20 15 15.0000000  0  6G29G 2G19G27G28G18
  22593915.438     7708383.256 6   5972052.400 5        17.250          10.250
  24372561.180    -1080396.816 4   -757502.530 5         6.500           4.750
  20889790.703    -3629460.233 6  -2809457.977 6        18.750          16.250
  22330885.383   -10819362.974 6  -8381042.112 5        18.750          11.000
  23794390.797    -4176173.886 5  -3207523.821 5        11.000           8.250
  20604779.727      203073.029 8    165195.353 6        28.750          16.000
 93  3 18 20 15 30.0000000  0  6G29G 2G19G27G28G18
  22600180.609     7741326.853 6   5997722.681 5        16.750          10.000
  24362294.359    -1134299.004 4   -799504.092 5         7.000           4.750
  20888011.625    -3638764.152 7  -2816707.771 6        20.000          16.250
  22323907.477   -10856088.432 6  -8409659.305 5        19.250          11.000
  23794065.547    -4177893.094 5  -3208863.437 5        11.000           8.000
  20606311.664      211123.131 8    171468.149 6        28.750          15.750
 93  3 18 20 15 45.0000000  0  6G29G 2G19G27G28G18
  22606457.602     7774321.517 6   6023432.742 5        17.250          10.000
  24352041.852    -1188182.123 4   -841490.801 5         7.250           4.750
  20886257.844    -3648037.214 6  -2823933.527 6        19.000          16.250
  22316913.977   -10892799.204 6  -8438265.056 5        19.250          11.000
  23793754.477    -4179501.435 5  -3210116.664 5        10.750           7.750
  20607859.445      219262.619 8    177810.602 6        28.750          15.500
 93  3 18 20 16  0.0000000  0  6G29G 2G19G27G28G18
  22612747.563     7807361.178 6   6049177.869 5        17.250          10.000
  24341774.938    -1242046.641 5   -883463.040 5         7.750           4.500
  20884486.328    -3657280.086 7  -2831135.763 6        20.500          16.250
  22309923.469   -10929494.906 6  -8466859.069 5        18.500          11.000
  23793474.797    -4181001.567 5  -3211285.588 5        10.750           7.500
  20609425.359      227490.707 8    184222.091 6        29.000          15.750
 93  3 18 20 16 15.0000000  0  6G29G 2G19G27G28G18
  22619043.492     7840446.592 6   6074958.654 5        18.000          10.000
  24331545.570    -1295892.947 5   -925421.077 4         8.500           4.250
  20882743.609    -3666493.507 6  -2838315.042 6        18.500          16.250
  22302949.227   -10966175.936 6  -8495441.658 5        18.500          11.000
  23793209.805    -4182395.187 5  -3212371.500 5        10.750           7.500
  20611010.094      235806.148 8    190701.646 6        29.250          15.500
 93  3 18 20 16 30.0000000  0  6G29G 2G19G27G28G18
  22625349.680     7873578.273 6   6100775.483 5        18.000          10.000
  24321298.867    -1349719.478 5   -967363.683 5         9.250           4.750
  20880999.609    -3675678.684 6  -2845472.314 6        18.000          16.500
  22295972.188   -11002840.861 6  -8524011.690 5        18.000          11.000
  23792956.930    -4183682.467 5  -3213374.550 5        10.250           7.250
  20612608.141      244208.630 8    197249.024 6        29.500          15.750
 93  3 18 20 16 45.0000000  0  6G29G 2G19G27G28G18
  22631658.914     7906759.676 6   6126631.060 5        17.500          10.000
  24311061.016    -1403521.206 5  -1009286.961 5         9.500           5.000
  20879256.500    -3684830.677 6  -2852603.727 6        19.000          16.500
  22288995.148   -11039485.236 6  -8552565.711 5        17.000          11.000
  23792738.648    -4184859.140 5  -3214291.426 5        11.250           7.500
  20614225.070      252705.645 8    203870.065 6        29.250          15.500
 93  3 18 20 17  0.0000000  0  6G29G 2G19G27G28G18
  22637986.813     7939990.649 6   6152525.265 5        18.250           9.750
  24300823.211    -1457298.009 5  -1051190.848 5         9.500           5.000
  20877512.203    -3693952.038 6  -2859711.276 6        19.000          16.500
  22282025.266   -11076110.852 6  -8581105.108 5        17.000          11.000
  23792529.758    -4185925.565 5  -3215122.353 5        10.500           7.250
  20615858.625      261300.291 8    210567.187 6        29.750          15.500
 93  3 18 20 17 15.0000000  0  6G29G 2G19G27G28G18
  22644317.789     7973272.300 6   6178458.957 5        17.500          10.000
  24290594.164    -1511055.333 5  -1093079.518 5         9.500           5.500
  20875787.484    -3703045.798 6  -2866797.311 6        18.500          16.500
  22275058.359   -11112718.454 6  -8609630.475 5        17.500          10.500
  23792351.977    -4186882.519 5  -3215868.006 5        10.250           7.250
  20617514.453      269991.826 8    217339.800 6        29.750          15.750
 93  3 18 20 17 30.0000000  0  6G29G 2G19G27G28G18
  22650664.711     8006608.773 6   6204435.366 5        18.500          10.000
  24280367.672    -1564795.611 5  -1134954.932 5         9.500           6.000
  20874053.727    -3712112.034 6  -2873861.903 6        18.500          16.500
  22268100.531   -11149303.275 6  -8638138.094 5        17.500          10.750
  23792182.672    -4187725.643 5  -3216524.956 5         9.750           7.500
  20619188.703      278783.696 8    224190.602 6        29.750          15.250
 93  3 18 20 17 45.0000000  0  6G29G 2G19G27G28G18
  22657018.328     8039999.422 6   6230453.983 5        18.750           9.750
  24270148.367    -1618519.304 5  -1176817.410 5         9.250           6.000
  20872339.133    -3721151.526 6  -2880905.654 6        17.500          16.250
  22261135.273   -11185864.280 6  -8666627.151 5        16.000          10.250
  23792053.133    -4188454.383 5  -3217092.778 5        10.500           7.000
  20620877.414      287675.770 8    231119.474 6        29.750          15.000
 93  3 18 20 18  0.0000000  0  6G29G 2G19G27G28G18
  22663383.625     8073446.134 6   6256516.290 5        18.500           9.750
  24259924.281    -1672227.070 5  -1218667.474 5         9.500           6.250
  20870621.719    -3730165.027 6  -2887929.158 6        18.750          16.750
  22254180.508   -11222403.802 6  -8695099.471 5        15.500          11.000
  23791939.445    -4189073.425 5  -3217575.126 5        10.250           7.250
  20622587.844      296666.653 8    238125.353 6        29.250          15.500
 93  3 18 20 18 15.0000000  0  6G29G 2G19G27G28G18
  22669761.047     8106955.310 6   6282627.273 5        18.750           9.750
  24249709.211    -1725917.210 5  -1260503.811 5         9.250           6.250
  20868913.555    -3739151.369 6  -2894931.496 6        18.000          16.750
  22247239.914   -11258922.885 6  -8723555.862 5        16.000          11.000
  23791837.758    -4189582.790 5  -3217972.009 5        10.000           7.250
  20624318.117      305757.477 8    245209.108 6        29.750          15.750
 93  3 18 20 18 30.0000000  0  6G29G 2G19G27G28G18
  22676150.109     8140526.275 6   6308786.398 5        17.500          10.000
  24239491.180    -1779591.913 5  -1302328.092 5         8.750           6.750
  20867208.125    -3748113.873 6  -2901915.261 6        18.500          16.750
  22240297.820   -11295422.621 6  -8751997.173 5        16.250          11.000
  23791759.234    -4189983.076 5  -3218283.890 5        10.750           7.250
  20626070.070      314946.115 8    252369.081 6        30.000          15.500
 93  3 18 20 18 45.0000000  0  6G29G 2G19G27G28G18
  22682550.078     8174154.849 6   6334990.413 5        17.250          10.250
  24229281.664    -1833253.815 5  -1344142.431 5         8.500           6.750
  20865508.125    -3757055.050 6  -2908882.406 6        17.500          17.000
  22233360.039   -11331907.090 6  -8780426.591 5        16.500          11.250
  23791709.320    -4190274.584 5  -3218511.029 5        11.250           7.500
  20627833.320      324232.484 8    259605.199 6        29.750          15.500
 93  3 18 20 19  0.0000000  0  6G29G 2G19G27G28G18
  22688954.453     8207840.056 6   6361238.546 5        17.000          10.250
  24219070.359    -1886904.266 5  -1385947.839 5         8.500           7.000
  20863805.719    -3765977.845 6  -2915835.222 6        18.250          17.000
  22226416.250   -11368378.525 6  -8808845.862 5        16.250          11.000
  23791672.688    -4190457.363 5  -3218653.416 5        10.250           7.500
  20629621.844      333614.645 8    266915.963 6        30.500          15.750
 93  3 18 20 19 15.0000000  0  6G29G 2G19G27G28G18
  22695382.617     8241586.147 6   6387534.136 5        17.000          10.250
  24208861.156    -1940538.916 5  -1427740.924 5         8.500           6.750
  20862118.148    -3774877.058 6  -2922769.657 6        17.750          17.000
  22219482.430   -11404832.267 6  -8837251.335 5        16.750          11.250
  23791651.234    -4190528.899 5  -3218709.124 5         9.750           7.750
  20631425.797      343094.917 8    274303.181 6        30.000          15.750
 93  3 18 20 19 30.0000000  0  6G29G 2G19G27G28G18
  22701813.867     8275392.134 6   6413876.388 5        16.250          10.250
  24198664.766    -1994155.408 5  -1469519.867 5         8.750           7.000
  20860425.117    -3783752.981 6  -2929685.961 6        19.250          17.000
  22212546.328   -11441268.313 6  -8865643.032 5        16.000          11.250
  23791663.195    -4190489.974 5  -3218678.757 5         9.750           8.000
  20633247.648      352671.194 8    281765.204 6        30.250          15.750
 93  3 18 20 19 45.0000000  0  6G29G 2G19G27G28G18
  22708256.914     8309258.147 6   6440265.422 5        15.500          10.250
  24188469.328    -2047748.566 5  -1511280.616 5         8.250           6.500
  20858747.039    -3792603.334 6  -2936582.332 6        19.000          17.000
  22205610.172   -11477690.318 6  -8894023.781 5        16.250          11.250
  23791696.164    -4190339.295 5  -3218561.364 5        10.500           7.500
  20635087.180      362343.479 8    289302.044 6        30.000          16.000
 93  3 18 20 20  0.0000000  0  6G29G 2G19G27G28G18
  22714713.766     8343182.220 6   6466699.689 5        15.250          10.000
  24178274.930    -2101316.977 4  -1553022.095 5         7.250           6.250
  20857061.031    -3801427.102 6  -2943457.979 6        19.500          17.000
  22198669.633   -11514103.992 6  -8922398.035 5        15.500          11.500
  23791738.648    -4190080.036 5  -3218359.303 5         9.750           7.500
  20636947.383      372108.232 8    296910.934 6        30.500          16.000
 93  3 18 20 20 15.0000000  0  6G29G 2G19G27G28G18
  22721177.875     8377166.274 6   6493180.703 5        15.500          10.000
  24168075.992    -2154859.939 4  -1594743.740 5         6.500           6.000
  20855393.672    -3810221.855 6  -2950311.023 6        19.000          17.000
  22191755.586   -11550508.723 6  -8950765.324 5        16.500          11.500
  23791813.461    -4189710.154 5  -3218071.078 5        10.500           7.500
  20638821.281      381968.393 8    304594.169 6        30.500          15.750
 93  3 18 20 20 30.0000000  0  6G29G 2G19G27G28G18
  22727657.281     8411206.843 6   6519705.749 5        15.250           9.750
  24157897.203    -2208376.613 4  -1636444.907 5         6.500           6.000
  20853723.852    -3818985.481 6  -2957139.818 6        19.250          17.500
  22184826.547   -11586904.134 6  -8979125.349 5        17.250          11.250
  23791903.602    -4189227.214 5  -3217694.736 5        10.250           7.750
  20640718.094      391922.513 8    312350.612 6        30.250          15.500
 93  3 18 20 20 45.0000000  0  6G29G 2G19G27G28G18
  22734140.891     8445294.865 6   6546267.774 5        15.250           9.750
  24147723.039    -2261869.596 4  -1678127.600 5         6.500           6.000
  20852063.680    -3827720.635 6  -2963946.418 6        18.500          17.500
  22177908.969   -11623298.018 6  -9007484.178 5        18.500          11.250
  23792020.609    -4188636.178 5  -3217234.180 5        10.750           8.250
  20642627.367      401964.366 8    320175.427 6        30.000          15.750
 93  3 18 20 21  0.0000000  0  7G29G 2G19G27G28G18G11
  22740638.039     8479434.736 6   6572870.204 5        14.500          10.250
  24137539.859    -2315333.329 4  -1719787.510 5         6.500           6.000
  20850398.844    -3836420.284 6  -2970725.359 6        19.000          17.750
  22170969.867   -11659687.167 6  -9035839.327 5        18.250          11.750
  23792152.453    -4187932.738 5  -3216686.032 5        11.000           8.250
  20644556.234      412096.966 8    328070.956 6        30.500          15.750
  24610445.844          -0.35214                         7.000
 93  3 18 20 21 15.0000000  0  7G29G 2G19G27G28G18G11
  22747147.992     8513627.056 6   6599513.497 5        14.750           9.750
  24127374.633    -2368766.364 4  -1761423.531 5         6.750           6.000
  20848759.680    -3845081.995 6  -2977474.735 6        18.500          17.750
  22164053.172   -11696071.585 6  -9064190.792 5        19.000          11.500
  23792307.070    -4187115.859 5  -3216049.466 5        10.750           7.750
  20646500.406      422319.086 8    336036.241 6        29.750          15.750
  24601846.406      -45224.077 4                         6.250
 93  3 18 20 21 30.0000000  0  7G29G 2G19G27G28G18G11
  22753663.156     8547867.678 6   6626194.427 5        14.750           9.750
  24117207.531    -2422172.304 4  -1803038.439 5         6.750           6.000
  20847122.328    -3853708.203 6  -2984196.451 6        18.000          17.750
  22157134.695   -11732453.486 6  -9092540.297 6        19.500          12.250
  23792481.266    -4186187.549 5  -3215326.089 5        11.000           7.750
  20648461.266      432626.721 8    344068.150 6        29.750          15.750
  24593247.219      -90414.002 4        -0.29415         6.500           4.500
 93  3 18 20 21 45.0000000  0  7G29G 2G19G27G28G18G11
  22760183.172     8582156.425 6   6652912.854 5        15.250           9.500
  24107059.906    -2475555.171 5  -1844635.342 5         7.500           6.000
  20845479.031    -3862301.257 6  -2990892.328 6        18.250          17.750
  22150205.469   -11768834.914 6  -9120889.438 6        19.000          12.250
  23792685.797    -4185145.841 5  -3214514.370 5        11.750           8.000
  20650439.227      443018.102 8    352165.318 6        29.250          15.750
  24584658.133     -135571.134 5    -35187.550 5         7.500           4.500
 93  3 18 20 22  0.0000000  0  7G29G 2G19G27G28G18G11
  22766722.164     8616497.304 6   6679671.907 5        15.000           9.250
  24096900.398    -2528913.056 5  -1886212.784 5         8.000           5.500
  20843841.789    -3870856.818 6  -2997558.995 6        19.500          17.750
  22143285.344   -11805207.587 6  -9149231.744 6        19.000          12.500
  23792905.586    -4183987.580 6  -3213611.806 5        12.000           8.000
  20652433.422      453498.223 8    360331.638 6        29.250          15.750
  24576070.102     -180690.097 5    -70345.038 5         8.000           4.750
 93  3 18 20 22 15.0000000  0  7G29G 2G19G27G28G18G11
  22773262.414     8650889.816 6   6706471.210 5        14.500           9.500
  24086754.445    -2582249.611 5  -1927773.625 5         8.250           5.500
  20842232.516    -3879377.724 6  -3004198.649 6        18.750          17.750
  22136363.508   -11841566.535 6  -9177563.362 6        19.000          12.750
  23793150.023    -4182714.932 5  -3212620.130 5        11.750           8.250
  20654446.258      464066.486 8    368566.632 6        29.250          15.750
  24567499.430     -225771.394 5   -105473.176 5         7.750           5.000
 93  3 18 20 22 30.0000000  0  7G29G 2G19G27G28G18G11
  22779819.281     8685335.124 6   6733311.637 5        13.250           9.250
  24076606.688    -2635563.049 5  -1969316.422 5         8.250           5.750
  20840620.414    -3887864.582 6  -3010811.787 6        18.500          18.000
  22129448.688   -11877908.786 6  -9205881.962 6        19.500          13.000
  23793409.852    -4181326.718 5  -3211538.416 5        11.000           8.000
  20656472.219      474721.802 8    376869.469 6        29.250          15.750
  24558918.484     -270814.043 5   -140571.225 5         7.750           4.750
 93  3 18 20 22 45.0000000  0  7G29G 2G19G27G28G18G11
  22786384.531     8719833.306 6   6760193.255 5        14.500           9.500
  24066464.055    -2688852.123 5  -2010840.261 5         8.000           5.500
  20839010.930    -3896316.489 6  -3017397.672 6        18.500          18.000
  22122540.594   -11914232.093 6  -9234185.794 6        19.750          13.250
  23793695.492    -4179821.722 5  -3210365.672 5        11.250           8.250
  20658516.102      485464.176 8    385240.136 6        29.250          16.000
  24550354.492     -315816.859 4   -175638.216 5         6.750           4.750
 93  3 18 20 23  0.0000000  0  7G29G 2G19G27G28G18G11
  22792958.031     8754382.712 6   6787114.794 5        13.750           9.000
  24056319.430    -2742120.876 5  -2052348.276 5         7.750           5.500
  20837395.969    -3904737.782 7  -3023959.711 6        20.000          18.000
  22115627.539   -11950537.810 6  -9262475.926 6        19.000          13.500
  23794006.953    -4178201.719 5  -3209103.324 5        11.500           8.250
  20660575.695      496291.364 8    393676.887 6        29.250          16.000
  24541799.977     -360781.920 5   -210675.781 5         7.750           4.500
 93  3 18 20 23 15.0000000  0  7G29G 2G19G27G28G18G11
  22799546.320     8788983.305 6   6814076.236 5        13.250           9.000
  24046202.242    -2795371.435 5  -2093842.122 5         8.000           5.500
  20835805.719    -3913132.435 6  -3030500.995 6        18.500          18.000
  22108730.461   -11986823.676 7  -9290750.591 6        20.500          13.500
  23794334.898    -4176467.579 5  -3207752.031 5        11.500           8.250
  20662654.070      507202.773 8    402179.264 6        29.000          16.000
  24533245.766     -405709.114 5   -245683.878 4         7.750           4.250
 93  3 18 20 23 30.0000000  0  7G29G 2G19G27G28G18G11
  22806137.422     8823641.982 6   6841082.915 5        14.500           8.750
  24036063.656    -2848597.448 5  -2135316.831 5         7.500           5.750
  20834223.766    -3921497.280 6  -3037019.054 6        18.500          18.000
  22101820.672   -12023082.668 6  -9319004.325 6        19.750          13.500
  23794685.094    -4174613.647 5  -3206307.393 5        10.500           8.000
  20664746.977      518205.796 8    410753.037 6        29.250          16.000
  24524714.789     -450592.589 5   -280657.856 4         7.750           4.000
 93  3 18 20 23 45.0000000  0  7G29G 2G19G27G28G18G11
  22812753.156     8858362.820 6   6868138.042 5        13.500           8.750
  24025939.016    -2901797.818 5  -2176771.548 5         8.250           5.750
  20832634.070    -3929831.032 6  -3043512.884 6        18.750          18.000
  22094933.023   -12059313.869 7  -9347236.394 6        20.750          13.750
  23795056.961    -4172640.745 5  -3204770.072 5         9.500           7.750
  20666859.922      529303.110 8    419400.279 6        29.750          16.000
  24516168.516     -495430.659 5   -315596.478 4         8.000           4.250
 93  3 18 20 24  0.0000000  0  7G29G 2G19G27G28G18G11
  22819369.875     8893141.608 6   6895238.312 5        13.250           9.250
  24015826.586    -2954974.732 5  -2218207.970 5         9.250           5.500
  20831051.164    -3938134.314 6  -3049982.968 6        18.500          17.750
  22088046.258   -12095520.659 7  -9375449.438 6        21.250          13.250
  23795454.164    -4170556.094 5  -3203145.666 5        10.500           7.500
  20668989.758      540493.489 8    428120.037 6        29.500          15.750
  24507646.859     -540225.859 5   -350501.717 4         8.750           3.750
 93  3 18 20 24 15.0000000  0  7G29G 2G19G27G28G18G11
  22825995.523     8927972.447 6   6922379.144 5        12.500           9.500
  24005710.586    -3008128.688 5  -2259626.556 5         9.000           5.750
  20829474.148    -3946410.378 6  -3056431.842 6        18.750          18.000
  22081153.141   -12131708.628 7  -9403647.827 6        21.250          13.250
  23795874.719    -4168363.642 5  -3201437.240 5        10.500           7.500
  20671133.617      551771.869 8    436908.376 6        29.750          16.000
  24499133.266     -584981.177 5   -385375.871 4         8.500           3.750
 93  3 18 20 24 30.0000000  0  8G29G 2G19G27G28G18G11G16
  22832634.375     8962857.761 6   6949562.434 5        13.500           8.750
  23995600.898    -3061254.640 5  -2301023.304 5         9.500           6.000
  20827900.938    -3954656.054 7  -3062857.040 6        20.500          18.000
  22074271.063   -12167879.562 7  -9431832.946 6        20.000          13.250
  23796316.586    -4166056.997 5  -3199639.836 5         9.750           8.000
  20673298.758      563142.767 8    445768.787 6        30.000          15.500
  24490629.633     -629693.329 5   -420216.394 4         8.000           4.250
  24402053.242          -0.53015                         8.000
 93  3 18 20 24 45.0000000  0  8G29G 2G19G27G28G18G11G16
  22839285.297     8997799.173 6   6976789.442 5        13.500           9.000
  23985498.875    -3114349.240 5  -2342395.607 5        10.250           6.250
  20826343.867    -3962869.071 6  -3069256.790 6        19.250          18.000
  22067394.367   -12204032.897 6  -9460004.336 6        19.250          14.250
  23796776.398    -4163631.476 5  -3197749.835 5        10.250           8.000
  20675480.320      574612.174 8    454705.967 6        29.500          15.750
  24482127.688     -674358.350 5   -455020.190 4         8.750           4.250
  24394660.266      -38846.310 4                         7.000
 93  3 18 20 25  0.0000000  0  8G29G 2G19G27G28G18G11G16
  22845937.047     9032790.985 6   7004055.728 5        12.750           9.500
  23975397.391    -3167417.483 5  -2383747.401 5        10.250           6.000
  20824779.211    -3971055.561 7  -3075635.870 6        20.250          18.500
  22060513.617   -12240174.228 6  -9488166.380 6        19.500          14.500
  23797255.531    -4161090.312 5  -3195769.694 5        10.250           7.250
  20677685.578      586180.130 8    463719.946 6        30.000          15.500
  24473631.609     -718980.059 4   -489790.226 4         6.250           4.250
  24387281.398      -77604.976 4        -0.44515         6.750           6.000
 93  3 18 20 25 15.0000000  0  8G29G 2G19G27G28G18G11G16
  22852608.797     9067833.305 6   7031361.353 5        13.000           9.250
  23965304.602    -3220457.099 5  -2425076.866 5         9.250           6.000
  20823236.289    -3979216.288 7  -3081994.882 6        20.000          18.500
  22053640.000   -12276304.049 6  -9516319.460 6        19.750          14.750
  23797771.211    -4158434.050 5  -3193699.889 5        11.000           7.000
  20679902.031      597850.050 8    472813.371 6        29.250          15.750
  24465152.484     -763557.206 4   -524525.524 5         7.250           4.500
  24379934.594     -116274.703 4    -30132.656 5         6.250           5.750
 93  3 18 20 25 30.0000000  0  8G29G 2G19G27G28G18G11G16
  22859289.672     9102925.043 6   7058705.481 5        13.250           9.250
  23955212.750    -3273468.960 5  -2466384.698 5         8.500           6.000
  20821678.625    -3987350.274 7  -3088333.053 6        20.750          17.250
  22046767.766   -12312422.649 7  -9544463.798 6        21.250          14.750
  23798288.070    -4155664.094 5  -3191541.472 5        11.000           7.000
  20682144.672      609626.170 8    481989.546 6        29.000          15.750
  24456677.945     -808089.909 4   -559226.227 5         7.250           4.750
  24372591.875     -154856.492 3    -60196.354 5         6.000           5.750
 93  3 18 20 25 45.0000000  0  8G29G 2G19G27G28G18G11G16
  22865978.711     9138066.825 6   7086088.618 5        13.000           9.000
  23945134.227    -3326452.374 5  -2507670.376 5         9.000           6.000
  20820147.102    -3995453.181 6  -3094647.003 6        18.750          17.500
  22039893.281   -12348528.071 7  -9572597.854 6        21.250          15.000
  23798844.219    -4152779.415 5  -3189293.681 5        11.500           7.000
  20684404.773      621513.545 8    491252.411 6        29.250          16.250
  24448220.656     -852576.917 5   -593891.277 5         7.750           4.750
  24365265.672     -193348.971 4    -90190.445 5         6.250           5.750
 93  3 18 20 26  0.0000000  0  8G29G 2G19G27G28G18G11G16
  22872672.461     9173257.001 6   7113509.461 5        13.750           9.000
  23935053.398    -3379406.162 5  -2548932.976 5         9.500           5.750
  20818604.070    -4003520.820 6  -3100933.473 6        19.000          17.000
  22033026.711   -12384618.575 7  -9600720.291 6        20.750          15.000
  23799415.438    -4149776.083 5  -3186953.445 5        11.250           7.250
  20686689.984      633514.004 8    500603.401 6        29.500          15.750
  24439752.656     -897015.686 5   -628518.757 5         7.750           4.750
  24357963.250     -231748.028 4   -120111.765 5         7.000           5.500
 93  3 18 20 26 15.0000000  0  8G29G 2G19G27G28G18G11G16
  22879379.203     9208492.937 6   7140965.973 5        13.750           8.750
  23924991.531    -3432328.102 5  -2590170.785 5         9.250           6.000
  20817079.930    -4011555.849 6  -3107194.527 6        19.750          18.000
  22026158.445   -12420691.136 7  -9628828.740 6        20.250          15.750
  23800013.750    -4146649.638 5  -3184517.282 5        10.750           7.250
  20688993.242      645624.552 8    510040.168 6        29.500          16.000
  24431305.453     -941404.797 5   -663107.535 5         7.750           4.750
  24350669.031     -270050.494 3   -149957.816 5         5.500           5.250
 93  3 18 20 26 30.0000000  0  8G29G 2G19G27G28G18G11G16
  22886091.977     9243779.524 6   7168461.934 5        13.250           8.750
  23914916.695    -3485217.876 5  -2631383.484 5         9.250           6.000
  20815549.336    -4019557.515 7  -3113429.592 6        20.750          18.250
  22019301.227   -12456743.076 6  -9656921.121 6        19.500          15.500
  23800624.297    -4143395.889 5  -3181981.878 5        10.250           6.500
  20691320.094      657847.185 8    519564.270 6        29.750          16.000
  24422866.969     -985741.400 5   -697655.435 4         7.750           4.250
  24343397.344     -308254.906 3   -179727.436 5         5.250           5.000
 93  3 18 20 26 45.0000000  0  8G29G 2G19G27G28G18G11G16
  22892811.703     9279110.914 5   7195992.793 5        11.250           9.500
  23904859.781    -3538082.938 5  -2672576.927 5        11.250           6.000
  20814041.063    -4027530.727 7  -3119642.488 6        20.250          18.250
  22012441.039   -12492778.660 7  -9685000.759 6        20.750          15.250
  23801272.211    -4140021.717 5  -3179352.662 5        11.750           6.250
  20693665.563      670175.942 7    529171.068 6        27.250          16.000
  24414443.508    -1030030.733 5   -732166.488 5         8.750           5.000
  24336143.898     -346367.287 3   -209425.380 5         6.000           5.000
 93  3 18 20 27  0.0000000  0  8G29G 2G19G27G28G18G11G16
  22899547.438     9314490.545 5   7223561.279 5        11.500           8.750
  23894804.930    -3590921.078 5  -2713749.389 5        11.500           7.250
  20812516.922    -4035471.307 6  -3125829.952 6        19.750          17.500
  22005593.398   -12528792.142 7  -9713063.196 6        21.500          14.500
  23801929.063    -4136524.497 6  -3176627.543 5        12.500           8.750
  20696031.680      682611.357 8    538860.987 6        28.750          16.500
  24406030.836    -1074269.234 5   -766637.891 5         8.250           5.500
  24328910.531     -384383.794 4   -239048.588 5         7.250           4.500
 93  3 18 20 27 15.0000000  0  8G29G 2G19G27G28G18G11G16
  22906289.750     9349919.613 6   7251168.272 5        12.000           8.750
  23884754.531    -3643729.285 5  -2754898.542 5        10.500           7.250
  20811023.898    -4043376.074 6  -3131989.517 6        17.750          17.250
  21998746.992   -12564782.117 7  -9741107.288 6        20.750          14.750
  23802626.633    -4132904.934 6  -3173807.105 5        12.750           8.500
  20698419.406      695149.660 8    548631.074 6        29.250          16.750
  24397618.008    -1118456.349 5   -801069.293 5         8.250           5.250
  24321684.594     -422304.781 4   -268597.353 5         6.500           4.500
 93  3 18 20 27 30.0000000  0  8G29G 2G19G27G28G18G11G16
  22913043.273     9385401.370 5   7278816.312 5        11.500           9.000
  23874714.406    -3696507.815 5  -2796024.590 5        10.500           7.250
  20809522.555    -4051240.613 6  -3138117.731 6        18.500          17.250
  21991896.477   -12600746.281 7  -9769131.273 6        20.750          14.750
  23803336.578    -4129162.277 5  -3170890.749 5        11.750           8.500
  20700823.500      707788.648 8    558479.613 6        29.500          16.750
  24389218.195    -1162590.677 5   -835459.544 5         8.000           5.000
  24314508.367     -460130.847 5                         7.500
 93  3 18 20 27 45.0000000  0  8G29G 2G19G27G28G18G11G16
  22919807.773     9420937.672 6   7306506.859 5        12.000           9.000
  23864675.359    -3749257.673 5  -2837128.275 5        10.750           7.250
  20808039.203    -4059064.497 6  -3144214.261 6        17.500          17.250
  21985056.039   -12636684.436 7  -9797134.990 6        20.500          14.250
  23804065.164    -4125298.700 5  -3167880.164 5        11.250           8.250
  20703247.813      720521.728 8    568401.472 6        30.250          16.500
  24380829.008    -1206673.327 5   -869809.528 5         7.500           5.000
  24307316.727     -497861.973 5                         8.250
 93  3 18 20 28  0.0000000  0  8G29G 2G19G27G28G18G11G16
  22926579.906     9456529.004 5   7334240.287 5        11.500           8.750
  23854648.969    -3801975.927 5  -2878207.329 5        11.000           7.250
  20806547.078    -4066847.535 6  -3150278.977 6        19.000          17.250
  21978228.414   -12672599.095 7  -9825120.405 6        21.500          14.250
  23804827.953    -4121313.994 6  -3164775.200 5        12.500           8.000
  20705689.039      733341.243 8    578390.681 6        29.500          16.750
  24372450.680    -1250703.363 5   -904118.523 5         7.750           5.000
  24300154.227     -535495.974 5                         8.250
 93  3 18 20 28 15.0000000  0  8G29G 2G19G27G28G18G11G16
  22933358.305     9492173.528 5   7362015.169 5        10.750           8.750
  23844613.234    -3854662.690 5  -2919261.841 5        10.750           7.250
  20805082.750    -4074593.792 6  -3156315.023 6        17.750          17.250
  21971396.367   -12708494.856 7  -9853091.098 6        22.000          14.000
  23805613.930    -4117211.579 6  -3161578.505 5        12.000           8.000
  20708141.477      746238.491 8    588440.468 6        29.750          16.500
  24364083.719    -1294682.762 5   -938388.060 5         8.000           5.250
  24293010.195     -573034.898 5        -0.32115         8.000           4.750
 93  3 18 20 28 30.0000000  0  8G29G 2G19G27G28G18G11G16
  22940147.047     9527878.995 5   7389837.542 5         9.750           8.500
  23834586.578    -3907312.173 5  -2960287.310 5        10.250           7.250
  20803608.023    -4082299.983 6  -3162319.849 6        19.250          17.250
  21964570.570   -12744369.635 7  -9881045.431 6        22.250          13.750
  23806413.508    -4112990.311 5  -3158289.207 5        11.750           8.250
  20710611.977      759221.131 8    598556.794 6        30.000          16.500
  24355719.891    -1338606.948 5   -972614.591 5         7.500           5.250
  24285889.172     -610476.697 5    -29175.725 5         8.750           5.000
 93  3 18 20 28 45.0000000  0  8G29G 2G19G27G28G18G11G16
  22946954.281     9563638.279 5   7417701.851 5        10.000           8.250
  23824581.961    -3959932.196 5  -3001289.833 5        11.000           7.250
  20802162.445    -4089970.625 6  -3168296.978 6        18.500          17.250
  21957746.461   -12780232.171 7  -9908990.235 6        22.250          14.250
  23807231.844    -4108659.557 6  -3154914.611 5        12.000           8.000
  20713097.664      772285.475 8    608736.780 6        29.250          16.500
  24347365.766    -1382482.527 5  -1006803.221 5         7.500           5.250
  24278777.555     -647829.873 5    -58282.038 5         8.750           5.500
 93  3 18 20 29  0.0000000  0  8G29G 2G19G27G28G18G11G16
  22953772.281     9599452.215 5   7445608.737 5        10.750           8.500
  23814577.984    -4012515.924 5  -3042264.063 5        11.500           7.250
  20800710.992    -4097604.541 6  -3174245.477 6        17.750          17.250
  21950921.344   -12816077.969 7  -9936921.994 6        22.000          14.500
  23808081.844    -4104215.534 6  -3151451.715 5        13.000           7.750
  20715598.914      785434.165 8    618982.489 6        29.000          16.500
  24339026.039    -1426306.678 4  -1040951.799 5         7.000           5.000
  24271691.352     -685089.896 5    -87315.757 5         9.000           5.250
 93  3 18 20 29 15.0000000  0  8G29G 2G19G27G28G18G11G16
  22960602.406     9635328.727 5   7473564.381 5        10.250           8.250
  23804582.766    -4065054.637 6  -3083203.219 5        12.000           7.500
  20799261.305    -4105193.712 6  -3180159.118 6        18.500          17.000
  21944109.469   -12851900.030 7  -9964835.251 6        21.750          14.500
  23808952.219    -4099653.922 6  -3147897.190 5        12.000           8.000
  20718118.852      798675.333 8    629300.273 6        29.000          16.500
  24330709.219    -1470071.883 5  -1075054.410 5         8.250           5.250
  24264619.602     -722246.290 5   -116268.754 5         8.500           5.250
 93  3 18 20 29 30.0000000  0  8G29G 2G19G27G28G18G11G16
  22967439.117     9671265.948 5   7501567.339 5         9.750           8.000
  23794594.938    -4117550.624 6  -3124109.108 5        12.750           7.500
  20797817.398    -4112739.843 6  -3186039.223 6        19.250          17.250
  21937295.586   -12887702.308 7  -9992733.096 6        21.750          14.750
  23809836.289    -4094978.720 5  -3144254.179 5        11.750           8.250
  20720656.508      812010.329 8    639691.160 6        29.250          16.750
  24322385.820    -1513779.718 5  -1109112.359 5         7.750           5.250
  24257563.836     -759300.273 5   -145141.971 5         7.750           5.000
 93  3 18 20 29 45.0000000  0  8G29G 2G19G27G28G18G11G16
  22974287.664     9707257.186 5   7529612.393 5        10.750           8.250
  23784611.836    -4170009.656 6  -3164986.175 5        13.500           7.500
  20796399.383    -4120247.612 6  -3191889.433 6        18.750          17.250
  21930476.555   -12923489.059 7 -10020618.841 6        21.000          14.750
  23810755.250    -4090194.428 6  -3140526.144 5        12.500           8.250
  20723212.367      825436.699 8    650153.240 6        29.000          16.750
  24314079.961    -1557433.560 5  -1143128.197 5         8.250           5.250
  24250532.602     -796254.056 4   -173937.070 5         7.250           4.500
 93  3 18 20 30  0.0000000  0  8G29G 2G19G27G28G18G11G16
  22981145.047     9743302.132 5   7557699.275 5        10.000           8.250
  23774639.602    -4222430.324 6  -3205833.339 5        14.000           7.750
  20794969.625    -4127719.369 6  -3197711.585 6        19.000          17.250
  21923675.469   -12959260.894 7 -10048492.975 6        21.750          14.750
  23811686.242    -4085302.226 6  -3136714.031 5        12.500           8.000
  20725782.703      838956.061 8    660687.787 6        28.750          16.750
  24305782.328    -1601032.410 5  -1177101.221 5         8.250           5.000
  24243524.852     -833107.438 4   -202653.943 5         7.250           4.500
 93  3 18 20 30 15.0000000  0  8G29G 2G19G27G28G18G11G16
  22988018.391     9779399.617 5   7585827.109 5        10.750           8.250
  23764667.227    -4274815.468 6  -3246652.834 5        13.250           7.750
  20793556.250    -4135157.156 6  -3203507.259 6        18.250          17.250
  21916868.078   -12995019.706 7 -10076356.953 6        21.750          14.500
  23812629.633    -4080299.901 6  -3132816.106 5        12.000           8.000
  20728377.867      852573.018 8    671298.386 6        29.500          16.750
  24297499.359    -1644575.487 5  -1211030.785 5         8.750           5.250
  24236525.477     -869860.854 5   -231292.935 5         7.500           4.500
 93  3 18 20 30 30.0000000  0  8G29G 2G19G27G28G18G11G16
  22994897.422     9815548.570 5   7613995.045 5        10.500           8.250
  23754708.758    -4327167.956 6  -3287446.889 5        13.000           7.500
  20792143.078    -4142564.821 6  -3209279.471 6        18.750          17.250
  21910071.086   -13030762.591 7 -10104208.522 6        22.250          14.000
  23813606.125    -4075187.818 6  -3128832.655 5        12.250           8.000
  20730986.180      866295.480 8    681991.188 6        28.500          16.750
  24289224.828    -1688063.253 5  -1244917.233 5         8.750           4.750
  24229551.180     -906515.151 5   -259854.704 4         8.500           4.250
 93  3 18 20 30 45.0000000  0  8G29G 2G19G27G28G18G11G16
  23001788.961     9851746.818 5   7642201.382 5         9.500           8.500
  23744747.180    -4379492.800 6  -3328219.390 5        13.000           7.750
  20790747.258    -4149941.875 6  -3215027.823 6        18.250          17.500
  21903273.555   -13066487.104 7 -10132045.778 6        22.500          14.000
  23814597.555    -4069967.096 5  -3124764.548 5        11.250           8.000
  20733617.867      880125.183 8    692767.565 6        28.750          17.000
  24280955.758    -1731496.544 5  -1278761.240 5         7.750           5.750
  24222590.352     -943069.952 5   -288338.929 5         8.750           4.500
 93  3 18 20 31  0.0000000  0  8G29G 2G19G27G28G18G11G16
  23008677.734     9887996.961 5   7670448.175 5         9.250           8.500
  23734800.594    -4431784.948 6  -3368966.430 5        12.750           7.750
  20789343.922    -4157282.817 6  -3220748.037 6        18.750          17.500
  21896472.930   -13102184.743 7 -10159862.087 6        21.000          14.000
  23815617.820    -4064631.953 6  -3120607.307 5        12.000           8.000
  20736271.586      894063.726 8    703628.751 6        29.000          17.000
  24272704.914    -1774869.491 5  -1312558.219 5         8.250           5.000
  24215668.102     -979516.916 5   -316739.107 5        10.000           5.000
 93  3 18 20 31 15.0000000  0  8G29G 2G19G27G28G18G11G16
  23015584.758     9924293.257 5   7698730.933 5         8.500           8.000
  23724850.078    -4484050.302 6  -3409692.577 5        12.750           7.750
  20787956.492    -4164592.424 6  -3226443.828 6        18.500          17.500
  21889684.563   -13137861.695 7 -10187662.275 6        20.750          14.000
  23816650.586    -4059189.059 6  -3116366.081 5        12.000           8.250
  20738943.359      908105.363 8    714570.263 6        29.000          17.000
  24264461.883    -1818187.310 5  -1346312.255 5         7.750           5.250
  24208747.609    -1015858.760 5   -345057.382 5        10.000           5.250
 93  3 18 20 31 30.0000000  0  8G29G 2G19G27G28G18G11G16
  23022508.836     9960638.042 5   7727051.473 5         9.250           8.250
  23714907.320    -4536291.678 6  -3450400.051 5        12.250           8.000
  20786569.594    -4171871.104 6  -3232115.527 6        19.750          17.500
  21882901.102   -13173518.875 7 -10215447.055 6        20.750          14.000
  23817703.344    -4053635.561 5  -3112038.668 5        11.500           8.250
  20741632.867      922252.331 8    725593.863 6        28.750          17.000
  24256230.523    -1861448.206 5  -1380021.913 5         8.250           5.250
  24201846.992    -1052097.859 5   -373295.582 5         8.250           5.750
 93  3 18 20 31 45.0000000  0  8G29G 2G19G27G28G18G11G16
  23029429.375     9997032.939 5   7755411.042 5         9.750           8.500
  23704965.516    -4588509.639 6  -3491089.275 5        12.250           7.750
  20785190.883    -4179121.653 6  -3237765.302 6        18.500          17.500
  21876121.789   -13209154.578 7 -10243215.108 6        21.250          14.250
  23818782.984    -4047967.295 5  -3107621.832 5        11.250           8.250
  20744349.266      936503.615 8    736698.740 6        29.250          17.000
  24248005.469    -1904651.441 5  -1413686.649 5         8.000           5.750
  24194969.148    -1088236.889 5   -401455.826 5         8.500           6.000
 93  3 18 20 32  0.0000000  0  8G29G 2G19G27G28G18G11G16
  23036365.461    10033484.044 5   7783814.429 5         9.750           8.250
  23695035.055    -4640698.809 6  -3531756.064 5        12.250           8.000
  20783810.383    -4186342.782 6  -3243392.148 6        18.500          17.750
  21869343.273   -13244763.100 7 -10270961.978 6        21.750          14.250
  23819883.805    -4042180.447 5  -3103112.584 5        11.500           8.500
  20747075.891      950861.521 8    747886.702 6        28.750          17.000
  24239801.203    -1947793.090 5  -1447303.377 5         9.000           5.750
  24188119.516    -1124272.465 5   -429535.443 5         8.750           5.750
 93  3 18 20 32 15.0000000  0  8G29G 2G19G27G28G18G11G16
  23043313.867    10069990.523 5   7812260.934 5        10.000           8.750
  23685111.164    -4692860.082 5  -3572401.113 5        11.750           8.000
  20782449.164    -4193537.753 6  -3248998.609 6        18.000          17.750
  21862574.711   -13280346.487 7 -10298689.263 6        22.000          14.000
  23821012.727    -4036272.123 6  -3098508.667 5        12.000           9.000
  20749832.445      965324.091 8    759156.220 6        29.250          16.750
  24231599.430    -1990873.917 5  -1480872.732 5         9.000           5.750
  24181272.359    -1160204.211 5   -457534.174 5         8.500           6.000
 93  3 18 20 32 30.0000000  0  8G29G 2G19G27G28G18G11G16
  23050273.070    10106549.663 5   7840748.496 5        10.500           9.000
  23675194.398    -4744991.876 6  -3613023.201 5        12.000           8.250
  20781082.336    -4200706.067 6  -3254584.307 6        19.000          17.750
  21855807.492   -13315903.043 7 -10326395.645 6        22.250          14.000
  23822157.930    -4030241.165 5  -3093809.224 5        11.250           8.250
  20752606.172      979890.144 8    770506.377 6        28.750          17.000
  24223415.555    -2033894.452 5  -1514395.090 5         9.500           6.000
  24174456.297    -1196033.562 5   -485453.100 5         9.000           5.500
 93  3 18 20 32 45.0000000  0  8G29G 2G19G27G28G18G11G16
  23057242.719    10143163.899 5   7869278.985 5        10.500           9.250
  23665282.453    -4797088.357 6  -3653617.765 5        12.000           8.500
  20779731.086    -4207842.878 6  -3260145.457 6        18.500          17.750
  21849045.828   -13351430.051 7 -10354079.000 6        22.000          14.000
  23823328.656    -4024086.539 5  -3089013.401 5        11.500           8.250
  20755393.273      994556.655 8    781934.817 6        28.250          17.000
  24215239.578    -2076852.309 5  -1547868.632 5         9.750           6.500
  24167666.422    -1231758.229 5   -513290.506 5         8.750           5.500
 93  3 18 20 33  0.0000000  0  8G29G 2G19G27G28G18G11G16
  23064221.109    10179826.983 5   7897847.517 5        10.500           9.500
  23655372.641    -4849153.052 6  -3694187.563 5        12.000           8.500
  20778370.141    -4214953.142 6  -3265685.907 6        19.000          17.500
  21842289.516   -13386936.386 7 -10381746.237 6        21.250          14.000
  23824520.367    -4017813.567 5  -3084125.361 5        11.750           8.250
  20758201.969     1009310.494 8    793431.300 6        28.000          17.000
  24207074.773    -2119753.537 5  -1581298.049 5         9.750           6.250
  24160889.945    -1267385.409 5   -541051.912 5         9.750           5.500
 93  3 18 20 33 15.0000000  0  8G29G 2G19G27G28G18G11G16
  23071199.063    10216545.576 5   7926459.317 5         9.750           9.000
  23645469.711    -4901178.060 5  -3734726.442 5        11.750           8.750
  20777023.164    -4222035.048 6  -3271204.266 6        18.750          17.750
  21835540.180   -13422419.886 7 -10409395.685 6        20.750          13.750
  23825739.859    -4011414.583 5  -3079139.128 5        11.750           8.250
  20761029.336     1024156.234 8    804999.396 6        28.750          16.750
  24198922.258    -2162593.114 5  -1614679.410 5         9.750           6.000
  24154125.172    -1302910.017 5   -568733.397 5        10.500           5.750
 93  3 18 20 33 30.0000000  0  8G29G 2G19G27G28G18G11G16
  23078205.914    10253322.479 5   7955116.561 5        10.000           9.250
  23635581.211    -4953162.578 6  -3775233.767 5        12.250           9.000
  20775678.039    -4229088.763 6  -3276700.652 6        19.500          17.250
  21828785.453   -13457880.270 7 -10437027.119 6        20.750          13.750
  23826980.438    -4004887.041 6  -3074052.729 5        12.000           8.250
  20763870.289     1039095.634 8    816640.468 6        28.250          16.750
  24190780.688    -2205370.157 5  -1648012.058 5         9.500           6.000
  24147381.203    -1338334.270 5   -596336.674 5         9.500           5.750
 93  3 18 20 33 45.0000000  0  8G29G 2G19G27G28G18G11G16
  23085213.148    10290158.870 5   7983820.149 5        11.250           9.250
  23625694.477    -5005103.704 6  -3815707.281 5        12.000           9.000
  20774349.086    -4236112.869 6  -3282173.972 6        18.500          17.250
  21822047.250   -13493316.649 7 -10464639.854 6        20.750          13.500
  23828250.922    -3998231.640 6  -3068866.692 5        12.000           8.500
  20766731.547     1054127.269 8    828353.422 6        28.000          16.750
  24182657.797    -2248084.386 5  -1681295.721 5        10.250           5.750
  24140665.961    -1373657.489 5   -623861.219 5         9.000           6.250
 93  3 18 20 34  0.0000000  0  8G29G 2G19G27G28G18G11G16
  23092235.094    10327054.117 5   8012569.618 5        10.750           9.250
  23615815.117    -5056997.343 5  -3856143.793 5        11.500           8.750
  20773020.398    -4243103.643 6  -3287621.324 6        18.750          17.250
  21815311.859   -13528725.278 7 -10492230.957 6        20.250          13.750
  23829539.516    -3991450.252 5  -3063582.489 5        11.250           8.250
  20769607.781     1069251.799 8    840138.757 6        28.250          16.500
  24174542.734    -2290734.347 5  -1714529.344 5        11.000           5.750
  24133953.375    -1408877.381 5   -651305.221 5         9.000           6.250
 93  3 18 20 34 15.0000000  0  8G29G 2G19G27G28G18G11G16
  23099267.258    10364005.507 5   8041362.820 5        11.000           9.000
  23605952.797    -5108844.121 5  -3896543.800 5        11.500           8.750
  20771695.219    -4250059.514 6  -3293041.471 6        18.750          17.250
  21808579.609   -13564107.918 7 -10519801.815 6        21.250          13.750
  23830854.086    -3984544.502 5  -3058201.385 5        11.750           8.000
  20772503.773     1084471.205 7    851998.027 6        27.500          16.500
  24166438.367    -2333319.936 5  -1747712.807 5        10.750           6.000
  24127271.859    -1443993.859 5   -678668.676 5         9.250           6.250
 93  3 18 20 34 30.0000000  0  8G29G 2G19G27G28G18G11G16
  23106304.984    10401009.649 5   8070197.127 5        10.750           9.000
  23596092.078    -5160645.762 5  -3936908.624 5        11.750           8.500
  20770368.227    -4256978.150 6  -3298432.608 6        19.750          17.250
  21801851.492   -13599467.170 7 -10547354.435 6        21.750          14.000
  23832192.508    -3977517.296 5  -3052725.623 5        11.750           7.750
  20775415.297     1099783.326 7    863929.540 6        27.000          16.750
  24158339.992    -2375841.700 5  -1780846.484 5        10.500           6.000
  24120614.234    -1479009.493 5   -705953.542 5         9.000           6.250
 93  3 18 20 34 45.0000000  0  8G29G 2G19G27G28G18G11G16
  23113363.039    10438071.629 5   8099076.512 5        11.000           9.000
  23586239.891    -5212398.180 5  -3977235.107 5        11.750           8.250
  20769067.875    -4263855.166 6  -3303791.311 6        18.250          17.250
  21795125.203   -13634800.930 7 -10574887.208 6        22.500          14.250
  23833553.977    -3970370.525 5  -3047156.720 5        11.500           7.750
  20778349.563     1115191.762 7    875936.090 6        27.250          17.000
  24150262.063    -2418297.466 5  -1813928.788 5        10.500           5.750
  24113966.695    -1513922.199 5   -733158.208 5         9.750           6.000
 93  3 18 20 35  0.0000000  0  8G29G 2G19G27G28G18G11G16
  23120418.211    10475187.913 5   8127998.193 5        10.000           8.750
  23576405.445    -5264107.064 5  -4017527.667 5        11.500           8.250
  20767772.711    -4270695.270 6  -3309121.259 6        18.000          17.250
  21788407.539   -13670113.064 7 -10602403.128 6        22.750          14.250
  23834936.805    -3963110.498 5  -3041499.556 5        11.500           7.750
  20781301.328     1130693.209 7    888015.122 6        27.750          17.000
  24142193.898    -2460690.016 5  -1846961.813 5        10.000           6.000
  24107347.586    -1548734.038 5   -760284.275 5        10.250           6.000
 93  3 18 20 35 15.0000000  0  8G29G 2G19G27G28G18G11G16
  23127494.305    10512358.503 5   8156962.195 5        10.000           9.000
  23566576.836    -5315773.987 5  -4057787.526 5        11.750           8.250
  20766473.805    -4277498.920 6  -3314422.798 6        18.500          17.250
  21781688.406   -13705403.680 7 -10629902.280 6        22.000          14.000
  23836336.898    -3955738.628 5  -3035755.245 5        11.250           8.000
  20784266.188     1146291.441 7    900169.573 6        27.750          17.000
  24134142.813    -2503018.503 5  -1879944.917 5        10.000           6.000
  24100737.000    -1583445.466 5   -787332.103 5         9.500           6.000
 93  3 18 20 35 30.0000000  0  8G29G 2G19G27G28G18G11G16
  23134577.578    10549583.595 5   8185968.677 5        10.250           8.750
  23556746.156    -5367400.361 5  -4098015.791 5        11.250           8.250
  20765174.961    -4284264.808 7  -3319694.904 6        20.000          17.250
  21774975.313   -13740673.550 7 -10657385.265 6        21.500          13.750
  23837754.984    -3948256.753 5  -3029925.225 5        10.250           8.000
  20787255.750     1161989.814 7    912402.055 6        27.750          17.000
  24126095.906    -2545282.193 5  -1912877.540 5        10.000           6.000
  24094149.328    -1618055.949 5   -814301.277 5         8.500           5.750
 93  3 18 20 35 45.0000000  0  8G29G 2G19G27G28G18G11G16
  23141666.797    10586860.954 5   8215015.863 5        10.750           8.750
  23546933.281    -5418984.092 5  -4138210.827 5        11.000           8.250
  20763903.148    -4290989.995 6  -3324935.303 6        18.750          17.250
  21768271.367   -13775920.847 7 -10684850.656 6        21.500          14.000
  23839208.469    -3940667.999 5  -3024011.924 5        11.250           8.250
  20790261.656     1177788.308 7    924712.555 6        27.750          17.000
  24118067.852    -2587479.172 5  -1945758.182 5         9.500           6.000
  24087585.961    -1652566.426 5   -841192.531 5         8.750           5.750
 93  3 18 20 36  0.0000000  0  8G29G 2G19G27G28G18G11G16
  23148778.148    10624188.624 5   8244102.275 5        11.000           8.750
  23537126.023    -5470528.295 5  -4178375.062 5        11.000           8.000
  20762637.227    -4297676.181 6  -3330145.311 6        18.500          17.500
  21761561.547   -13811146.722 7 -10712299.357 6        21.500          14.000
  23840668.625    -3932974.745 5  -3018017.172 5         9.500           8.250
  20793286.547     1193685.109 8    937099.652 6        28.250          17.250
  24110052.547    -2629610.402 5  -1978587.614 5        10.000           5.500
  24081031.742    -1686976.104 5   -868005.221 5         8.000           5.750
 93  3 18 20 36 15.0000000  0  8G29G 2G19G27G28G18G11G16
  23155890.734    10661563.230 5   8273225.250 5        11.500           8.750
  23527319.133    -5522034.188 5  -4218509.439 5        11.500           8.250
  20761371.156    -4304325.220 6  -3335326.379 6        18.750          17.500
  21754867.203   -13846353.465 7 -10739733.151 6        21.000          14.000
  23842149.414    -3925173.869 5  -3011938.586 5         9.500           7.750
  20796331.766     1209680.666 8    949563.706 6        28.250          17.250
  24102049.000    -2671674.778 5  -2011364.925 5         9.750           6.000
  24074494.766    -1721285.033 5   -894739.396 5         8.500           5.750
 93  3 18 20 36 30.0000000  0  8G29G 2G19G27G28G18G11G16
  23163006.570    10698984.897 5   8302384.892 5        11.250           8.500
  23517532.906    -5573502.336 6  -4258614.412 5        12.000           8.250
  20760112.578    -4310936.642 6  -3340478.129 6        19.000          17.500
  21748169.656   -13881542.968 7 -10767153.505 6        20.250          14.000
  23843657.844    -3917263.141 5  -3005774.383 5        10.500           7.750
  20799393.008     1225774.463 8    962104.305 6        28.000          17.250
  24094060.359    -2713671.477 5  -2044089.520 5        10.500           6.000
  24067996.656    -1755489.174 5   -921391.925 5         9.250           6.250
 93  3 18 20 36 45.0000000  0  8G29G 2G19G27G28G18G11G16
  23170136.492    10736453.774 5   8331581.344 5        10.500           8.250
  23507750.234    -5624931.355 6  -4298688.886 5        13.250           8.500
  20758859.148    -4317512.454 6  -3345602.133 6        18.750          17.500
  21741479.844   -13916714.859 7 -10794560.138 6        20.500          14.000
  23845189.781    -3909242.329 5  -2999524.404 5        10.750           7.750
  20802475.156     1241967.012 8    974721.858 6        28.250          17.000
  24086079.930    -2755599.862 5  -2076760.893 5        10.500           5.750
  24061504.547    -1789587.452 5   -947961.975 5         9.750           6.500
 93  3 18 20 37  0.0000000  0  8G29G 2G19G27G28G18G11G16
  23177281.664    10773966.428 5   8360811.896 5        11.000           8.250
  23497967.492    -5676324.519 6  -4338735.427 5        13.250           8.500
  20757601.219    -4324057.997 6  -3350702.549 6        19.250          17.500
  21734789.844   -13951871.682 7 -10821955.033 6        21.250          14.250
  23846729.992    -3901111.401 5  -2993188.592 5        10.000           7.750
  20805578.609     1258258.264 8    987416.315 6        28.250          17.000
  24078110.086    -2797461.357 5  -2109380.108 5        10.250           6.000
  24055043.594    -1823580.854 5   -974450.288 5         9.250           6.500
 93  3 18 20 37 15.0000000  0  8G29G 2G19G27G28G18G11G16
  23184428.141    10811521.487 5   8390075.482 5        10.500           8.000
  23488188.977    -5727683.082 6  -4378755.001 5        12.750           8.500
  20756371.266    -4330571.796 6  -3355778.230 6        19.000          17.250
  21728100.328   -13987012.352 7 -10849337.339 6        21.000          14.000
  23848295.547    -3892867.532 5  -2986764.828 5         9.750           7.750
  20808695.648     1274649.907 7   1000189.002 6        27.500          17.000
  24070160.391    -2839254.915 5  -2141946.444 5        10.250           5.750
  24048590.398    -1857468.718 5  -1000856.373 5         9.000           6.500
 93  3 18 20 37 30.0000000  0  8G29G 2G19G27G28G18G11G16
  23191581.773    10849120.521 5   8419373.331 5        10.250           8.250
  23478426.602    -5779004.898 6  -4418745.939 5        12.500           8.750
  20755130.852    -4337051.899 7  -3360827.661 6        20.250          17.250
  21721410.742   -14022135.123 7 -10876705.697 6        21.000          13.750
  23849891.258    -3884506.118 5  -2980249.437 5        10.500           7.500
  20811831.781     1291145.032 7   1013042.326 6        27.500          16.750
  24062220.094    -2880978.473 5  -2174458.206 5        10.250           6.000
  24042165.555    -1891247.895 5  -1027177.756 5         9.000           6.250
 93  3 18 20 37 45.0000000  0  8G29G 2G19G27G28G18G11G16
  23198737.898    10886759.404 5   8448702.253 5        10.000           8.000
  23468663.320    -5830289.934 6  -4458708.216 5        12.000           9.000
  20753915.031    -4343500.268 6  -3365852.364 6        19.000          17.250
  21714734.602   -14057237.790 7 -10904058.394 6        21.750          14.000
  23851508.023    -3876023.945 5  -2973639.971 5        10.750           7.500
  20814991.625     1307742.549 7   1025975.440 6        27.250          16.750
  24054291.109    -2922632.308 5  -2206915.651 5        10.500           6.250
  24035753.836    -1924918.687 5  -1053414.706 5         8.750           6.250
 93  3 18 20 38  0.0000000  0  8G29G 2G19G27G28G18G11G16
  23205909.867    10924441.692 5   8478064.970 5         9.750           7.750
  23458912.219    -5881537.650 5  -4498641.433 5        11.750           8.750
  20752682.500    -4349916.600 7  -3370852.089 6        20.000          17.500
  21708059.945   -14092316.683 7 -10931392.565 6        21.750          14.000
  23853143.180    -3867416.335 5  -2966932.743 5        10.000           7.500
  20818169.828     1324444.573 8   1038989.989 6        28.000          16.750
  24046373.813    -2964214.157 5  -2239316.992 5         9.750           6.500
  24029370.273    -1958478.108 5  -1079564.843 5         9.000           6.250
 93  3 18 20 38 15.0000000  0  8G29G 2G19G27G28G18G11G16
  23213092.906    10962163.643 5   8507458.605 5        10.250           8.000
  23449177.109    -5932753.938 6  -4538550.130 5        12.750           8.750
  20751476.180    -4356304.942 6  -3375830.018 6        19.250          17.500
  21701391.922   -14127377.148 7 -10958712.382 6        21.750          14.250
  23854798.750    -3858684.710 5  -2960128.906 5        10.000           7.500
  20821365.641     1341247.412 7   1052083.091 6        27.500          16.750
  24038483.523    -3005728.082 5  -2271665.433 5         9.500           6.750
  24023000.648    -1991930.390 5  -1105631.547 5         8.250           6.250
 93  3 18 20 38 30.0000000  0  8G29G 2G19G27G28G18G11G16
  23220279.055    10999931.376 5   8536887.917 5        10.000           7.500
  23439426.648    -5983933.360 6  -4578430.105 5        12.500           8.750
  20750267.336    -4362662.131 6  -3380783.669 6        19.000          17.750
  21694723.102   -14162414.247 7 -10986013.989 6        21.000          14.750
  23856491.352    -3849823.965 5  -2953224.414 5        11.000           7.500
  20824585.781     1358155.262 8   1065258.009 6        28.000          16.750
  24030586.898    -3047169.393 5  -2303957.268 5        10.000           6.750
  24016657.305    -2025271.260 5  -1131611.402 5         8.750           6.500
 93  3 18 20 38 45.0000000  0  8G29G 2G19G27G28G18G11G16
  23227476.453    11037746.181 5   8566353.904 5        10.250           7.500
  23429693.641    -6035077.887 6  -4618282.894 5        12.000           9.000
  20749061.922    -4368988.721 6  -3385713.475 6        18.500          17.750
  21688059.719   -14197427.781 7 -11013297.226 6        21.250          14.750
  23858203.906    -3840838.520 6  -2946222.780 5        12.000           7.750
  20827822.016     1375165.339 7   1078512.595 6        27.500          16.750
  24022718.148    -3088539.489 5  -2336193.636 5        10.750           6.750
  24010336.344    -2058503.790 5  -1157506.837 5         9.250           6.750
 93  3 18 20 39  0.0000000  0  8G29G 2G19G27G28G18G11G16
  23234683.016    11075608.859 5   8595857.192 5        10.750           7.500
  23419968.156    -6086186.424 5  -4658107.639 5        11.750           8.750
  20747854.070    -4375284.887 6  -3390619.578 6        19.000          17.500
  21681399.305   -14232415.774 7 -11040560.568 6        21.500          14.750
  23859938.070    -3831728.650 6  -2939124.190 5        12.000           7.750
  20831078.469     1392277.680 7   1091846.862 6        27.250          16.750
  24014856.531    -3129837.839 5  -2368374.106 5        10.250           6.750
  24004030.195    -2091629.675 5  -1183319.182 5         8.750           6.750
 93  3 18 20 39 15.0000000  0  8G29G 2G19G27G28G18G11G16
  23241894.617    11113518.913 5   8625397.394 5        10.500           7.500
  23410248.633    -6137257.346 5  -4697903.068 5        11.750           8.750
  20746672.211    -4381547.929 6  -3395499.873 6        18.500          17.500
  21674748.750   -14267375.858 7 -11067802.160 6        22.000          14.750
  23861687.555    -3822493.241 5  -2931927.773 5        11.250           7.750
  20834353.930     1409490.853 7   1105259.698 6        27.750          16.500
  24007013.898    -3171064.255 5  -2400498.537 5         9.500           6.500
  23997748.039    -2124648.009 5  -1209047.711 5         8.250           7.000
 93  3 18 20 39 30.0000000  0  8G29G 2G19G27G28G18G11G16
  23249120.547    11151478.650 5   8654976.315 5        10.000           7.500
  23400533.320    -6188289.122 5  -4737667.996 5        11.000           8.500
  20745471.414    -4387776.764 7  -3400353.508 6        20.250          17.500
  21668103.852   -14302306.121 7 -11095020.514 6        22.250          14.500
  23863478.977    -3813133.516 5  -2924634.481 5        11.500           8.000
  20837649.000     1426800.974 8   1118748.085 6        28.000          16.500
  23999179.719    -3212217.829 5  -2432566.194 5         9.750           6.250
  23991476.883    -2157557.739 5  -1234691.602 5         8.000           7.000
 93  3 18 20 39 45.0000000  0  8G29G 2G19G27G28G18G11G16
  23256351.766    11189492.068 5   8684597.057 5         9.500           7.250
  23390840.758    -6239277.509 5  -4777399.116 5        11.500           8.750
  20744313.016    -4393969.155 6  -3405178.743 6        18.500          17.500
  21661463.125   -14337204.042 7 -11122213.683 6        22.750          14.500
  23865280.156    -3803646.002 5  -2917241.611 5        11.500           8.250
  20840960.836     1444210.958 8   1132314.280 6        28.000          16.500
  23991368.703    -3253294.569 5  -2464573.954 5        10.750           6.250
  23985242.102    -2190356.652 5  -1260249.189 5         8.250           6.750
 93  3 18 20 40  0.0000000  0  8G29G 2G19G27G28G18G11G16
  23263597.438    11227557.572 5   8714258.400 5         9.500           7.000
  23381144.797    -6290226.593 5  -4817099.605 5        11.750           8.500
  20743137.469    -4400127.133 6  -3409977.169 6        18.750          17.500
  21654826.289   -14372074.471 7 -11149385.419 6        23.000          14.500
  23867110.820    -3794037.259 5  -2909754.288 5        11.750           8.750
  20844293.297     1461714.942 7   1145953.724 6        27.750          16.500
  23983561.578    -3294297.671 5  -2496524.387 5        10.750           6.250
  23979025.734    -2223049.081 5  -1285723.772 5         8.000           6.500
 93  3 18 20 40 15.0000000  0  8G29G 2G19G27G28G18G11G16
  23270841.914    11265676.898 5   8743961.679 5         9.750           7.000
  23371450.023    -6341137.234 5  -4856770.136 5        11.000           8.500
  20741971.523    -4406248.518 6  -3414747.077 6        19.000          17.500
  21648194.031   -14406920.891 7 -11176538.448 6        23.000          14.750
  23868957.961    -3784314.394 5  -2902178.041 5        11.500           8.500
  20847640.133     1479311.052 7   1159664.954 6        27.250          16.750
  23975766.086    -3335227.152 5  -2528417.437 5        10.000           6.250
  23972822.102    -2255634.057 5  -1311114.634 5         9.250           6.000
 93  3 18 20 40 30.0000000  0  8G29G 2G19G27G28G18G11G16
  23278119.734    11303849.636 5   8773706.574 5        10.500           7.000
  23361769.836    -6392006.548 5  -4896408.475 5        10.250           8.750
  20740801.422    -4412331.159 7  -3419486.795 6        20.750          17.250
  21641568.102   -14441741.603 7 -11203671.444 6        22.750          14.750
  23870828.617    -3774478.502 5  -2894513.713 5        10.750           8.500
  20851006.023     1497000.011 7   1173448.527 6        26.500          16.750
  23968003.180    -3376081.566 5  -2560252.003 5        10.250           6.750
  23966640.320    -2288109.124 5  -1336419.876 5         9.000           5.500
 93  3 18 20 40 45.0000000  0  8G29G 2G19G27G28G18G11G16
  23285388.266    11342075.409 5   8803492.798 5        10.500           7.000
  23352103.938    -6442834.411 5  -4936014.512 5        10.250           8.750
  20739668.172    -4418373.717 6  -3424195.264 6        19.000          17.250
  21634947.211   -14476537.326 7 -11230784.963 6        23.250          14.750
  23872720.172    -3764531.074 5  -2886762.483 5        10.250           8.750
  20854390.711     1514782.133 7   1187304.697 6        26.750          16.750
  23960242.352    -3416860.316 5  -2592027.585 5        10.500           7.000
  23960485.367    -2320472.620 5  -1361638.154 5        10.000           5.250
 93  3 18 20 41  0.0000000  0  8G29G 2G19G27G28G18G11G16
  23292668.578    11380352.425 5   8833318.946 5        10.250           7.000
  23342434.789    -6493618.585 5  -4975586.510 5        10.250           8.750
  20738508.219    -4424373.151 6  -3428870.164 6        19.750          17.250
  21628329.281   -14511308.251 7 -11257879.158 6        23.500          14.750
  23874629.148    -3754473.752 5  -2878925.615 5        10.000           8.500
  20857793.711     1532658.982 7   1201234.687 6        27.500          16.500
  23952493.219    -3457562.620 5  -2623743.606 5        10.000           7.250
  23954345.531    -2352724.921 5  -1386769.821 5         9.000           5.500
 93  3 18 20 41 15.0000000  0  8G29G 2G19G27G28G18G11G16
  23299969.852    11418677.985 5   8863182.915 5        10.250           7.000
  23332786.609    -6544360.432 5  -5015125.519 5        11.250           8.750
  20737385.539    -4430330.929 6  -3433512.577 6        18.750          17.000
  21621717.398   -14546055.769 7 -11284955.120 6        23.000          14.750
  23876560.664    -3744305.596 5  -2871002.381 5        10.250           8.250
  20861211.031     1550631.238 7   1215239.014 6        27.250          16.500
  23944759.469    -3498189.397 5  -2655400.784 5        10.250           7.250
  23948234.344    -2384866.674 5  -1411815.306 5         9.500           5.750
 93  3 18 20 41 30.0000000  0  8G29G 2G19G27G28G18G11G16
  23307271.844    11457052.312 5   8893084.897 5         9.750           7.250
  23323135.234    -6595061.915 6  -5054633.067 5        12.250           8.750
  20736269.945    -4436246.751 6  -3438122.307 6        18.750          17.250
  21615108.875   -14580782.469 7 -11312014.866 6        22.750          14.750
  23878525.508    -3734027.506 5  -2862993.474 5         9.500           8.500
  20864649.289     1568697.376 7   1229316.500 6        27.000          16.500
  23937047.094    -3538739.916 5  -2686998.532 5        11.000           7.250
  23942129.695    -2416900.095 5  -1436776.387 5         8.500           5.750
 93  3 18 20 41 45.0000000  0  8G29G 2G19G27G28G18G11G16
  23314584.531    11495478.305 5   8923027.117 5         9.000           7.000
  23313498.422    -6645723.219 6  -5094109.306 5        13.000           8.750
  20735145.688    -4442118.192 6  -3442697.452 6        19.000          17.000
  21608501.578   -14615488.022 7 -11339058.116 6        22.500          15.000
  23880502.367    -3723638.527 5  -2854898.167 5         8.750           8.500
  20868106.391     1586860.814 7   1243469.798 6        27.000          16.500
  23929346.961    -3579211.693 5  -2718534.925 5        11.250           7.250
  23936050.148    -2448824.816 5  -1461652.753 5         8.500           5.500
 93  3 18 20 42  0.0000000  0  8G29G 2G19G27G28G18G11G16
  23321899.117    11533954.097 5   8953008.152 5         8.500           7.250
  23303860.305    -6696343.241 6  -5133553.395 5        13.500           9.000
  20734033.227    -4447946.022 6  -3447238.613 6        19.750          17.000
  21601903.914   -14650174.295 7 -11366086.350 6        23.250          15.000
  23882500.227    -3713140.399 5  -2846717.822 5         8.750           8.500
  20871581.398     1605122.548 7   1257699.696 6        27.000          16.500
  23921658.602    -3619605.540 5  -2750010.580 5        10.750           7.250
  23930006.078    -2480640.675 5  -1486444.303 5         8.500           5.500
 93  3 18 20 42 15.0000000  0  8G29G 2G19G27G28G18G11G16
  23329234.875    11572479.118 5   8983027.554 5         8.250           6.750
  23294236.914    -6746919.649 6  -5172963.480 5        12.750           9.000
  20732937.820    -4453730.079 6  -3451745.674 6        19.000          17.250
  21595312.313   -14684839.723 7 -11393098.344 6        23.750          15.250
  23884517.313    -3702535.548 5  -2838454.309 5         9.000           8.500
  20875075.977     1623479.745 7   1272003.984 6        27.250          16.500
  23913989.039    -3659921.851 5  -2781425.832 5        11.250           7.000
  23923973.781    -2512348.168 5  -1511151.435 5         8.000           5.250
 93  3 18 20 42 30.0000000  0  8G29G 2G19G27G28G18G11G16
  23336572.375    11611050.846 5   9013083.342 5         7.750           7.000
  23284624.477    -6797450.504 6  -5212338.084 5        13.250           9.250
  20731838.852    -4459472.132 6  -3456219.982 6        19.250          17.250
  21588714.188   -14719483.200 7 -11420093.251 6        23.500          15.250
  23886564.336    -3691819.530 5  -2830104.157 5        10.000           8.500
  20878587.391     1641934.322 8   1286384.142 6        28.000          16.500
  23906333.992    -3700160.500 5  -2812780.541 5        10.750           7.250
  23917954.258    -2543948.809 5  -1535775.275 5         8.250           5.500
 93  3 18 20 42 45.0000000  0  8G29G 2G19G27G28G18G11G16
  23343925.352    11649669.260 5   9043175.504 5         8.000           6.750
  23275016.641    -6847933.657 6  -5251675.513 5        13.500           9.500
  20730757.008    -4465174.709 6  -3460663.542 6        18.000          17.250
  21582124.672   -14754102.866 7 -11447069.583 6        23.500          15.500
  23888618.734    -3680989.280 5  -2821664.990 5        10.000           8.250
  20882117.914     1660486.158 8   1300840.101 6        28.500          16.250
  23898687.477    -3740320.519 5  -2844073.977 5        10.750           7.250
  23911964.672    -2575443.807 5  -1560316.804 5         8.000           5.750
 93  3 18 20 43  0.0000000  0  8G29G 2G19G27G28G18G11G16
  23351277.367    11688332.687 5   9073302.730 5         8.500           6.250
  23265418.219    -6898369.164 6  -5290975.807 5        13.750           9.750
  20729674.617    -4470839.546 6  -3465077.705 6        18.750          17.250
  21575544.633   -14788699.834 7 -11474028.230 6        24.000          15.750
  23890699.961    -3670047.725 5  -2813139.093 5         9.500           8.250
  20885666.484     1679132.567 8   1315369.748 6        28.000          16.500
  23891059.047    -3780403.467 5  -2875307.384 5        10.250           7.250
  23905989.242    -2606836.892 5  -1584778.930 5         9.250           6.250
 93  3 18 20 43 15.0000000  0  8G29G 2G19G27G28G18G11G16
  23358643.086    11727046.053 5   9103468.888 5         8.500           6.250
  23255825.625    -6948753.154 6  -5330235.966 5        13.500          10.000
  20728610.977    -4476466.055 6  -3469461.999 6        18.250          17.250
  21568968.031   -14823267.741 7 -11500964.234 6        24.000          15.750
  23892792.781    -3658989.281 5  -2804522.149 5         9.000           8.500
  20889233.109     1697876.617 8   1329975.475 6        28.000          16.500
  23883450.953    -3820405.861 5  -2906478.008 5         9.500           7.750
  23900036.133    -2638124.142 5  -1609158.572 5         9.500           6.250
 93  3 18 20 43 30.0000000  0  8G29G 2G19G27G28G18G11G16
  23366024.328    11765808.333 5   9133673.169 5         9.500           6.250
  23246252.203    -6999089.687 6  -5369459.145 5        13.000           9.750
  20727543.789    -4482058.500 6  -3473819.745 6        19.000          17.250
  21562390.305   -14857807.736 7 -11527878.489 6        23.750          15.750
  23894931.906    -3647817.527 5  -2795816.884 5        10.000           8.750
  20892815.336     1716712.651 7   1344652.882 6        27.000          16.500
  23875851.859    -3860329.618 5  -2937587.336 5        11.250           7.500
  23894105.813    -2669305.869 5  -1633455.996 5        10.000           6.250
 93  3 18 20 43 45.0000000  0  8G29G 2G19G27G28G18G11G16
  23373409.039    11804620.120 5   9163915.996 5         9.250           6.500
  23236681.883    -7049377.777 6  -5408644.568 5        12.500           9.750
  20726488.523    -4487619.408 6  -3478152.918 6        18.500          17.250
  21555824.492   -14892320.154 7 -11554771.259 6        23.750          15.750
  23897080.242    -3636535.870 5  -2787025.988 5         9.750           8.750
  20896418.531     1735639.408 7   1359400.983 6        27.000          16.500
  23868271.703    -3900175.795 5  -2968636.252 5        11.250           7.500
  23888195.141    -2700380.454 5  -1657669.946 5         9.750           6.250
 93  3 18 20 44  0.0000000  0  8G29G 2G19G27G28G18G11G16
  23380812.281    11843484.663 5   9194199.941 5         8.750           6.750
  23227120.047    -7099611.351 6  -5447787.517 5        12.750           9.750
  20725429.727    -4493145.405 6  -3482458.884 6        19.250          17.250
  21549264.813   -14926799.171 7 -11581637.997 6        23.000          15.750
  23899246.352    -3625139.036 5  -2778145.332 5         9.500           8.500
  20900038.898     1754662.800 7   1374224.377 6        27.250          16.500
  23860703.594    -3939940.750 5  -2999621.845 5        11.500           7.750
  23882296.563    -2731339.624 5  -1681793.919 5         9.250           6.250
 93  3 18 20 44 15.0000000  0  8G29G 2G19G27G28G18G11G16
  23388204.008    11882399.705 5   9224523.245 5         7.500           6.500
  23217577.266    -7149789.030 6  -5486886.924 5        13.500           9.750
  20724392.016    -4498636.288 6  -3486737.490 6        18.750          17.250
  21542712.992   -14961242.560 7 -11608476.978 6        23.000          15.750
  23901434.547    -3613624.104 5  -2769172.656 5         9.000           8.500
  20903679.133     1773782.914 7   1389123.140 6        27.500          16.500
  23853150.492    -3979623.116 5  -3030543.077 5        11.500           7.500
  23876431.297    -2762182.439 5  -1705827.235 5         9.000           6.000
 93  3 18 20 44 30.0000000  0  8G29G 2G19G27G28G18G11G16
  23395630.547    11921362.850 5   9254884.032 5         8.500           6.500
  23208034.313    -7199916.026 6  -5525946.824 5        12.750           9.500
  20723345.961    -4504094.981 6  -3490991.017 6        19.250          17.250
  21536165.266   -14995651.655 7 -11635289.241 6        23.750          16.000
  23903645.469    -3601990.944 5  -2760107.855 5         9.000           8.750
  20907332.773     1793000.398 7   1404097.775 6        27.250          16.250
  23845616.617    -4019223.611 5  -3061400.517 5        11.500           7.000
  23870582.273    -2792909.972 5  -1729770.739 5         9.250           5.750
 93  3 18 20 44 45.0000000  0  8G29G 2G19G27G28G18G11G16
  23403047.641    11960372.841 5   9285281.308 5         8.250           6.750
  23198504.977    -7249997.125 6  -5564970.965 5        13.250           9.500
  20722322.078    -4509524.552 6  -3495221.856 6        18.500          17.500
  21529618.570   -15030028.874 7 -11662076.660 6        24.000          16.000
  23905890.094    -3590240.863 5  -2750951.964 5         9.250           8.500
  20911011.305     1812314.092 7   1419147.373 6        26.500          16.500
  23838090.766    -4058742.806 5  -3092194.586 5        11.000           7.750
  23864757.367    -2823521.154 5  -1753623.589 5         9.250           5.750
 93  3 18 20 45  0.0000000  0  8G29G 2G19G27G28G18G11G16
  23410480.031    11999430.998 5   9315716.115 5         8.500           6.750
  23188978.609    -7300030.116 6  -5603957.622 5        13.000           9.500
  20721285.789    -4514921.097 6  -3499426.949 6        19.000          17.500
  21523080.680   -15064372.644 7 -11688838.011 6        23.250          16.250
  23908146.086    -3578375.296 5  -2741706.079 5         9.250           8.250
  20914704.500     1831725.704 7   1434273.275 6        27.000          16.750
  23830589.133    -4098177.747 5  -3122923.004 5         9.500           7.500
  23858953.961    -2854010.930 5  -1777381.816 5        10.250           5.750
 93  3 18 20 45 15.0000000  0  8G29G 2G19G27G28G18G11G16
  23417924.180    12038538.695 5   9346189.516 5         8.250           6.750
  23179462.508    -7350013.890 6  -5642905.928 5        12.500           9.500
  20720274.648    -4520282.076 6  -3503604.341 6        18.750          17.500
  21516553.375   -15098679.790 7 -11715570.830 6        23.500          16.250
  23910430.383    -3566390.147 5  -2732366.968 5         9.750           8.000
  20918418.617     1851237.926 7   1449477.581 6        26.500          16.750
  23823098.359    -4137525.398 5  -3153583.409 5         9.750           7.500
  23853180.625    -2884372.772 5  -1801040.373 5        10.250           5.750
 93  3 18 20 45 30.0000000  0  8G29G 2G19G27G28G18G11G16
  23425372.258    12077686.919 5   9376694.502 5         8.250           6.500
  23169965.523    -7399956.558 6  -5681822.209 5        13.000           9.500
  20719255.664    -4525614.112 6  -3507759.173 6        19.000          17.250
  21510026.641   -15132962.190 7 -11742284.368 6        23.500          16.000
  23912726.922    -3554292.740 5  -2722940.406 5         9.500           7.750
  20922149.359     1870845.198 7   1464755.943 6        27.000          16.750
  23815630.359    -4176792.813 5  -3184181.313 5        10.000           7.500
  23847421.711    -2914612.879 5  -1824604.066 5        10.500           5.750
 93  3 18 20 45 45.0000000  0  8G29G 2G19G27G28G18G11G16
  23432826.102    12116873.261 5   9407229.198 5         8.250           6.500
  23160470.844    -7449854.590 6  -5720703.701 5        13.500           9.500
  20718249.117    -4530914.170 6  -3511889.089 6        18.500          17.250
  21503511.453   -15167222.171 7 -11768980.430 6        23.250          16.000
  23915055.234    -3542083.361 5  -2713426.606 5         9.500           8.250
  20925897.250     1890549.317 7   1480109.775 6        27.750          16.750
  23808173.469    -4215978.549 5  -3214715.549 5        10.250           7.500
  23841693.781    -2944731.001 5  -1848072.712 5        10.250           6.000
 93  3 18 20 46  0.0000000  0  8G29G 2G19G27G28G18G11G16
  23440297.273    12156093.830 5   9437790.559 5         8.000           6.750
  23150984.969    -7499706.195 6  -5759549.025 5        12.750           9.250
  20717242.531    -4536179.887 6  -3515992.246 6        19.250          17.250
  21497001.914   -15201462.001 7 -11795660.794 6        24.250          16.000
  23917398.758    -3529758.708 5  -2703822.993 5        10.500           8.000
  20929663.914     1910352.700 7   1495540.957 6        27.250          16.500
  23800731.063    -4255081.332 5  -3245185.150 5        10.000           7.250
  23835984.172    -2974728.587 5  -1871447.444 5         9.000           6.250
 93  3 18 20 46 15.0000000  0  8G29G 2G19G27G28G18G11G16
  23447763.305    12195349.253 5   9468379.078 5         8.500           6.500
  23141500.977    -7549508.818 6  -5798356.182 5        13.000           9.250
  20716249.156    -4541407.370 6  -3520065.602 6        18.500          17.250
  21490486.320   -15235679.338 7 -11822323.632 6        23.750          16.000
  23919764.188    -3517316.693 5  -2694127.934 5        10.750           8.000
  20933452.664     1930257.274 7   1511050.988 6        27.000          17.000
  23793303.102    -4294096.799 5  -3275586.696 5         9.750           7.250
  23830296.672    -3004604.910 5  -1894727.661 5         9.000           6.250
 93  3 18 20 46 30.0000000  0  8G29G 2G19G27G28G18G11G16
  23455232.781    12234638.532 5   9498993.972 5         8.750           6.250
  23132033.898    -7599267.255 6  -5837128.909 5        12.750           9.250
  20715264.266    -4546601.697 6  -3524113.129 6        18.000          17.000
  21483981.555   -15269879.133 7 -11848972.798 6        23.000          15.750
  23922151.156    -3504762.277 5  -2684345.266 5        11.250           7.500
  20937260.195     1950257.712 7   1526635.718 6        27.250          17.000
  23785902.031    -4333027.331 5  -3305922.052 5        11.000           7.500
  23824636.383    -3034365.208 5  -1917917.467 5         9.500           6.250
 93  3 18 20 46 45.0000000  0  8G29G 2G19G27G28G18G11G16
  23462718.523    12273966.434 5   9529638.967 5         9.000           6.250
  23122575.922    -7648978.419 6  -5875864.799 5        12.500           9.250
  20714280.492    -4551762.284 6  -3528134.369 6        19.500          17.000
  21477469.000   -15304061.107 7 -11875608.084 6        22.000          15.750
  23924566.758    -3492095.949 5  -2674475.406 5        10.500           7.750
  20941083.266     1970353.940 7   1542295.090 6        27.250          17.250
  23778508.898    -4371871.642 5  -3336190.226 5        10.500           7.000
  23818986.977    -3064007.383 5  -1941015.242 5         9.250           6.000
 93  3 18 20 47  0.0000000  0  8G29G 2G19G27G28G18G11G16
  23470216.680    12313332.504 5   9560313.711 5         9.500           6.250
  23113129.172    -7698638.885 6  -5914561.186 5        12.500           9.500
  20713293.750    -4556884.866 7  -3532125.988 6        21.000          17.000
  21470969.203   -15338224.793 7 -11902229.113 6        21.750          15.750
  23926995.336    -3479317.083 5  -2664517.851 5        11.000           7.750
  20944923.648     1990544.603 7   1558028.049 6        26.500          17.250
  23771133.578    -4410628.889 5  -3366390.572 5        11.750           7.250
  23813369.219    -3093531.040 5  -1964020.650 5         9.500           5.750
 93  3 18 20 47 15.0000000  0  8G29G 2G19G27G28G18G11G16
  23477714.398    12352735.509 5   9591017.219 5         9.250           5.750
  23103684.828    -7748247.760 6  -5953217.362 5        12.500          10.000
  20712339.000    -4561970.570 6  -3536088.875 6        18.750          17.000
  21464478.031   -15372370.647 7 -11928836.252 6        23.750          16.000
  23929449.828    -3466423.398 5  -2654470.828 5        11.250           7.250
  20948786.078     2010829.009 7   1573834.053 6        26.250          17.250
  23763777.211    -4449300.046 5  -3396523.829 5        11.500           7.250
  23807785.328    -3122938.514 5  -1986935.559 5         9.500           5.750
 93  3 18 20 47 30.0000000  0  8G29G 2G19G27G28G18G11G16
  23485218.156    12392180.617 5   9621753.534 5         9.250           6.000
  23094258.547    -7797803.936 6  -5991832.474 5        12.500          10.250
  20711381.664    -4567016.426 6  -3540020.702 6        18.250          17.000
  21457979.398   -15406497.276 7 -11955428.405 6        23.750          16.000
  23931924.945    -3453410.627 5  -2644331.007 5        11.000           7.000
  20952663.523     2031208.367 7   1589714.038 6        26.250          17.000
  23756433.055    -4487882.486 6  -3426587.975 5        12.000           7.500
  23802205.734    -3152232.630 5  -2009762.118 5        10.000           5.750
 93  3 18 20 47 45.0000000  0  8G29G 2G19G27G28G18G11G16
  23492731.656    12431665.946 5   9652521.198 5         9.000           6.000
  23084835.234    -7847313.031 6  -6030410.919 5        13.250          10.250
  20710426.773    -4572025.287 6  -3543923.710 6        18.250          16.750
  21451489.406   -15440608.115 7 -11982008.263 6        23.250          16.500
  23934418.773    -3440282.874 5  -2634101.584 5        10.000           7.250
  20956557.961     2051678.879 7   1605665.065 6        26.250          17.000
  23749102.664    -4526379.708 6  -3456585.712 5        12.000           7.250
  23796645.320    -3181420.634 5  -2032505.987 5        10.500           6.000
 93  3 18 20 48  0.0000000  0  8G29G 2G19G27G28G18G11G16
  23500259.742    12471198.055 5   9683325.327 5         9.000           6.250
  23075421.313    -7896773.963 6  -6068951.806 5        13.250          10.500
  20709471.039    -4576995.821 6  -3547796.858 6        19.250          16.750
  21445001.000   -15474695.645 7 -12008569.955 6        23.250          16.500
  23936944.813    -3427035.323 5  -2623778.833 5        10.750           7.000
  20960472.461     2072240.897 7   1621687.386 6        26.000          16.750
  23741797.570    -4564786.900 6  -3486513.288 5        12.000           7.250
  23791118.938    -3210497.916 5  -2055163.590 5        10.000           5.750
 93  3 18 20 48 15.0000000  0  8G29G 2G19G27G28G18G11G16
  23507783.211    12510779.162 5   9714167.635 5         8.000           5.750
  23066023.016    -7946190.148 6  -6107457.828 5        14.000          10.750
  20708539.313    -4581930.308 6  -3551641.911 6        18.000          16.750
  21438523.016   -15508757.755 7 -12035111.830 6        23.750          16.500
  23939487.867    -3413671.259 5  -2613365.276 5        10.500           7.250
  20964405.063     2092892.970 7   1637779.879 6        26.250          16.750
  23734504.516    -4603104.969 6  -3516371.425 5        12.500           7.250
  23785598.086    -3239464.886 5  -2077735.209 5         9.250           6.000
 93  3 18 20 48 30.0000000  0  8G29G 2G19G27G28G18G11G16
  23515327.484    12550412.123 5   9745050.336 5         7.500           5.500
  23056625.039    -7995561.553 6  -6145928.970 5        14.000          10.500
  20707615.453    -4586830.873 6  -3555460.532 6        18.250          17.000
  21432045.516   -15542791.955 7 -12061631.964 6        24.000          16.250
  23942050.898    -3400190.752 5  -2602860.982 5        11.500           7.500
  20968349.367     2113636.704 7   1653943.804 6        26.250          17.000
  23727226.953    -4641333.719 5  -3546159.953 5        11.000           7.250
  23780113.117    -3268319.901 5  -2100219.617 5         9.750           6.250
 93  3 18 20 48 45.0000000  0  8G29G 2G19G27G28G18G11G16
  23522885.914    12590096.740 5   9775973.269 5         8.250           5.750
  23047244.188    -8044888.265 6  -6184365.279 5        14.750          10.250
  20706683.563    -4591697.017 6  -3559252.335 6        18.000          17.250
  21425573.891   -15576796.124 7 -12088128.698 6        24.000          16.000
  23944636.258    -3386591.925 5  -2592264.498 5        11.500           7.250
  20972314.422     2134473.632 7   1670180.341 6        26.250          17.000
  23719968.703    -4679473.376 5  -3575879.054 5        11.000           7.250
  23774647.281    -3297059.617 5  -2122614.204 5         9.000           6.500
 93  3 18 20 49  0.0000000  0  8G29G 2G19G27G28G18G11G16
  23530444.438    12629830.822 5   9806934.764 5         8.250           5.750
  23037862.406    -8094169.982 6  -6222766.530 5        14.250          10.500
  20705766.016    -4596525.987 6  -3563015.166 6        18.250          17.250
  21419111.656   -15610770.034 7 -12114601.850 6        23.500          15.750
  23947246.516    -3372876.725 5  -2581577.354 5        11.500           7.500
  20976298.680     2155404.836 7   1686490.335 6        26.500          17.000
  23712730.695    -4717524.015 5  -3605528.798 5        11.500           6.500
  23769197.883    -3325684.010 5  -2144918.897 5         9.750           6.500
 93  3 18 20 49 15.0000000  0  8G29G 2G19G27G28G18G11G16
  23538008.813    12669613.496 5   9837934.109 5         7.500           5.500
  23028484.648    -8143407.480 6  -6261133.342 5        14.000          10.000
  20704850.727    -4601316.278 6  -3566747.855 6        18.250          17.500
  21412647.898   -15644711.335 7 -12141049.594 6        23.000          15.750
  23949889.789    -3359044.756 6  -2570799.209 5        12.250           7.000
  20980299.602     2176433.251 7   1702876.085 6        26.250          17.000
  23705512.852    -4755483.688 6  -3635107.671 5        12.000           7.000
  23763773.367    -3354193.213 5  -2167133.843 5        10.500           6.500
 93  3 18 20 49 30.0000000  0  8G29G 2G19G27G28G18G11G16
  23545585.875    12709445.070 4   9868971.587 5         6.750           5.500
  23019123.805    -8192602.923 6  -6299467.367 5        14.250           9.750
  20703944.000    -4606069.153 6  -3570451.396 6        19.000          17.500
  21406193.906   -15678622.957 7 -12167474.208 6        23.250          15.750
  23952538.203    -3345101.181 6  -2559934.080 5        12.000           7.000
  20984318.250     2197559.250 7   1719337.883 6        26.500          17.000
  23698305.047    -4793353.295 6  -3664616.356 5        12.000           7.000
  23758370.688    -3382589.133 5  -2189260.515 5         9.500           6.500
 93  3 18 20 49 45.0000000  0  8G29G 2G19G27G28G18G11G16
  23553177.734    12749325.556 5   9900047.121 5         7.500           5.250
  23009779.203    -8241755.569 6  -6337768.053 5        14.250           9.250
  20703051.828    -4610782.678 6  -3574124.266 6        18.000          17.500
  21399749.508   -15712505.475 7 -12193876.155 6        22.750          16.000
  23955214.797    -3331049.424 6  -2548984.686 5        12.000           7.250
  20988358.203     2218785.997 7   1735878.169 6        27.000          17.250
  23691111.859    -4831131.479 5  -3694053.812 5        11.250           6.750
  23752988.383    -3410870.699 5  -2211298.083 5         8.500           6.500
 93  3 18 20 50  0.0000000  0  8G29G 2G19G27G28G18G11G16
  23560781.875    12789246.785 4   9931154.465 5         6.750           5.250
  23000432.516    -8290866.888 6  -6376036.543 5        14.500           9.250
  20702150.328    -4615464.618 6  -3577772.534 6        19.000          17.500
  21393304.453   -15746361.809 7 -12220257.688 6        21.750          16.250
  23957903.758    -3316896.703 5  -2537956.610 5        11.500           7.000
  20992414.328     2240108.857 7   1752493.369 6        27.000          17.000
  23683942.266    -4868822.893 6  -3723423.665 5        12.000           7.000
  23747629.383    -3439039.371 5  -2233247.654 5         9.500           6.500
 93  3 18 20 50 15.0000000  0  8G29G 2G19G27G28G18G11G16
  23568383.797    12829212.645 4   9962296.579 5         7.000           5.250
  22991094.406    -8339928.124 6  -6414266.005 5        14.750           9.250
  20701278.742    -4620106.071 6  -3581389.244 6        18.250          17.500
  21386870.305   -15780186.867 7 -12246614.844 6        22.250          16.500
  23960619.336    -3302638.359 5  -2526846.225 5        11.750           7.000
  20996491.055     2261536.653 7   1769190.310 6        26.000          17.250
  23676785.039    -4906420.943 5  -3752720.755 5        11.500           7.250
  23742291.047    -3467087.281 5  -2255103.152 5        11.000           6.250
 93  3 18 20 50 30.0000000  0  8G29G 2G19G27G28G18G11G16
  23575994.867    12869223.758 5   9993473.949 5         7.500           5.250
  22981769.055    -8388933.854 6  -6452452.234 5        13.750           9.250
  20700390.141    -4624702.471 6  -3584970.854 6        19.500          17.250
  21380441.234   -15813979.847 7 -12272947.009 6        23.000          16.500
  23963349.984    -3288269.557 6  -2515649.755 5        12.000           6.750
  21000592.273     2283075.528 7   1785973.820 6        25.250          16.750
  23669649.422    -4943922.769 5  -3781942.873 5        11.500           7.250
  23736971.469    -3495011.429 5  -2276862.210 5        11.000           6.000
 93  3 18 20 50 45.0000000  0  8G29G 2G19G27G28G18G11G16
  23583615.945    12909275.525 4  10024682.974 5         6.750           5.250
  22972446.625    -8437888.467 6  -6490598.608 5        14.250           9.250
  20699535.133    -4629255.479 6  -3588518.645 6        18.750          17.250
  21374011.359   -15847745.348 7 -12299257.761 6        22.750          16.500
  23966103.680    -3273792.757 6  -2504369.155 5        12.250           7.000
  21004709.023     2304719.983 7   1802839.604 6        25.750          16.750
  23662528.211    -4981331.694 5  -3811092.613 5        11.250           7.000
  23731687.352    -3522816.833 5  -2298528.743 5        10.500           6.000
 93  3 18 20 51  0.0000000  0  8G29G 2G19G27G28G18G11G16
  23591245.766    12949363.060 4  10055919.870 5         6.500           5.000
  22963143.180    -8486797.832 6  -6528709.730 5        14.000           9.250
  20698680.305    -4633769.239 6  -3592035.857 6        18.750          17.750
  21367596.078   -15881490.107 7 -12325552.363 6        22.750          16.250
  23968883.391    -3259213.663 6  -2493008.833 5        12.000           7.250
  21008846.734     2326462.456 7   1819781.757 6        26.250          16.500
  23655431.445    -5018652.616 5  -3840173.759 5        11.750           7.250
  23726413.297    -3550511.652 5  -2320109.100 5        10.000           6.000
 93  3 18 20 51 15.0000000  0  8G29G 2G19G27G28G18G11G16
  23598878.141    12989488.649 4  10087186.429 5         6.750           5.500
  22953846.047    -8535658.061 6  -6566782.578 5        14.250           9.500
  20697825.359    -4638240.416 6  -3595519.887 6        18.750          17.500
  21361172.016   -15915210.948 7 -12351828.317 6        22.000          16.250
  23971678.680    -3244527.343 6  -2481564.959 5        12.500           7.250
  21013003.648     2348305.028 7   1836801.919 6        26.500          16.750
  23648346.617    -5055880.599 6  -3869182.495 5        12.500           7.500
  23721162.172    -3578093.439 5  -2341601.413 5         9.000           6.000
 93  3 18 20 51 30.0000000  0  8G29G 2G19G27G28G18G11G16
  23606525.359    13029655.281 4  10118484.942 5         6.250           5.500
  22944562.563    -8584465.261 6  -6604814.081 5        14.750           9.500
  20696971.906    -4642668.772 6  -3598970.546 6        19.500          17.500
  21354765.031   -15948905.392 7 -12378083.707 6        21.500          16.000
  23974490.000    -3229729.292 6  -2470034.028 5        12.250           7.000
  21017181.953     2370247.931 7   1853900.257 6        26.750          17.000
  23641278.273    -5093012.729 6  -3898116.535 5        13.500           7.250
  23715936.844    -3605558.117 5  -2363002.433 5         9.250           6.250
 93  3 18 20 51 45.0000000  0  8G29G 2G19G27G28G18G11G16
  23614179.445    13069860.642 4  10149813.655 5         6.500           5.250
  22935281.367    -8633220.506 6  -6642805.108 5        14.500          10.000
  20696151.148    -4647057.329 6  -3602390.194 6        18.250          17.500
  21348359.719   -15982574.611 7 -12404319.440 6        22.000          16.000
  23977332.258    -3214818.601 5  -2458415.322 5        11.500           7.000
  21021375.367     2392287.522 7   1871073.938 6        27.250          16.750
  23634228.266    -5130051.298 6  -3926977.681 5        12.500           7.250
  23710736.625    -3632906.153 5  -2384312.570 5         9.500           6.000
 93  3 18 20 52  0.0000000  0  8G29G 2G19G27G28G18G11G16
  23621842.828    13110105.114 4  10181172.864 5         7.000           5.750
  22926016.039    -8681922.098 6  -6680754.320 5        15.000           9.750
  20695304.000    -4651405.309 7  -3605778.229 6        20.000          17.250
  21341951.203   -16016213.395 7 -12430531.453 6        20.750          16.000
  23980189.992    -3199790.789 5  -2446705.329 5        11.250           6.750
  21025589.453     2414422.243 7   1888321.744 6        27.500          17.000
  23627199.141    -5166995.061 5  -3955764.962 5        11.000           7.500
  23705552.297    -3660135.389 5  -2405530.146 5        10.000           6.000
 93  3 18 20 52 15.0000000  0  8G29G 2G19G27G28G18G11G16
  23629508.773    13150388.432 4  10212562.307 5         6.750           5.750
  22916755.945    -8730569.782 6  -6718661.540 5        14.750          10.000
  20694499.461    -4655712.994 6  -3609134.863 6        18.500          17.250
  21335552.953   -16049819.637 7 -12456718.099 6        21.000          16.000
  23983065.930    -3184643.883 5  -2434902.592 5        10.000           7.000
  21029815.906     2436649.769 7   1905641.871 6        27.500          17.000
  23620186.180    -5203844.142 5  -3984478.435 5        11.750           7.250
  23700395.797    -3687243.830 5  -2426653.607 5        10.000           6.250
 93  3 18 20 52 30.0000000  0  8G29G 2G19G27G28G18G11G16
  23637180.273    13190717.058 4  10243987.100 5         7.250           5.250
  22907518.695    -8779160.542 6  -6756524.411 5        15.500          10.250
  20693684.141    -4659977.015 6  -3612457.467 6        18.250          17.250
  21329167.422   -16083390.919 7 -12482877.515 6        21.500          15.750
  23985970.023    -3169374.300 5  -2423004.246 5        10.750           7.000
  21034063.945     2458972.049 7   1923035.830 6        27.250          16.750
  23613193.156    -5240595.532 5  -4013115.812 5        11.750           7.250
  23695260.766    -3714229.392 5  -2447681.318 5        10.000           6.500
 93  3 18 20 52 45.0000000  0  8G29G 2G19G27G28G18G11G16
  23644857.656    13231090.758 4  10275446.981 5         7.250           5.250
  22898273.313    -8827695.054 6  -6794343.444 5        15.000          10.000
  20692885.844    -4664202.688 6  -3615750.200 6        18.500          17.250
  21322788.219   -16116926.551 7 -12509009.150 6        22.000          15.750
  23988904.547    -3153982.308 5  -2411010.490 5        10.500           6.750
  21038330.875     2481386.030 7   1940501.237 6        27.250          16.750
  23606221.625    -5277249.357 5  -4041677.176 5        11.250           7.250
  23690147.000    -3741092.580 5  -2468613.659 5        10.000           6.750
 93  3 18 20 53  0.0000000  0  8G29G 2G19G27G28G18G11G16
  23652553.484    13271507.561 5  10306940.466 5         7.500           5.500
  22889047.813    -8876175.394 6  -6832120.263 5        15.250          10.500
  20692074.547    -4668393.917 6  -3619016.088 6        19.250          17.000
  21316418.094   -16150427.407 7 -12535113.687 6        22.500          16.000
  23991849.445    -3138472.035 5  -2398924.557 5         9.750           6.750
  21042612.391     2503888.498 7   1958035.600 6        27.000          16.750
  23599262.766    -5313806.977 5  -4070163.539 5        11.000           7.000
  23685064.859    -3767834.005 5  -2489451.116 5        10.250           7.000
 93  3 18 20 53 15.0000000  0  8G29G 2G19G27G28G18G11G16
  23660245.180    13311965.691 5  10338466.164 5         7.500           5.500
  22879837.414    -8924601.329 6  -6869854.675 5        15.250          10.750
  20691295.641    -4672552.800 6  -3622256.765 6        18.250          17.000
  21310047.992   -16183894.350 7 -12561191.798 6        22.000          16.250
  23994831.805    -3122845.119 5  -2386747.769 5        10.250           6.750
  21046909.594     2526477.597 7   1975637.471 6        27.250          16.500
  23592321.195    -5350269.352 5  -4098575.709 5        11.750           7.000
  23679989.641    -3794451.499 5  -2510192.012 5        10.000           6.750
 93  3 18 20 53 30.0000000  0  8G29G 2G19G27G28G18G11G16
  23667961.523    13352466.359 5  10370024.993 5         7.500           5.500
  22870636.016    -8972969.865 6  -6907544.377 5        15.000          10.500
  20690498.820    -4676676.379 6  -3625469.937 6        19.500          16.750
  21303681.555   -16217326.263 7 -12587242.605 6        22.250          16.250
  23997829.070    -3107102.485 5  -2374480.803 5         9.750           6.750
  21051225.023     2549156.717 7   1993309.488 6        27.500          16.500
  23585405.141    -5386635.123 5  -4126912.595 5        11.500           7.250
  23674948.156    -3820942.185 5  -2530834.092 5         9.500           6.750
 93  3 18 20 53 45.0000000  0  8G29G 2G19G27G28G18G11G16
  23675671.852    13393009.082 5  10401616.573 5         7.750           5.250
  22861435.289    -9021284.685 6  -6945192.228 5        15.000          10.500
  20689730.930    -4680766.505 6  -3628657.043 6        18.000          17.000
  21297324.008   -16250725.868 7 -12613268.241 6        22.250          16.000
  24000843.875    -3091248.320 5  -2362126.948 5        10.250           7.250
  21055560.758     2571925.777 7   2011051.585 6        27.750          16.500
  23578500.539    -5422906.979 5  -4155176.312 5        11.750           7.000
  23669935.297    -3847309.093 5  -2551379.728 5         9.250           6.500
 93  3 18 20 54  0.0000000  0  8G29G 2G19G27G28G18G11G16
  23683394.227    13433595.820 5  10433242.482 5         7.750           5.250
  22852254.086    -9069542.257 6  -6982795.460 5        14.750          10.250
  20688967.867    -4684817.128 6  -3631813.365 6        18.000          17.000
  21290982.648   -16284087.488 7 -12639264.283 6        23.250          16.000
  24003879.789    -3075280.841 5  -2349684.775 5         9.250           7.000
  21059910.594     2594788.874 7   2028866.956 6        26.750          16.250
  23571616.227    -5459080.422 5  -4183363.327 5        11.750           7.000
  23664943.477    -3873551.530 5  -2571828.376 5        10.000           6.500
 93  3 18 20 54 15.0000000  0  8G29G 2G19G27G28G18G11G16
  23691133.180    13474228.922 5  10464904.497 5         7.500           5.250
  22843082.688    -9117742.361 6  -7020353.917 5        15.000          10.250
  20688199.703    -4688828.510 6  -3634939.113 6        18.250          17.000
  21284641.078   -16317412.192 7 -12665231.557 6        23.250          16.000
  24006946.406    -3059204.050 5  -2337157.421 5        10.000           6.500
  21064279.164     2617746.099 7   2046755.662 6        26.250          16.250
  23564755.258    -5495154.301 5  -4211472.761 5        11.750           7.000
  23659975.188    -3899668.810 5  -2592179.496 5        10.500           6.500
 93  3 18 20 54 30.0000000  0  8G29G 2G19G27G28G18G11G16
  23698867.242    13514905.709 4  10496600.564 5         7.250           5.250
  22833920.813    -9165888.367 6  -7057870.206 5        15.250          10.250
  20687435.695    -4692804.442 6  -3638037.239 6        18.750          17.250
  21278297.086   -16350703.566 7 -12691172.855 6        22.750          16.000
  24010028.164    -3043020.389 5  -2324546.775 5        10.750           6.500
  21068664.953     2640797.824 7   2064718.030 6        26.250          15.750
  23557900.500    -5531129.164 6  -4239505.048 5        12.000           7.000
  23655026.750    -3925664.088 5  -2612435.541 5        10.500           6.750
 93  3 18 20 54 45.0000000  0  8G29G 2G19G27G28G18G11G16
  23706609.883    13555626.155 4  10528330.636 5         7.250           5.250
  22824768.969    -9213982.914 6  -7095346.406 5        15.250          10.500
  20686693.695    -4696741.945 6  -3641105.423 6        18.000          17.250
  21271978.117   -16383961.688 7 -12717088.240 6        23.000          15.750
  24013120.508    -3026730.647 5  -2311853.467 5        10.000           6.500
  21073068.797     2663945.626 7   2082755.247 6        26.250          15.750
  23551079.523    -5567003.412 6  -4267458.955 5        12.250           7.000
  23650099.273    -3951537.959 5  -2632596.984 5        10.250           6.750
 93  3 18 20 55  0.0000000  0  8G29G 2G19G27G28G18G11G16
  23714376.414    13596387.885 4  10560092.886 5         7.250           5.000
  22815626.109    -9262028.004 6  -7132784.067 5        14.750          10.250
  20685945.258    -4700638.628 6  -3644141.796 6        19.000          17.250
  21265653.016   -16417185.699 7 -12742977.049 6        22.750          15.750
  24016242.594    -3010335.233 5  -2299077.839 5         9.000           6.500
  21077493.164     2687188.433 7   2100866.505 6        26.500          15.750
  23544268.953    -5602776.264 6  -4295333.823 5        12.750           7.250
  23645203.422    -3977289.593 5  -2652663.187 5        10.250           7.000
 93  3 18 20 55 15.0000000  0  8G29G 2G19G27G28G18G11G16
  23722143.867    13637183.792 5  10591881.782 5         7.500           4.500
  22806486.773    -9310029.363 6  -7170187.661 5        15.000          10.250
  20685218.531    -4704496.220 6  -3647147.703 6        18.250          17.500
  21259335.367   -16450381.851 7 -12768844.154 6        22.250          16.000
  24019374.406    -2993841.540 5  -2286225.622 5         8.750           6.500
  21081931.742     2710518.756 7   2119045.946 6        27.000          15.750
  23537483.969    -5638455.422 6  -4323135.692 5        13.250           7.000
  23640320.219    -4002928.188 5  -2672641.303 5        10.000           6.500
 93  3 18 20 55 30.0000000  0  8G29G 2G19G27G28G18G11G16
  23729912.094    13678021.254 4  10623703.038 5         7.250           5.000
  22797363.539    -9357976.537 6  -7207549.029 5        15.250          10.000
  20684485.555    -4708304.833 6  -3650115.460 6        19.000          17.250
  21253021.453   -16483541.319 7 -12794682.674 6        22.500          16.000
  24022540.492    -2977240.331 5  -2273289.632 5         8.750           6.250
  21086388.305     2733946.964 7   2137301.662 6        26.500          15.500
  23530713.094    -5674031.027 6  -4350856.878 5        12.750           7.250
  23635467.586    -4028447.696 5  -2692526.615 5        10.000           6.250
 93  3 18 20 55 45.0000000  0  8G29G 2G19G27G28G18G11G16
  23737697.422    13718899.238 4  10655555.870 5         7.000           5.000
  22788247.641    -9405873.935 6  -7244871.610 5        15.250          10.000
  20683777.578    -4712070.126 6  -3653049.444 6        18.500          17.250
  21246723.016   -16516664.750 7 -12820493.110 6        23.000          16.000
  24025720.805    -2960534.021 5  -2260271.730 5         8.500           6.000
  21090868.844     2757472.351 7   2155633.110 6        26.500          15.500
  23523959.023    -5709505.470 6  -4378499.246 5        12.250           7.250
  23630640.906    -4053852.357 5  -2712322.450 5         9.750           5.750
 93  3 18 20 56  0.0000000  0  8G29G 2G19G27G28G18G11G16
  23745477.305    13759814.784 4  10687437.955 5         7.250           5.000
  22779145.070    -9453722.857 6  -7282156.417 5        15.750          10.500
  20683058.000    -4715793.487 6  -3655950.770 6        19.000          17.250
  21240428.102   -16549752.451 7 -12846275.709 6        23.250          15.750
  24028915.633    -2943723.978 5  -2247172.990 5         8.500           6.750
  21095360.344     2781092.562 7   2174038.431 6        25.750          15.500
  23517229.992    -5744878.782 6  -4406062.778 5        12.500           7.500
  23625820.484    -4079143.338 5  -2732029.694 5         9.750           6.000
 93  3 18 20 56 15.0000000  0  8G29G 2G19G27G28G18G11G16
  23753259.117    13800769.497 4  10719350.584 5         6.750           5.000
  22770047.484    -9501519.416 6  -7319400.420 5        15.250          10.750
  20682366.547    -4719474.961 6  -3658819.450 6        17.750          17.500
  21234138.484   -16582803.903 7 -12872030.062 6        23.750          15.500
  24032137.625    -2926808.543 5  -2233992.150 5         8.750           6.250
  21099874.563     2804808.902 7   2192518.675 6        27.000          15.500
  23510519.047    -5780148.746 6  -4433545.818 5        12.500           7.500
  23621034.969    -4104318.214 5  -2751646.463 5         9.500           6.250
 93  3 18 20 56 30.0000000  0  8G29G 2G19G27G28G18G11G16
  23761066.719    13841765.547 5  10751295.435 5         7.750           5.000
  22760961.586    -9549262.472 6  -7356602.745 5        15.250          11.000
  20681670.227    -4723115.204 6  -3661656.004 6        18.750          17.250
  21227853.859   -16615819.977 7 -12897756.852 6        24.000          15.500
  24035375.008    -2909784.440 5  -2220726.619 5         9.500           6.000
  21104409.641     2828624.973 7   2211076.622 6        26.250          15.750
  23503825.367    -5815314.430 6  -4460947.593 5        13.000           7.500
  23616263.781    -4129372.753 5  -2771169.484 5         9.500           6.500
 93  3 18 20 56 45.0000000  0  8G29G 2G19G27G28G18G11G16
  23768881.773    13882798.802 5  10783269.240 5         8.500           5.000
  22751889.641    -9596953.900 6  -7393764.827 5        15.000          11.000
  20680992.914    -4726713.336 6  -3664459.749 6        18.500          17.500
  21221577.852   -16648803.716 7 -12923458.438 6        23.500          15.500
  24038635.438    -2892651.659 5  -2207376.393 5         9.250           5.750
  21108955.492     2852539.500 7   2229711.296 6        25.750          15.750
  23497156.859    -5850377.810 6  -4488269.648 5        13.000           7.750
  23611517.500    -4154308.066 5  -2790599.565 5         9.750           6.750
 93  3 18 20 57  0.0000000  0  8G29G 2G19G27G28G18G11G16
  23776699.094    13923870.265 5  10815272.864 5         9.500           4.750
  22742827.914    -9644589.546 6  -7430883.452 5        15.500          11.000
  20680307.750    -4730267.620 6  -3667229.324 6        18.250          17.500
  21215303.680   -16681755.731 7 -12949135.306 6        23.000          15.750
  24041918.531    -2875408.588 5  -2193940.211 5         8.250           5.250
  21113529.102     2876553.269 7   2248423.294 6        26.750          16.000
  23490500.383    -5885337.823 6  -4515511.158 5        12.500           7.500
  23606791.383    -4179120.136 5  -2809933.630 5        10.500           7.000
 93  3 18 20 57 15.0000000  0  8G29G 2G19G27G28G18G11G16
  23784516.211    13964984.124 5  10847309.460 5         8.750           5.000
  22733771.242    -9692161.106 6  -7467952.128 5        15.250          11.250
  20679647.492    -4733775.468 6  -3669962.707 6        18.000          17.750
  21209041.297   -16714670.447 7 -12974783.119 6        23.500          15.750
  24045220.648    -2858047.703 5  -2180412.261 5         8.750           5.250
  21118119.313     2900670.740 7   2267216.089 6        27.000          15.750
  23483869.680    -5920188.984 6  -4542667.827 5        12.250           7.750
  23602103.320    -4203805.456 5  -2829168.919 5        10.750           7.250
 93  3 18 20 57 30.0000000  0  8G29G 2G19G27G28G18G11G16
  23792345.281    14006130.413 5  10879371.374 5         8.750           5.000
  22724729.883    -9739679.853 6  -7504979.648 5        15.250          11.000
  20678977.008    -4737251.723 6  -3672671.483 6        19.000          17.750
  21202785.484   -16747560.495 7 -13000411.704 6        23.750          15.750
  24048548.875    -2840580.574 5  -2166801.509 5         9.000           5.500
  21122724.750     2924882.106 7   2286082.061 6        26.250          15.500
  23477258.977    -5954941.533 6  -4569747.658 5        12.500           7.750
  23597417.406    -4228374.565 5  -2848313.679 5         9.000           7.250
 93  3 18 20 57 45.0000000  0  8G29G 2G19G27G28G18G11G16
  23800191.758    14047317.172 5  10911464.767 5         8.750           5.000
  22715697.766    -9787142.136 6  -7541963.178 5        14.750          11.000
  20678330.609    -4740692.587 6  -3675352.677 6        18.750          17.750
  21196533.258   -16780421.395 7 -13026017.566 6        24.000          16.000
  24051888.656    -2823000.326 5  -2153102.634 5         9.000           5.750
  21127350.719     2949195.696 7   2305027.685 6        25.750          15.750
  23470658.383    -5989587.441 5  -4596744.415 5        11.750           8.000
  23592773.352    -4252816.960 5  -2867359.702 5         8.750           7.250
 93  3 18 20 58  0.0000000  0  8G29G 2G19G27G28G18G11G16
  23808033.109    14088543.577 5  10943589.120 5         8.250           5.250
  22706678.805    -9834549.158 6  -7578903.656 5        15.500          11.000
  20677677.984    -4744094.301 6  -3678003.371 6        19.000          17.750
  21190277.789   -16813254.124 7 -13051601.485 6        23.500          16.000
  24055254.703    -2805305.343 5  -2139314.337 5         8.500           5.500
  21131995.234     2973609.746 7   2324051.589 6        25.250          15.750
  23464087.180    -6024126.395 6  -4623657.818 5        12.250           7.750
  23588143.414    -4277131.046 5  -2886305.721 5         9.000           7.000
 93  3 18 20 58 15.0000000  0  8G29G 2G19G27G28G18G11G16
  23815879.484    14129802.916 5  10975739.119 5         8.500           5.250
  22697666.625    -9881901.973 6  -7615801.880 5        15.750          11.000
  20677039.883    -4747456.542 6  -3680623.299 6        18.250          17.750
  21184038.664   -16846065.063 7 -13077168.429 6        23.500          16.000
  24058647.258    -2787498.724 5  -2125439.070 5         9.000           5.250
  21136660.188     2998119.008 7   2343149.691 6        25.000          15.750
  23457541.805    -6058561.583 6  -4650490.382 5        12.500           7.750
  23583540.391    -4301318.195 5  -2905152.811 5         9.750           7.000
 93  3 18 20 58 30.0000000  0  8G29G 2G19G27G28G18G11G16
  23823734.242    14171101.403 5  11007919.605 5         8.500           5.250
  22688667.555    -9929195.460 6  -7652653.875 5        15.750          10.750
  20676406.258    -4750774.889 6  -3683209.016 6        19.250          17.750
  21177796.453   -16878847.796 7 -13102713.398 6        23.500          16.000
  24062051.102    -2769573.714 5  -2111471.531 5         8.750           5.500
  21141344.422     3022726.822 7   2362324.584 6        24.750          15.750
  23451010.227    -6092887.472 6  -4677237.742 5        12.500           7.750
  23578967.344    -4325370.371 5  -2923894.760 5        10.500           7.250
 93  3 18 20 58 45.0000000  0  8G29G 2G19G27G28G18G11G16
  23831601.891    14212431.376 5  11040124.628 5         8.750           5.250
  22679677.484    -9976435.105 6  -7689463.929 5        16.000          10.750
  20675788.023    -4754053.013 6  -3685763.408 6        18.500          17.750
  21171562.273   -16911606.475 7 -13128239.620 6        23.500          16.000
  24065486.484    -2751534.008 5  -2097414.636 5         9.250           6.000
  21146045.234     3047426.711 7   2381571.217 6        24.500          15.750
  23444493.875    -6127108.443 6  -4703903.383 5        12.000           7.750
  23574408.172    -4349293.026 5  -2942535.775 5        10.500           7.500
 93  3 18 20 59  0.0000000  0  8G29G 2G19G27G28G18G11G16
  23839467.680    14253791.090 5  11072352.827 5         8.750           5.500
  22670694.469   -10023621.255 6  -7726232.302 5        15.500          10.750
  20675176.445    -4757289.995 6  -3688285.732 6        18.000          17.750
  21165336.984   -16944340.630 7 -13153746.736 6        23.750          16.250
  24068948.414    -2733380.890 5  -2083269.353 5         9.250           6.250
  21150762.766     3072213.353 7   2400885.455 6        24.750          16.000
  23438000.109    -6161224.062 6  -4730486.910 5        12.750           7.750
  23569886.414    -4373090.619 5  -2961079.338 5        11.000           7.500
 93  3 18 20 59 14.9990000  0  8G29G 2G19G27G28G18G11G16
  23847348.253    14295180.327 5  11104604.029 5         9.500           5.500
  22661730.011   -10070748.662 6  -7762954.909 5        16.500          11.000
  20674560.980    -4760487.919 6  -3690777.611 6        18.000          17.500
  21159114.620   -16977045.313 7 -13179230.890 6        24.000          16.000
  24072412.417    -2715117.214 5  -2069037.927 5         8.250           6.500
  21155496.089     3097084.976 7   2420265.912 6        25.000          15.750
  23431529.331    -6195231.443 6  -4756986.124 5        12.250           7.500
  23565372.792    -4396764.704 5  -2979526.654 5        10.250           7.500
 93  3 18 20 59 29.9990000  0  8G29G 2G19G27G28G18G11G16
  23855236.753    14336608.142 5  11136885.301 5         9.750           5.500
  22652769.487   -10117822.109 6  -7799635.456 5        16.250          11.250
  20673948.167    -4763644.464 6  -3693237.267 6        19.000          17.750
  21152897.386   -17009721.483 7 -13204692.822 6        24.000          16.000
  24075915.253    -2696740.697 5  -2054718.577 5         9.750           6.500
  21160244.667     3122046.422 7   2439716.363 6        24.500          15.500
  23425081.464    -6229132.509 6  -4783402.481 5        13.750           7.750
  23560896.972    -4420317.660 5  -2997879.576 5         9.750           7.500
 93  3 18 20 59 44.9990000  0  8G29G 2G19G27G28G18G11G16
  23863124.815    14378069.161 5  11169192.437 5        10.000           5.500
  22643822.620   -10164841.161 6  -7836273.615 5        16.250          11.500
  20673372.190    -4766760.318 6  -3695665.198 6        18.000          17.750
  21146683.370   -17042372.053 7 -13230134.809 6        24.000          16.000
  24079435.151    -2678253.904 5  -2040313.285 5         9.500           6.250
  21165011.815     3147094.921 7   2459234.652 6        24.750          15.750
  23418651.706    -6262927.183 6  -4809735.934 5        13.500           7.750
  23556432.605    -4443747.779 5  -3016136.780 5         9.250           7.000
 93  3 18 20 59 59.9990000  0  8G29G 2G19G27G28G18G11G16
  23871021.573    14419563.355 5  11201525.415 5        10.000           5.500
  22634885.261   -10211798.766 6  -7872863.906 5        16.000          11.250
  20672790.753    -4769831.584 6  -3698058.391 6        17.750          17.750
  21140475.206   -17074992.748 7 -13255553.509 6        24.250          16.250
  24082972.667    -2659653.659 5  -2025819.594 5         9.500           6.750
  21169795.175     3172231.112 7   2478821.258 6        24.500          15.750
  23412238.112    -6296612.887 6  -4835984.486 5        14.000           8.000
  23552007.206    -4467052.988 5  -3034296.648 5         8.750           6.750
 93  3 18 21  0 14.9990000  0  8G29G 2G19G27G28G18G11G16
  23878921.323    14461092.254 5  11233885.449 5        10.000           5.500
  22625961.144   -10258689.841 6  -7909402.358 5        15.750          11.500
  20672208.737    -4772857.188 6  -3700415.996 6        18.000          17.750
  21134278.683   -17107578.665 7 -13280945.107 6        24.250          16.250
  24086533.105    -2640939.736 5  -2011237.326 5         8.750           7.250
  21174594.792     3197454.812 7   2498476.060 6        25.000          15.750
  23405845.323    -6330188.241 6  -4862147.037 5        13.000           8.000
  23547594.925    -4490234.493 5  -3052360.138 5         9.500           6.500
 93  3 18 21  0 29.9990000  0  8G29G 2G19G27G28G18G11G16
  23886827.456    14502657.866 5  11266274.061 5        10.000           5.750
  22617053.378   -10305514.561 6  -7945889.097 5        15.250          11.500
  20671628.308    -4775842.116 6  -3702741.915 6        19.000          17.750
  21128076.440   -17140128.987 7 -13306308.981 6        24.000          16.250
  24090118.026    -2622114.187 5  -1996568.102 5         9.250           7.500
  21179411.628     3222766.728 7   2518199.608 6        25.500          15.750
  23399488.487    -6363653.390 6  -4888223.737 5        13.250           8.000
  23543206.753    -4513293.815 5  -3070328.426 5         9.500           6.750
 93  3 18 21  0 44.9990000  0  8G29G 2G19G27G28G18G11G16
  23894759.058    14544262.347 5  11298692.987 5        10.000           5.750
  22608159.237   -10352273.848 6  -7982324.856 5        16.000          11.750
  20671084.065    -4778788.245 6  -3705037.594 6        17.750          17.750
  21121895.581   -17172642.925 7 -13331644.500 6        25.000          16.500
  24093715.808    -2603175.644 5  -1981810.793 5         9.250           7.750
  21184242.730     3248168.792 7   2537993.401 6        24.500          15.750
  23393134.347    -6397008.166 6  -4914214.405 5        13.000           8.500
  23538839.847    -4536235.061 5  -3088204.683 5         9.750           6.500
 93  3 18 21  0 59.9990000  0  8G29G 2G19G27G28G18G11G16
  23902683.808    14585906.000 5  11331142.409 5        10.250           5.750
  22599270.925   -10398970.253 6  -8018711.606 5        15.750          11.750
  20670531.120    -4781697.317 6  -3707304.402 6        16.750          17.500
  21115712.667   -17205123.607 7 -13356954.105 6        24.500          16.500
  24097347.995    -2584125.516 5  -1966966.547 5         9.500           7.500
  21189096.284     3273659.640 7   2557856.374 6        25.000          15.500
  23386807.284    -6430254.090 6  -4940120.283 5        13.000           8.250
  23534492.323    -4559062.448 5  -3105992.231 5        10.000           6.750
 93  3 18 21  1 14.9990000  0  7G29G 2G19G27G18G11G16
  23910618.815    14627592.626 5  11363625.325 5         9.750           6.000
  22590394.917   -10445602.083 6  -8055048.042 5        15.000          11.750
  20669983.495    -4784569.325 6  -3709542.327 6        18.000          17.500
  21109535.855   -17237569.651 7 -13382236.719 6        24.750          16.500
  21193961.940     3299242.175 7   2577790.799 6        24.250          15.750
  23380501.581    -6463390.318 6  -4965940.649 5        13.750           8.500
  23530170.573    -4581774.273 5  -3123689.713 5         9.250           7.000
 93  3 18 21  1 29.9990000  0  7G29G 2G19G27G18G11G16
  23918556.776    14669324.558 5  11396143.547 5        10.000           6.000
  22581538.714   -10492166.576 6  -8091332.010 5        15.250          11.750
  20669441.753    -4787400.867 6  -3711748.719 6        17.500          17.500
  21103371.042   -17269978.180 7 -13407490.102 6        24.750          16.250
  21198852.401     3324922.061 7   2597801.070 6        25.000          15.750
  23374218.761    -6496413.626 6  -4991673.035 5        13.750           8.250
  23525868.769    -4604363.118 5  -3141291.384 5         9.000           7.500
 93  3 18 21  1 44.9990000  0  7G29G 2G19G27G18G11G16
  23926504.112    14711094.899 5  11428691.691 5         9.750           6.250
  22572684.683   -10538669.313 6  -8127567.856 5        16.000          11.500
  20668911.714    -4790193.546 6  -3713924.829 6        18.000          17.500
  21097209.714   -17302352.691 7 -13432716.967 6        24.500          16.250
  21203754.573     3350695.008 7   2617883.849 6        24.500          15.750
  23367945.292    -6529327.154 6  -5017319.883 5        12.750           8.250
  23521590.573    -4626831.090 5  -3158798.850 5         9.000           7.500
 93  3 18 21  1 59.9990000  0  7G29G 2G19G27G18G11G16
  23934455.315    14752902.001 5  11461268.495 5         9.000           6.250
  22563849.651   -10585110.722 6  -8163755.920 5        16.250          11.250
  20668378.206    -4792947.308 6  -3716070.609 6        19.500          17.250
  21091054.667   -17334691.255 7 -13457915.830 6        24.250          16.000
  21208675.284     3376558.735 7   2638037.379 6        23.500          15.500
  23361707.011    -6562131.116 6  -5042881.360 5        13.250           8.250
  23517344.081    -4649176.889 5  -3176211.116 5         9.750           7.250
 93  3 18 21  2 14.9990000  0  7G29G 2G19G27G18G11G16
  23942413.464    14794749.085 5  11493876.425 5         9.000           6.000
  22555024.675   -10631493.520 6  -8199898.307 5        17.000          11.000
  20667870.987    -4795662.376 6  -3718186.246 6        18.250          17.250
  21084910.050   -17366990.693 7 -13483084.201 6        24.500          16.250
  21213613.378     3402513.460 7   2658261.819 6        24.000          15.250
  23355479.667    -6594825.373 6  -5068357.336 5        12.500           8.250
  23513124.448    -4671402.003 5  -3193529.372 5        10.250           6.750
 93  3 18 21  2 29.9990000  0  7G29G 2G19G27G18G11G16
  23950388.605    14836636.588 5  11526515.883 5         8.500           6.000
  22546203.644   -10677821.290 6  -8235997.810 5        16.750          11.000
  20667352.331    -4798337.375 6  -3720270.658 6        19.500          17.250
  21078768.956   -17399250.922 7 -13508222.027 6        24.000          16.000
  21218571.980     3428562.839 7   2678560.001 6        24.750          15.250
  23349295.487    -6627408.513 6  -5093746.767 5        12.250           8.250
  23508905.394    -4693503.958 5  -3210751.646 5         9.500           6.250
 93  3 18 21  2 44.9990000  0  7G29G 2G19G27G18G11G16
  23958377.120    14878562.834 5  11559185.513 5         8.750           6.000
  22537400.167   -10724094.412 6  -8272054.746 5        16.250          11.000
  20666857.651    -4800971.488 6  -3722323.206 6        18.250          17.250
  21072643.526   -17431473.356 7 -13533330.397 6        24.750          16.250
  21223546.847     3454707.089 7   2698932.112 6        25.000          15.500
  23343108.495    -6659878.514 5  -5119048.011 5        11.750           8.250
  23504734.245    -4715478.283 5  -3227874.496 5         9.750           6.500
 93  3 18 21  2 59.9990000  0  7G29G 2G19G27G18G11G16
  23966346.565    14920524.345 5  11591882.610 5         8.250           6.000
  22528601.901   -10770314.713 6  -8308070.519 5        16.250          11.000
  20666361.792    -4803562.797 6  -3724342.403 6        19.000          17.250
  21066515.073   -17463659.819 7 -13558410.736 6        24.500          16.500
  21228542.464     3480944.824 7   2719377.075 6        25.000          15.500
  23336952.995    -6692236.781 6  -5144262.189 5        12.500           8.500
  23500571.667    -4737323.748 5  -3244896.933 5         9.750           6.250
 93  3 18 21  3 14.9990000  0  7G29G 2G19G27G18G11G16
  23974345.448    14962517.321 5  11624604.253 5         8.500           6.000
  22519818.800   -10816483.628 6  -8344046.251 5        16.250          11.000
  20665881.105    -4806110.621 6  -3726327.713 6        18.000          17.250
  21060396.300   -17495807.426 7 -13583460.801 6        24.750          16.500
  21233551.331     3507275.421 7   2739894.387 6        24.250          15.250
  23330819.081    -6724482.847 6  -5169388.947 5        13.250           8.250
  23496436.800    -4759036.971 5  -3261816.301 5         9.250           6.750
 93  3 18 21  3 29.9990000  0  7G29G 2G19G27G18G11G16
  23982336.683    15004536.713 5  11657346.454 5         8.500           6.000
  22511045.855   -10862601.205 6  -8379981.964 5        17.000          11.250
  20665402.855    -4808615.000 6  -3728279.176 6        18.250          17.250
  21054288.698   -17527915.663 7 -13608480.193 6        24.500          16.500
  21238580.565     3533697.928 7   2760483.328 6        24.000          15.250
  23324694.331    -6756616.598 6  -5194428.156 5        13.000           8.250
  23492326.909    -4780616.525 5  -3278631.489 5         9.500           7.250
 93  3 18 21  3 44.9990000  0  7G29G 2G19G27G18G11G16
  23990341.464    15046581.872 5  11690108.723 5         8.500           6.000
  22502279.784   -10908667.589 6  -8415877.792 5        16.250          11.500
  20664938.378    -4811075.390 6  -3730196.363 6        18.500          17.500
  21048181.128   -17559982.635 7 -13633467.414 6        24.000          16.750
  21243622.612     3560210.587 7   2781142.513 6        23.750          15.000
  23318611.339    -6788635.735 6  -5219378.070 5        13.000           8.250
  23488248.112    -4802060.671 5  -3295341.175 5        10.250           7.250
 93  3 18 21  3 59.9990000  0  7G29G 2G19G27G18G11G16
  23998352.917    15088656.486 5  11722893.968 5         8.500           6.000
  22493521.581   -10954681.352 6  -8451732.617 5        15.750          11.500
  20664468.706    -4813492.093 6  -3732079.496 6        19.750          17.500
  21042088.784   -17592007.531 7 -13658421.862 6        23.500          16.750
  21248687.151     3586815.283 7   2801873.412 6        24.000          15.250
  23312543.870    -6820538.944 6  -5244237.638 5        13.000           8.250
  23484194.651    -4823368.635 5  -3311944.746 5        11.000           7.250
 93  3 18 21  4 14.9990000  0  7G29G 2G19G27G18G11G16
  24006363.730    15130762.314 5  11755703.535 5         8.500           6.000
  22484774.933   -11000642.550 6  -8487546.484 5        15.500          11.750
  20664020.206    -4815868.047 6  -3733930.887 6        18.500          17.500
  21036002.589   -17623992.910 7 -13683345.507 6        24.250          16.750
  21253766.237     3613512.535 7   2822676.434 6        24.000          15.250
  23306488.222    -6852327.485 6  -5269007.910 5        12.750           8.000
  23480172.698    -4844541.093 5  -3328442.739 5        11.250           6.750
 93  3 18 21  4 29.9990000  0  7G29G 2G19G27G18G11G16
  24014386.386    15172893.938 5  11788533.173 5         8.250           6.000
  22476039.581   -11046555.071 6  -8523322.419 5        16.250          11.750
  20663568.144    -4818207.645 7  -3735753.944 6        20.250          17.750
  21029920.284   -17655944.495 7 -13708242.829 6        24.250          16.500
  21258863.800     3640298.162 7   2843548.321 6        24.000          15.250
  23300458.573    -6884005.196 5  -5293691.759 5        11.750           8.250
  23476155.964    -4865583.081 5  -3344839.082 5        11.000           6.500
 93  3 18 21  4 44.9990000  0  7G29G 2G19G27G18G11G16
  24022401.495    15215057.204 5  11821387.487 5         8.000           5.750
  22467314.011   -11092408.123 6  -8559052.010 6        16.500          12.000
  20663146.331    -4820500.906 6  -3737540.891 6        18.750          17.750
  21023851.784   -17687854.607 7 -13733107.828 6        24.500          16.500
  21263977.339     3667179.626 7   2864494.880 6        24.000          14.750
  23294450.495    -6915562.816 6  -5318282.055 5        12.500           8.000
  23472188.003    -4886484.246 5  -3361125.714 5        10.250           6.250
 93  3 18 21  4 59.9990000  0  7G29G 2G19G27G18G11G16
  24030433.667    15257248.538 5  11854263.688 5         7.750           6.000
  22458597.339   -11138204.818 6  -8594737.685 6        16.250          12.000
  20662711.558    -4822752.743 6  -3739295.572 6        18.750          18.000
  21017784.776   -17719730.829 7 -13757946.417 6        24.000          16.500
  21269110.136     3694150.313 7   2885510.964 6        24.500          15.000
  23288474.378    -6947006.817 6  -5342783.820 5        12.000           8.000
  23468232.112    -4907254.746 5  -3377310.505 5        10.250           6.250
 93  3 18 21  5 14.9990000  0  6G 2G19G27G18G11G16
  22449892.159   -11183941.842 6  -8630376.853 6        16.500          12.000
  20662290.519    -4824960.675 6  -3741016.032 6        18.250          18.250
  21011722.940   -17751569.510 7 -13782755.753 6        24.500          16.250
  21274262.237     3721211.879 7   2906597.867 6        24.500          14.750
  23282507.589    -6978335.796 6  -5367195.956 5        12.500           8.250
  23464307.730    -4927897.457 5  -3393395.717 5         9.250           6.500
 93  3 18 21  5 29.9990000  0  6G 2G19G27G18G11G16
  22441199.128   -11229615.846 6  -8665966.927 6        15.750          12.000
  20661873.605    -4827124.680 7  -3742702.265 6        20.000          18.000
  21005676.097   -17783372.452 7 -13807537.242 6        24.500          16.500
  21279428.417     3748360.429 7   2927752.539 6        24.750          15.000
  23276569.769    -7009549.497 6  -5391518.272 5        12.500           8.250
  23460393.386    -4948415.832 5  -3409384.031 5         9.750           7.000
 93  3 18 21  5 44.9990000  0  6G 2G19G27G18G11G16
  22432520.386   -11275228.549 6  -8701509.231 6        15.750          12.000
  20661481.237    -4829249.893 6  -3744358.270 6        18.250          18.000
  20999631.089   -17815147.000 7 -13832296.594 6        24.750          16.500
  21284610.487     3775591.529 7   2948971.548 6        24.500          14.750
  23270651.456    -7040652.190 6  -5415754.079 5        13.250           8.250
  23456528.026    -4968815.774 5  -3425280.084 5        11.000           7.000
 93  3 18 21  5 59.9990000  0  6G 2G19G27G18G11G16
  22423855.456   -11320780.702 6  -8737004.346 6        16.000          12.000
  20661068.276    -4831333.628 6  -3745981.952 6        19.000          18.000
  20993588.362   -17846893.544 7 -13857034.131 6        24.250          16.750
  21289808.464     3802906.630 7   2970256.007 6        25.250          14.750
  23264757.933    -7071643.405 6  -5439903.011 5        14.000           8.250
  23452665.589    -4989097.456 5  -3441083.977 5        10.750           7.500
 93  3 18 21  6 14.9990000  0  6G 2G19G27G18G11G16
  22415195.784   -11366259.966 6  -8772442.674 5        15.750          11.750
  20660694.808    -4833362.971 6  -3747563.250 6        17.750          17.750
  20987553.659   -17878602.507 7 -13881742.383 6        25.000          17.250
  21295025.815     3830318.956 7   2991616.228 6        25.750          14.500
  23258881.378    -7102511.914 6  -5463956.331 5        13.250           8.250
  23448828.948    -5009250.659 5  -3456787.763 5        10.000           7.500
 93  3 18 21  6 29.9990000  0  6G 2G19G27G18G11G16
  22406558.183   -11411672.748 6  -8807829.188 5        16.750          11.500
  20660324.370    -4835342.222 6  -3749105.526 6        17.250          17.750
  20981522.222   -17910279.504 7 -13906425.722 6        24.500          17.250
  21300257.073     3857818.836 7   3013044.674 6        25.750          14.500
  23253022.355    -7133264.086 6  -5487919.005 5        13.000           8.500
  23445005.886    -5029285.051 5  -3472398.957 5         8.750           7.000
 93  3 18 21  6 44.9990000  0  6G 2G19G27G18G11G16
  22397930.362   -11457018.863 6  -8843163.758 5        17.000          11.500
  20659951.222    -4837268.644 6  -3750606.627 6        17.750          18.000
  20975502.183   -17941923.469 7 -13931083.315 6        23.750          17.250
  21305507.956     3885406.856 7   3034541.804 6        26.000          14.500
  23247197.683    -7163898.202 6  -5511789.685 5        13.500           8.500
  23441220.597    -5049199.638 5  -3487916.795 5         8.500           6.750
 93  3 18 21  6 59.9990000  0  6G 2G19G27G18G11G16
  22389311.370   -11502298.875 6  -8878446.830 5        16.250          11.500
  20659588.839    -4839145.150 6  -3752068.836 6        18.250          18.000
  20969486.300   -17973535.096 7 -13955715.725 6        23.750          17.250
  21310774.542     3913081.369 7   3056106.325 6        26.250          14.500
  23241391.667    -7194415.286 6  -5535569.172 5        13.750           8.750
  23437449.237    -5068997.518 5  -3503343.712 5         9.250           6.000
 93  3 18 21  7 14.9990000  0  6G 2G19G27G18G11G16
  22380707.839   -11547512.281 6  -8913677.997 5        17.250          11.500
  20659244.722    -4840971.918 6  -3753492.287 6        17.250          18.000
  20963481.011   -18005111.652 7 -13980320.798 6        24.500          17.000
  21316060.089     3940842.233 7   3077738.137 6        26.000          14.500
  23235607.745    -7224814.077 6  -5559256.481 5        13.500           8.750
  23433709.917    -5088678.241 5  -3518679.338 5        10.500           6.000
 93  3 18 21  7 29.9990000  0  6G 2G19G27G18G11G16
  22372115.534   -11592661.129 6  -8948858.850 5        18.000          11.750
  20658901.159    -4842752.960 6  -3754880.104 6        18.250          18.250
  20957479.605   -18036652.950 7 -14004898.389 6        24.750          17.250
  21321353.448     3968686.956 7   3099435.290 6        24.500          14.250
  23229842.198    -7255094.343 6  -5582851.451 5        14.000           8.500
  23429986.253    -5108237.889 5  -3533920.643 5        10.250           6.500
 93  3 18 21  7 44.9990000  0  6G 2G19G27G18G11G16
  22363536.831   -11637747.067 6  -8983990.685 5        18.000          11.750
  20658578.925    -4844487.761 6  -3756231.887 6        17.750          18.250
  20951484.276   -18068154.974 7 -14029445.383 6        24.000          17.000
  21326668.011     3996620.601 7   3121201.742 6        24.250          14.250
  23224107.894    -7285252.761 6  -5606351.445 5        14.750           8.500
  23426292.980    -5127669.854 5  -3549062.427 5        10.500           6.750
 93  3 18 21  7 59.9990000  0  6G 2G19G27G18G11G16
  22354964.737   -11682781.294 6  -9019082.222 6        16.750          12.000
  20658251.003    -4846186.760 6  -3757555.784 6        18.250          18.000
  20945493.940   -18099625.025 7 -14053967.477 6        23.500          17.000
  21332000.956     4024639.202 7   3143034.382 6        24.750          14.250
  23218389.526    -7315296.028 6  -5629761.719 5        14.750           8.250
  23422621.206    -5146978.746 5  -3564108.307 5        10.250           7.000
 93  3 18 21  8 14.9990000  0  6G 2G19G27G18G11G16
  22346404.878   -11727762.844 6  -9054132.715 6        15.750          12.000
  20657938.472    -4847851.282 6  -3758852.808 6        18.250          18.250
  20939511.925   -18131062.076 7 -14078463.849 6        23.750          17.250
  21337347.940     4052743.589 7   3164933.872 6        25.500          15.000
  23212692.167    -7345223.341 6  -5653081.646 5        14.000           8.250
  23418963.605    -5166162.905 5  -3579056.964 5        10.000           7.000
 93  3 18 21  8 29.9990000  0  6G 2G19G27G18G11G16
  22337856.815   -11772684.136 6  -9089136.263 6        16.000          12.250
  20657620.222    -4849478.961 6  -3760121.130 6        18.750          18.000
  20933535.784   -18162459.713 7 -14102929.509 6        23.750          17.250
  21342719.503     4080938.645 7   3186904.010 6        24.500          14.750
  23207024.128    -7375029.597 6  -5676307.248 5        14.750           8.000
  23415340.964    -5185215.822 5  -3593903.368 5        10.000           7.000
 93  3 18 21  8 44.9990000  0  6G 2G19G27G18G11G16
  22329322.706   -11817547.028 6  -9124094.288 6        17.000          12.250
  20657323.808    -4851073.556 6  -3761363.669 6        17.500          18.000
  20927569.456   -18193818.217 7 -14127364.672 6        24.250          17.250
  21348098.347     4109221.252 7   3208942.370 6        24.250          14.500
  23201368.573    -7404716.667 6  -5699439.965 5        14.000           8.250
  23411745.815    -5204138.334 5  -3608648.187 5        10.500           6.750
 93  3 18 21  8 59.9990000  0  6G 2G19G27G18G11G16
  22320799.409   -11862347.676 6  -9159003.820 6        17.000          12.250
  20657022.565    -4852635.753 6  -3762580.952 6        18.750          18.000
  20921609.573   -18225136.962 7 -14151768.855 6        24.250          17.500
  21353496.550     4137593.963 7   3231050.943 6        23.750          14.250
  23195739.198    -7434282.736 6  -5722478.387 5        13.750           8.250
  23408169.956    -5222926.791 5  -3623288.540 5        11.000           6.000
 93  3 18 21  9 14.9990000  0  6G 2G19G27G18G11G16
  22312283.159   -11907082.186 6  -9193861.822 6        17.750          12.500
  20656735.706    -4854164.855 6  -3763772.453 6        18.250          18.000
  20915658.612   -18256413.820 7 -14176140.400 6        24.000          17.250
  21358915.081     4166058.886 7   3253231.367 6        22.750          14.250
  23190142.526    -7463725.887 6  -5745421.036 5        15.000           8.500
  23404614.456    -5241578.018 5  -3637821.977 5        11.250           6.000
 93  3 18 21  9 29.9990000  0  6G 2G19G27G18G11G16
  22303782.933   -11951754.264 6  -9228671.166 6        16.750          12.250
  20656446.269    -4855661.206 6  -3764938.450 6        19.250          18.000
  20909712.081   -18287652.570 7 -14200482.253 6        23.750          17.250
  21364346.581     4194615.013 7   3275482.864 6        22.750          14.500
  23184566.315    -7493048.445 6  -5768269.715 5        15.500           8.250
  23401090.190    -5260095.158 5  -3652250.922 5        11.500           6.000
 93  3 18 21  9 44.9990000  0  6G 2G19G27G18G11G16
  22295293.112   -11996360.276 6  -9263429.035 6        17.250          12.500
  20656178.183    -4857118.420 6  -3766073.931 6        18.000          18.000
  20903775.433   -18318847.279 7 -14224789.791 6        23.500          17.250
  21369800.050     4223269.225 7   3297810.788 6        23.250          14.250
  23179007.573    -7522245.390 6  -5791020.505 5        15.250           8.250
  23397601.386    -5278474.115 5  -3666572.208 5        11.000           6.000
 93  3 18 21  9 59.9990000  0  6G 2G19G27G18G11G16
  22286821.269   -12040906.566 6  -9298140.370 6        18.000          12.250
  20655898.050    -4858539.620 6  -3767181.355 6        19.500          18.250
  20897844.019   -18350005.239 7 -14249068.692 6        23.250          17.500
  21375266.737     4252014.118 7   3320209.376 6        23.500          14.250
  23173466.808    -7551324.272 6  -5813679.311 5        13.500           8.000
  23394120.722    -5296724.518 5  -3680793.302 5        10.250           6.750
 93  3 18 21 10 14.9990000  0  6G 2G19G27G18G11G16
  22278356.987   -12085385.507 6  -9332799.217 6        18.500          12.500
  20655641.222    -4859915.579 6  -3768253.533 6        18.250          18.250
  20891923.151   -18381121.245 7 -14273314.899 6        23.250          17.250
  21380755.128     4280852.802 7   3342681.055 6        23.750          14.000
  23167964.112    -7580281.000 6  -5836242.927 5        14.750           8.000
  23390667.245    -5314842.017 5  -3694910.826 5        10.000           7.000
 93  3 18 21 10 29.9990000  0  6G 2G19G27G18G11G16
  22269902.472   -12129793.953 6  -9367403.144 6        18.500          12.500
  20655389.214    -4861240.847 6  -3769286.200 6        19.250          18.250
  20886013.253   -18412191.675 7 -14297525.594 6        23.250          17.500
  21386264.526     4309784.197 7   3365224.967 6        23.500          14.000
  23162477.761    -7609114.866 6  -5858710.813 5        14.500           8.250
  23387250.589    -5332828.626 5  -3708926.338 5        11.000           7.000
 93  3 18 21 10 44.9990000  0  6G 2G19G27G18G11G16
  22261461.175   -12174135.908 6  -9401955.268 6        17.750          12.750
  20655152.886    -4862512.701 6  -3770277.252 6        19.000          18.250
  20880109.511   -18443216.879 7 -14321701.051 6        23.500          17.500
  21391785.269     4338804.871 7   3387838.444 6        23.750          13.750
  23157013.003    -7637826.565 6  -5881083.488 5        14.750           8.250
  23383847.581    -5350689.111 5  -3722843.615 5        10.750           6.750
 93  3 18 21 10 59.9990000  0  6G 2G19G27G18G11G16
  22253043.269   -12218415.144 6  -9436458.521 6        17.750          13.000
  20654912.519    -4863731.810 6  -3771227.208 6        18.750          18.500
  20874214.909   -18474201.517 7 -14345844.897 6        23.000          17.500
  21397322.776     4367911.825 7   3410519.159 6        24.000          13.750
  23151566.487    -7666417.291 6  -5903361.922 5        14.250           8.250
  23380475.776    -5368428.197 5  -3736666.291 5        11.250           6.500
 93  3 18 21 11 14.9990000  0  6G 2G19G27G18G11G16
  22244626.620   -12262631.503 6  -9470912.765 6        18.000          13.000
  20654693.347    -4864894.482 6  -3772133.182 6        18.750          18.250
  20868329.714   -18505145.067 7 -14369956.721 6        24.000          17.500
  21402884.042     4397108.946 7   3433270.127 6        24.250          13.750
  23146157.597    -7694884.135 6  -5925543.821 5        15.000           8.250
  23377122.503    -5386043.814 5  -3750392.755 5        10.750           6.250
 93  3 18 21 11 29.9990000  0  6G 2G19G27G18G11G16
  22236222.870   -12306790.763 6  -9505322.521 6        18.000          13.000
  20654487.480    -4865999.219 6  -3772994.012 6        18.250          18.250
  20862446.386   -18536046.617 7 -14394035.820 6        24.250          17.250
  21408455.823     4426396.910 7   3456091.884 6        23.750          13.750
  23140760.698    -7723226.895 6  -5947629.026 5        14.500           8.250
  23373794.972    -5403537.413 5  -3764024.124 5        10.500           6.000
 93  3 18 21 11 44.9990000  0  6G 2G19G27G18G11G16
  22227828.901   -12350898.185 6  -9539691.887 6        17.750          13.000
  20654287.698    -4867049.138 6  -3773812.131 6        18.250          18.500
  20856570.269   -18566909.474 7 -14418084.773 6        24.000          17.250
  21414046.011     4455770.639 7   3478980.476 6        24.000          14.000
  23135386.190    -7751448.789 6  -5969620.046 5        14.250           8.000
  23370485.237    -5420909.834 5  -3777561.073 5        10.250           6.000
 93  3 18 21 11 59.9990000  0  6G 2G19G27G18G11G16
  22219445.183   -12394949.005 6  -9574017.151 6        17.250          13.000
  20654083.003    -4868041.824 7  -3774585.651 6        20.000          18.250
  20850705.237   -18597732.823 7 -14442102.941 6        23.500          17.250
  21419648.339     4485232.045 7   3501937.392 6        24.750          13.750
  23130044.409    -7779546.074 6  -5991513.973 5        14.250           8.000
  23367205.995    -5438155.683 5  -3790999.393 5        10.000           6.000
 93  3 18 21 12 14.9990000  0  6G 2G19G27G18G11G16
  22211073.628   -12438942.623 6  -9608297.838 6        17.250          13.000
  20653920.581    -4868981.238 6  -3775317.662 6        18.250          18.500
  20844847.362   -18628522.741 7 -14466095.054 6        24.000          17.250
  21425271.980     4514777.295 7   3524959.635 6        25.250          13.750
  23124723.042    -7807520.155 6  -6013311.888 5        14.750           8.000
  23363949.722    -5455275.950 5  -3804339.865 5        10.250           6.250
 93  3 18 21 12 29.9990000  0  6G 2G19G27G18G11G16
  22202714.964   -12482878.493 6  -9642533.525 6        17.750          13.000
  20653747.667    -4869870.708 6  -3776010.759 6        17.500          18.500
  20838994.128   -18659281.110 7 -14490062.589 6        24.000          17.250
  21430911.855     4544407.063 7   3548047.737 6        24.500          13.750
  23119421.933    -7835370.365 6  -6035013.294 5        14.250           8.000
  23360716.425    -5472272.349 5  -3817583.827 5        11.000           6.750
 93  3 18 21 12 44.9990000  0  6G 2G19G27G18G11G16
  22194365.339   -12526755.587 6  -9676723.424 6        17.750          13.000
  20653586.737    -4870713.873 6  -3776667.756 6        18.000          18.500
  20833146.651   -18690007.357 7 -14514005.091 6        24.000          17.500
  21436569.386     4574122.615 7   3571202.672 6        24.250          13.500
  23114147.675    -7863093.685 6  -6056615.816 5        14.000           8.000
  23357506.425    -5489143.787 6  -3830730.403 5        12.000           7.000
 93  3 18 21 12 59.9990000  0  6G 2G19G27G18G11G16
  22186027.261   -12570575.813 6  -9710869.007 6        18.250          13.000
  20653423.675    -4871516.043 6  -3777292.831 6        19.750          18.500
  20827304.628   -18720705.168 7 -14537925.443 6        24.500          17.250
  21442234.339     4603922.506 7   3594423.334 6        23.250          13.500
  23108890.792    -7890691.800 6  -6078120.777 5        13.500           8.250
  23354320.550    -5505886.883 5  -3843776.974 5        11.500           6.750
 93  3 18 21 13 14.9990000  0  6G 2G19G27G18G11G16
  22177699.159   -12614333.963 6  -9744966.230 6        18.750          12.750
  20653291.276    -4872277.716 6  -3777886.338 6        18.500          18.750
  20821468.706   -18751371.662 7 -14561821.387 6        24.250          17.250
  21447923.636     4633810.101 7   3617712.340 6        23.750          13.500
  23103663.995    -7918162.221 6  -6099526.256 5        13.750           8.250
  23351161.276    -5522495.306 5  -3856718.584 5        11.250           6.750
 93  3 18 21 13 29.9990000  0  6G 2G19G27G18G11G16
  22169384.058   -12658029.265 6  -9779014.480 6        19.250          12.750
  20653156.714    -4873001.618 6  -3778450.422 6        18.000          18.750
  20815643.073   -18782003.511 7 -14585690.340 6        24.500          17.250
  21453625.839     4663784.766 7   3641069.184 6        23.250          13.500
  23098466.269    -7945506.788 6  -6120833.661 5        14.500           8.500
  23348020.878    -5538969.458 5  -3869555.595 5         9.500           6.500
 93  3 18 21 13 44.9990000  0  6G 2G19G27G18G11G16
  22161083.839   -12701656.388 6  -9813009.593 6        19.000          13.000
  20653023.175    -4873689.515 6  -3778986.450 6        18.750          18.750
  20809821.050   -18812599.165 7 -14609531.092 6        24.500          17.250
  21459347.237     4693843.067 7   3664491.206 6        23.000          13.250
  23093284.183    -7972725.629 6  -6142043.083 5        14.250           8.500
  23344916.362    -5555312.318 5  -3882290.295 5        10.000           6.250
 93  3 18 21 13 59.9990000  0  6G 2G19G27G18G11G16
  22152790.808   -12745207.340 6  -9846945.354 6        18.750          12.750
  20652898.276    -4874338.938 6  -3779492.494 6        18.500          18.750
  20804003.605   -18843155.853 7 -14633341.480 6        24.250          17.250
  21465082.667     4723987.243 7   3687980.145 6        22.750          13.250
  23088126.355    -7999814.890 6  -6163151.541 5        15.000           8.750
  23341822.323    -5571521.091 5  -3894920.505 5        10.250           6.500
 93  3 18 21 14 14.9990000  0  6G 2G19G27G18G11G16
  22144518.308   -12788686.282 6  -9880825.017 6        18.250          12.750
  20652779.808    -4874956.126 6  -3779973.417 6        18.500          18.500
  20798194.315   -18873677.577 7 -14657124.618 6        24.500          17.500
  21470832.230     4754212.219 7   3711532.037 6        23.000          13.500
  23082995.870    -8026779.492 6  -6184162.873 5        14.000           8.750
  23338772.386    -5587604.938 5  -3907453.376 5        11.750           6.750
 93  3 18 21 14 29.9990000  0  6G 2G19G27G18G11G16
  22136259.112   -12832092.405 6  -9914647.928 6        18.500          13.000
  20652661.292    -4875539.066 6  -3780427.653 6        19.500          18.750
  20792396.261   -18904155.741 7 -14680873.818 6        23.750          17.250
  21476605.644     4784521.131 7   3735149.338 6        23.750          13.500
  23077889.105    -8053616.932 6  -6205075.114 5        14.500           8.750
  23335733.315    -5603561.706 5  -3919887.226 5        11.500           7.000
 93  3 18 21 14 44.9990000  0  6G 2G19G27G18G11G16
  22128012.042   -12875429.188 6  -9948416.808 6        18.250          13.000
  20652565.644    -4876087.299 6  -3780854.849 6        18.500          18.750
  20786602.276   -18934588.255 7 -14704587.453 6        24.250          17.500
  21482385.808     4814910.244 7   3758829.131 6        23.750          13.500
  23072804.034    -8080328.841 6  -6225889.550 5        14.250           8.750
  23332719.284    -5619394.006 5  -3932224.080 5        11.250           7.000
 93  3 18 21 14 59.9990000  0  6G 2G19G27G18G11G16
  22119782.394   -12918692.235 6  -9982128.234 6        18.500          13.000
  20652461.855    -4876594.444 6  -3781250.020 6        19.750          18.250
  20780824.292   -18964970.140 7 -14728261.639 6        24.750          17.250
  21488186.362     4845383.578 7   3782574.551 6        23.250          13.500
  23067749.995    -8106911.156 6  -6246602.997 5        14.250           8.500
  23329732.847    -5635095.803 5  -3944459.255 5        11.000           7.000
 93  3 18 21 15 14.9990000  0  6G 2G19G27G18G11G16
  22111562.144   -12961891.004 6 -10015789.566 6        19.250          13.000
  20652381.183    -4877062.762 6  -3781614.946 6        18.250          18.500
  20775051.370   -18995309.542 7 -14751902.708 6        25.000          17.250
  21494001.644     4875932.695 7   3806379.030 6        24.000          13.750
  23062710.636    -8133372.436 6  -6267222.125 5        14.000           8.750
  23326763.269    -5650676.072 5  -3956599.712 5         9.750           7.000
 93  3 18 21 15 29.9990000  0  6G 2G19G27G18G11G16
  22103353.144   -13005022.846 6 -10049398.758 6        18.750          13.250
  20652291.409    -4877486.696 6  -3781945.288 6        19.000          18.500
  20769284.542   -19025601.473 7 -14775506.791 6        24.750          17.500
  21499826.456     4906562.708 7   3830246.536 6        24.000          13.750
  23057702.401    -8159707.448 6  -6287742.895 5        13.750           8.750
  23323812.026    -5666134.390 5  -3968645.141 5        10.000           6.750
 93  3 18 21 15 44.9990000  0  6G 2G19G27G18G11G16
  22095157.995   -13048086.767 6 -10082955.027 6        19.000          13.250
  20652230.651    -4877860.890 6  -3782236.857 6        18.250          18.250
  20763533.933   -19055844.141 7 -14799072.497 6        23.750          17.250
  21505672.261     4937275.943 7   3854178.899 6        24.000          14.000
  23052717.026    -8185911.209 6  -6308161.365 5        15.250           9.000
  23320907.019    -5681468.346 5  -3980593.667 5        10.500           6.750
 93  3 18 21 15 59.9990000  0  6G 2G19G27G18G11G16
  22086976.714   -13091090.843 6 -10116464.647 6        19.250          13.250
  20652159.948    -4878190.851 6  -3782493.967 6        18.500          18.500
  20757782.800   -19086047.903 7 -14822607.884 6        23.000          17.250
  21511531.589     4968065.378 7   3878170.632 6        24.000          14.000
  23047749.792    -8211990.085 6  -6328482.535 5        14.500           9.000
  23318008.276    -5696681.854 5  -3992448.364 5        11.250           6.500
 93  3 18 21 16 14.9990000  0  6G 2G19G27G18G11G16
  22078800.230   -13134029.442 6 -10149923.260 6        19.000          13.250
  20652113.433    -4878465.526 6  -3782708.004 6        17.750          18.500
  20752045.636   -19116204.368 7 -14846106.407 6        23.500          17.250
  21517406.503     4998942.532 7   3902230.710 6        23.500          14.250
  23042816.503    -8237935.199 6  -6348699.463 5        15.500           9.000
  23315142.870    -5711763.570 5  -4004200.343 5        11.500           6.500
 93  3 18 21 16 29.9990000  0  6G 2G19G27G18G11G16
  22070643.503   -13176906.524 6 -10183333.931 6        18.750          13.250
  20652056.019    -4878686.770 6  -3782880.401 6        19.000          18.500
  20746317.073   -19146315.001 7 -14869569.228 6        24.500          17.500
  21523296.987     5029903.848 7   3926356.378 6        22.250          14.000
  23037902.550    -8263749.381 6  -6368814.378 5        15.750           9.000
  23312297.980    -5726715.097 5  -4015850.890 5        11.000           7.000
 93  3 18 21 16 44.9990000  0  6G 2G19G27G18G11G16
  22062494.065   -13219725.425 6 -10216699.268 6        17.500          13.000
  20652038.042    -4878856.960 6  -3783013.021 6        18.500          18.750
  20740592.776   -19176385.121 7 -14893000.483 6        24.250          17.500
  21529205.105     5060946.751 7   3950545.620 6        22.750          14.000
  23033012.894    -8289436.498 6  -6388830.264 5        15.250           9.000
  23309472.980    -5741540.475 5  -4027403.147 5        11.250           7.000
 93  3 18 21 16 59.9990000  0  6G 2G19G27G18G11G16
  22054359.355   -13262477.139 6 -10250012.254 6        18.750          12.750
  20651996.839    -4878971.962 7  -3783102.631 6        20.000          18.750
  20734876.355   -19206413.326 7 -14916399.071 6        24.500          17.500
  21535128.730     5092078.797 7   3974804.320 6        22.250          14.000
  23028148.573    -8314990.314 6  -6408742.297 5        14.000           8.750
  23306689.386    -5756232.730 5  -4038851.630 5        10.500           7.250
 93  3 18 21 17 14.9990000  0  6G 2G19G27G18G11G16
  22046237.659   -13305161.603 6 -10283272.824 6        18.500          13.000
  20651997.683    -4879033.803 6  -3783150.816 6        18.250          18.750
  20729172.714   -19236401.163 7 -14939766.201 6        25.750          17.500
  21541072.237     5123301.769 7   3999133.877 6        22.000          13.500
  23023315.511    -8340410.724 6  -6428550.376 5        14.000           9.000
  23303908.683    -5770791.140 5  -4050195.828 5         9.750           7.000
 93  3 18 21 17 29.9990000  0  6G 2G19G27G18G11G16
  22038129.565   -13347785.288 6 -10316486.033 6        19.000          12.750
  20651997.683    -4879054.388 6  -3783166.862 6        18.250          18.750
  20723473.230   -19266358.690 7 -14963109.713 6        26.000          17.500
  21547030.823     5154607.670 7   4023528.056 6        22.500          13.750
  23018496.839    -8365705.199 6  -6448260.315 5        14.500           9.000
  23301163.167    -5785225.707 5  -4061443.545 5         9.000           6.750
 93  3 18 21 17 44.9990000  0  6G 2G19G27G18G11G16
  22030030.394   -13390342.910 6 -10349647.769 6        19.500          12.750
  20652003.808    -4879032.988 6  -3783150.181 6        18.000          18.750
  20717776.378   -19296282.001 7 -14986426.564 6        25.750          17.500
  21553003.745     5186001.016 7   4047990.361 6        22.500          13.750
  23013712.347    -8390869.407 6  -6467868.756 5        14.750           9.000
  23298445.519    -5799532.252 5  -4072591.484 5         9.250           6.500
 93  3 18 21 17 59.9990000  0  6G 2G19G27G18G11G16
  22021944.183   -13432830.678 6 -10382755.083 6        19.750          13.000
  20652004.448    -4878969.959 6  -3783101.073 6        19.250          18.500
  20712088.651   -19326170.913 7 -15009716.613 6        25.250          17.500
  21558996.144     5217480.419 7   4072519.738 6        22.250          13.750
  23008946.987    -8415904.545 6  -6487376.633 5        14.250           9.000
  23295736.659    -5813709.580 5  -4083638.783 5        11.000           6.000
 93  3 18 21 18 14.9990000  0  6G 2G19G27G18G11G16
  22013871.401   -13475246.494 6 -10415806.326 6        19.750          12.750
  20652036.487    -4878864.448 6  -3783018.853 6        18.000          18.250
  20706407.284   -19356021.397 7 -15032976.711 6        24.750          17.250
  21565001.690     5249046.641 7   4097116.760 6        21.750          13.500
  23004209.144    -8440809.380 6  -6506782.940 5        15.250           8.750
  23293068.386    -5827754.990 5  -4094583.270 5        10.750           6.000
 93  3 18 21 18 29.9990000  0  6G 2G19G27G18G11G16
  22005812.628   -13517593.762 6 -10448804.153 6        19.750          12.750
  20652054.730    -4878718.867 6  -3782905.412 6        19.250          18.250
  20700737.120   -19385831.905 7 -15056205.663 6        25.500          17.250
  21571024.347     5280695.997 7   4121778.555 6        21.000          13.500
  22999493.870    -8465584.808 6  -6526088.415 5        14.500           8.750
  23290426.589    -5841672.801 5  -4105428.310 5        10.750           5.750
 93  3 18 21 18 44.9990000  0  6G 2G19G27G18G11G16
  21997764.128   -13559872.058 6 -10481748.230 6        19.500          12.750
  20652099.730    -4878533.837 6  -3782761.234 6        18.250          18.250
  20695070.081   -19415600.555 7 -15079401.999 6        25.500          17.250
  21577063.644     5312429.643 7   4146506.044 6        20.750          13.250
  22994807.722    -8490228.975 6  -6545291.625 5        15.500           8.500
  23287793.940    -5855459.367 5  -4116171.091 5         9.750           6.000
 93  3 18 21 18 59.9990000  0  6G 2G19G27G18G11G16
  21989737.667   -13602079.331 6 -10514636.973 6        19.750          12.750
  20652148.206    -4878310.207 6  -3782586.971 6        18.000          18.250
  20689417.339   -19445327.950 7 -15102566.181 6        25.750          17.250
  21583119.339     5344247.676 7   4171299.276 6        21.250          13.500
  22990138.269    -8514740.832 6  -6564391.747 5        14.250           8.250
  23285202.612    -5869113.809 5  -4126810.903 5        10.000           6.250
 93  3 18 21 19 14.9990000  0  6G 2G19G27G18G11G16
  21981719.987   -13644219.018 6 -10547473.041 6        19.500          13.000
  20652193.159    -4878047.604 6  -3782382.342 6        18.250          18.250
  20683767.855   -19475014.141 7 -15125698.258 6        25.250          17.250
  21589185.409     5376147.116 7   4196155.950 6        21.000          13.250
  22985496.534    -8539120.753 6  -6583389.043 5        15.000           8.000
  23282621.933    -5882635.699 5  -4137347.414 5        10.500           6.500
 93  3 18 21 19 29.9990000  0  6G 2G19G27G18G11G16
  21973712.761   -13686289.620 6 -10580255.279 6        19.500          13.000
  20652245.659    -4877740.357 6  -3782142.932 6        19.000          18.250
  20678122.565   -19504652.297 7 -15148792.903 6        24.750          17.000
  21595272.136     5408130.659 7   4221078.153 6        20.500          13.250
  22980886.097    -8563364.330 6  -6602280.087 5        14.250           8.500
  23280078.651    -5896023.409 5  -4147779.365 5        11.500           6.500
